GFSMA_250_spd_000.txt.gz
Wind_Speed
61 63 63 63 62 60 61 59 61 64 62 57 54 55 57 55 54 53 52 53 52 51 50 50 48 44 39 36 39 38 45 41 64 87 88 87 94 87 93 82 78 76 79
59 65 66 65 64 65 66 66 69 70 68 63 60 60 61 62 59 57 56 57 57 55 53 52 50 48 46 43 41 40 42 50 51 65 96 94 102 94 93 90 77 85 81
67 67 68 69 72 72 71 72 73 73 72 66 65 65 66 66 64 61 60 60 62 63 62 59 55 52 52 49 49 48 46 47 54 58 66 69 105 98 99 105 86 71 75
72 70 73 78 77 76 75 76 78 78 76 71 72 73 72 72 72 72 72 73 72 70 69 67 66 64 59 57 56 54 51 52 52 58 65 64 81 100 104 103 104 102 85
79 79 83 84 83 82 83 85 83 80 77 76 72 74 76 77 77 78 79 80 81 81 82 79 74 72 71 67 65 63 62 59 57 58 62 69 70 91 99 103 106 102 96
86 88 90 89 87 89 88 85 84 82 80 79 81 83 87 88 87 88 90 90 90 90 89 88 87 85 81 78 75 74 71 70 68 63 62 72 76 76 86 100 100 101 96
94 91 88 89 89 87 87 87 88 89 90 90 91 92 95 97 99 101 100 100 100 100 99 97 95 93 93 90 87 85 82 80 78 75 73 68 81 82 81 81 89 90 97
87 87 88 88 88 91 91 91 91 93 96 97 98 99 100 103 105 109 111 112 113 110 109 108 106 105 104 102 98 96 94 91 88 86 85 83 77 84 87 87 85 89 88
85 87 88 90 93 93 95 96 98 98 102 109 112 114 115 114 115 116 117 119 117 115 115 116 117 116 116 114 112 109 104 103 100 98 95 93 91 86 86 88 89 94 91
88 90 92 93 96 96 99 102 107 111 113 117 120 123 127 128 128 124 123 125 126 125 123 124 121 115 119 125 125 123 120 115 111 109 105 104 100 98 92 88 86 87 91
86 88 90 94 99 104 107 111 117 120 123 128 130 131 134 133 130 124 115 118 116 117 118 118 119 115 109 108 114 127 131 128 125 121 117 115 112 108 102 99 97 92 91
86 90 95 100 105 111 114 120 125 129 131 135 135 132 130 124 124 120 111 102 101 103 102 104 106 108 107 105 100 104 113 126 135 133 130 125 122 118 113 112 106 103 98
90 96 102 108 113 118 122 127 131 132 128 126 122 121 120 117 114 108 100 93 87 88 88 90 92 94 97 95 95 98 102 105 113 126 136 134 131 127 121 121 117 110 107
97 104 110 115 119 122 125 128 126 121 120 115 112 109 104 100 95 90 86 81 76 75 77 79 82 85 88 86 86 90 97 102 105 114 124 132 133 132 128 126 125 120 115
106 110 114 116 119 119 122 120 117 111 112 109 104 98 91 88 84 79 75 72 68 66 69 74 74 75 78 81 81 83 88 93 99 105 117 124 129 134 134 130 129 129 124
107 111 113 116 119 118 116 116 116 109 103 97 93 89 84 79 77 72 69 66 64 61 60 70 72 71 70 74 74 78 82 87 91 97 105 114 123 129 130 134 133 133 133
116 116 118 119 116 118 118 115 107 101 95 90 86 82 78 75 73 69 65 63 60 57 53 63 67 70 68 68 68 69 76 81 84 89 95 103 111 120 124 129 135 137 136
120 123 119 117 118 118 112 104 98 93 90 85 81 78 75 71 69 65 63 59 56 54 49 52 62 65 65 62 64 63 70 75 77 81 86 93 100 108 115 121 127 135 139
124 120 120 120 118 112 101 96 91 89 84 79 76 72 69 67 65 62 59 56 54 53 49 47 58 59 62 59 60 60 63 69 72 75 78 85 92 98 104 112 117 124 133
122 120 121 119 111 102 94 90 86 82 77 73 69 67 65 62 60 58 56 54 50 49 46 45 49 54 55 55 55 56 56 62 68 69 72 78 85 92 98 101 105 115 124
123 123 119 112 101 94 89 85 80 76 72 69 66 63 61 58 56 54 52 52 49 48 45 44 46 48 49 51 48 51 53 54 62 66 68 72 78 84 90 95 100 104 110
121 116 111 99 93 87 83 78 75 73 69 64 61 62 60 57 55 53 50 48 47 47 44 41 42 45 46 48 46 45 50 51 54 61 63 67 72 78 83 89 91 96 105
117 110 98 92 87 82 77 73 71 68 64 61 58 59 57 53 51 48 46 43 42 42 41 40 40 42 43 41 43 43 44 46 50 55 61 65 68 72 77 82 84 88 96
112 101 93 87 82 77 72 70 67 64 61 56 53 53 51 49 48 47 45 41 39 38 36 35 34 36 39 39 38 38 40 44 47 53 57 61 64 67 70 74 79 85 88
102 95 88 84 78 73 69 67 66 64 60 55 51 49 47 46 44 43 41 38 36 34 34 33 32 32 32 34 34 35 39 41 42 45 52 55 57 58 64 68 74 79 83
97 89 83 78 73 69 66 64 63 61 59 55 50 48 45 42 40 38 35 33 31 30 31 30 29 29 28 29 31 31 33 33 34 39 50 51 49 53 57 61 67 72 77

GFSMA_250_spd_003.txt.gz
Wind_Speed
56 54 55 56 55 63 62 67 65 65 68 67 67 65 63 62 63 58 56 54 56 54 52 49 47 46 44 43 40 35 35 40 40 82 94 98 97 84 85 84 76 78 71
50 44 62 56 70 68 69 73 75 76 79 80 79 76 73 72 71 68 62 62 60 58 57 55 52 49 48 47 47 43 39 41 48 50 67 101 99 94 93 94 77 82 77
70 73 70 74 74 75 80 80 83 85 87 89 86 81 77 76 72 70 68 68 67 64 62 62 62 61 60 56 53 52 49 45 50 55 58 76 93 97 98 100 93 78 88
69 76 78 73 74 84 87 88 92 95 95 91 86 82 80 78 78 76 74 73 71 71 71 71 69 69 68 67 65 61 58 55 53 57 61 67 72 88 96 104 100 95 85
76 77 81 85 89 90 93 97 100 98 89 87 85 85 85 84 82 81 80 80 81 80 80 80 81 80 78 76 75 72 67 66 62 61 63 66 73 75 90 99 106 107 96
80 85 88 91 96 98 100 100 96 92 89 89 89 88 88 87 86 86 87 87 87 89 90 89 90 89 88 88 85 82 78 73 73 70 69 73 74 82 79 91 110 112 101
85 90 95 95 95 96 95 93 92 92 93 93 92 91 91 92 93 93 94 94 95 97 98 100 101 100 99 97 95 94 90 84 80 80 77 77 81 79 81 83 109 113 110
84 86 88 89 89 90 91 92 93 91 90 90 92 93 95 99 102 107 108 110 111 113 113 114 114 113 110 108 108 105 103 100 94 88 87 84 84 84 86 88 103 107 110
79 82 84 85 88 90 91 91 92 95 98 101 104 108 110 111 114 117 122 123 124 126 127 128 127 127 127 125 123 121 118 113 109 104 98 96 91 90 88 91 99 103 101
78 80 83 85 87 89 89 93 99 104 109 113 116 118 120 120 122 120 121 124 127 126 122 119 118 120 118 115 115 119 126 130 125 120 114 107 104 99 99 96 96 97 100
77 79 81 82 85 90 96 102 108 112 112 116 117 119 122 123 125 124 118 117 118 121 119 116 113 109 108 109 106 103 106 119 130 128 125 122 115 111 107 107 102 97 98
72 74 80 86 93 100 104 110 114 114 115 117 119 118 117 118 119 119 118 114 113 115 111 109 108 104 100 99 99 100 98 104 112 124 129 129 128 121 118 115 112 106 103
77 83 87 92 100 104 111 113 114 118 116 115 111 111 113 115 114 107 99 93 91 93 91 89 90 90 89 88 88 88 90 100 105 112 122 131 133 131 126 123 119 118 113
84 90 94 100 105 112 116 115 115 114 108 107 107 106 103 100 95 91 85 79 77 77 79 78 79 79 78 79 80 78 82 87 97 107 118 126 132 136 135 130 128 124 122
89 95 102 106 111 117 117 112 111 112 108 105 102 98 92 89 86 82 76 71 67 65 71 72 72 71 68 68 74 71 75 79 87 95 107 118 128 135 139 137 131 131 129
95 102 106 111 116 116 113 114 115 109 103 99 93 90 88 83 79 75 71 67 63 57 59 68 70 67 64 63 66 66 67 73 77 85 94 105 117 129 135 140 138 134 134
100 107 111 114 116 115 117 116 109 102 96 91 87 85 81 77 74 70 66 63 60 55 52 66 65 67 63 59 59 63 63 66 70 76 83 94 105 117 130 136 137 138 138
107 110 115 116 116 118 117 109 102 95 89 85 82 80 76 72 69 67 64 61 57 53 48 57 60 62 62 59 55 57 61 62 67 71 77 84 93 106 117 128 133 135 139
111 115 116 116 118 116 108 100 94 88 84 81 77 74 71 68 66 64 61 58 54 50 46 47 56 56 54 56 55 53 56 59 64 68 73 77 83 92 104 114 125 133 134
117 118 117 117 115 108 99 92 87 82 79 76 72 69 66 64 63 62 60 57 53 50 47 43 50 51 51 50 51 51 48 52 58 64 68 73 76 82 90 101 111 122 132
116 118 117 116 107 100 92 86 82 78 75 72 69 67 64 61 60 57 55 53 50 49 45 42 45 47 48 48 47 48 45 47 55 61 62 67 73 76 81 89 99 109 120
117 115 113 107 100 93 86 81 78 74 72 69 67 65 61 59 56 53 49 47 47 47 45 41 40 41 43 46 44 42 40 45 53 57 59 61 68 74 76 81 87 98 109
115 113 107 101 93 87 81 76 73 70 68 65 63 61 58 55 53 51 48 46 45 45 43 41 38 37 38 40 41 37 36 40 45 51 55 58 62 69 74 76 80 86 98
111 109 103 96 90 82 77 72 69 67 64 61 59 56 54 51 48 48 46 43 41 39 38 37 37 34 34 35 37 35 34 36 42 45 49 54 59 64 70 73 77 81 87
109 106 98 92 85 78 73 70 68 66 62 60 57 52 48 46 44 43 41 39 36 35 34 31 31 30 29 31 32 33 34 36 37 39 46 51 56 60 65 70 74 77 81
106 101 95 87 80 73 71 69 66 63 60 58 53 48 44 42 40 39 37 36 34 33 32 29 28 28 27 27 28 30 31 32 33 36 44 49 52 56 60 62 66 71 75

GFSMA_250_spd_006.txt.gz
Wind_Speed
83 81 72 70 63 58 59 65 63 64 63 59 66 69 66 70 73 75 72 70 65 61 58 56 56 58 57 54 49 45 41 39 34 35 43 63 85 86 81 76 81 72 72
72 71 73 64 62 66 67 69 70 72 75 73 80 81 83 84 85 88 83 74 71 66 60 55 55 58 60 59 54 50 46 43 41 39 45 54 75 92 86 86 82 80 78
65 63 64 65 68 69 72 76 77 74 72 88 88 90 92 93 92 85 81 76 71 69 68 65 62 60 61 61 59 56 55 52 47 46 47 53 56 91 95 90 90 86 87
59 61 66 70 72 73 72 74 81 87 90 92 95 95 93 91 86 83 80 79 75 74 72 71 70 68 66 65 65 63 61 60 58 53 50 54 56 84 89 96 97 89 83
62 66 68 75 75 80 86 88 89 91 91 90 90 90 90 88 86 85 81 79 78 77 78 74 77 77 75 74 74 74 72 70 67 64 60 57 58 66 86 95 106 98 96
68 71 74 77 82 86 88 88 87 87 87 88 89 89 88 84 80 80 80 83 84 83 85 85 83 84 83 84 84 83 81 80 77 75 72 67 64 68 73 87 99 112 105
69 71 72 75 78 80 83 84 86 87 88 85 85 83 82 83 85 88 91 95 97 97 97 98 97 95 95 94 95 93 95 91 88 86 84 80 75 70 75 92 105 115 111
71 74 77 79 81 83 83 85 85 85 85 80 82 86 88 94 98 101 103 108 110 109 112 113 112 111 109 108 106 106 106 102 101 98 94 91 88 82 78 83 93 104 109
74 76 79 81 82 83 85 84 81 81 86 91 90 95 101 105 106 111 115 117 121 121 122 122 122 121 122 124 124 123 120 117 114 110 107 102 100 96 91 88 92 98 105
77 79 80 81 82 83 81 79 84 90 92 98 101 108 109 112 114 116 119 119 119 121 122 120 118 119 118 115 112 114 119 127 131 126 119 116 112 108 103 98 97 99 102
73 71 71 72 74 76 82 88 91 94 100 104 110 114 118 120 122 122 113 114 116 116 116 115 114 113 113 109 107 107 104 107 117 125 133 130 124 118 115 109 105 103 103
64 66 68 73 78 84 88 93 98 102 106 112 116 119 121 122 119 116 114 112 114 115 110 107 106 106 103 99 97 98 99 101 104 109 120 133 135 127 124 119 114 110 108
68 72 77 81 87 91 95 97 103 107 113 115 118 117 114 113 110 108 106 102 102 103 98 94 91 90 90 90 88 86 86 90 96 102 107 116 128 131 127 126 123 119 117
72 76 81 87 91 95 98 103 109 111 113 114 113 111 108 105 102 98 94 89 87 86 85 82 81 77 77 77 80 79 79 80 85 92 102 108 114 123 124 128 128 129 127
76 82 87 93 97 101 107 111 112 114 112 111 106 103 101 97 93 89 85 80 74 74 75 77 71 69 67 67 69 71 73 73 77 83 91 100 110 116 121 124 127 131 134
82 87 92 97 103 107 110 111 112 110 110 104 102 99 95 90 87 82 77 73 69 64 64 73 69 64 62 60 60 62 68 69 71 76 81 89 98 110 117 123 126 131 134
90 94 99 102 107 109 111 109 108 108 106 102 95 91 87 82 78 74 71 68 65 62 57 71 62 61 61 57 56 57 61 65 66 71 74 79 86 96 109 121 125 128 135
97 100 102 107 109 108 108 109 109 104 98 92 87 83 80 75 71 69 67 64 61 58 54 61 61 58 57 54 54 55 57 60 63 67 70 73 78 86 96 109 122 128 131
102 103 107 109 108 108 109 108 100 94 89 85 80 77 73 70 69 66 63 60 58 56 53 55 57 55 55 53 53 54 52 55 61 62 67 70 74 78 86 97 109 121 129
105 109 110 108 108 108 107 100 93 87 83 79 75 71 68 66 64 63 61 58 57 55 51 51 51 51 49 49 52 53 52 50 53 60 63 66 71 75 78 86 97 107 122
111 111 108 107 108 108 99 94 87 82 78 75 71 68 66 63 61 60 57 56 54 52 50 48 46 46 44 44 46 49 51 48 46 54 62 64 67 72 76 80 89 98 109
112 108 107 108 109 101 95 89 82 79 76 72 69 66 62 60 59 58 54 50 48 48 47 46 44 43 41 41 42 43 45 44 44 47 55 60 63 68 73 77 82 90 101
107 106 109 109 104 97 90 84 79 76 72 70 66 62 59 57 56 54 51 48 46 45 44 43 41 39 39 38 38 39 41 42 43 44 54 57 59 64 70 74 78 83 93
105 106 108 105 98 94 86 81 77 73 70 66 62 58 55 54 52 50 48 45 42 42 40 39 37 35 33 33 33 34 36 37 40 45 50 55 55 57 65 70 75 79 84
106 107 106 99 95 89 84 79 74 70 66 62 58 55 52 51 48 46 44 41 40 40 38 36 32 31 28 27 28 30 32 34 37 43 48 51 53 53 58 65 70 75 77
106 105 99 96 92 85 80 75 70 67 63 58 54 52 51 48 45 42 40 39 38 37 36 32 30 27 25 24 25 26 28 31 34 40 45 46 48 49 53 60 67 70 75

GFSMA_250_spd_009.txt.gz
Wind_Speed
80 82 82 83 84 82 79 71 67 64 62 62 63 61 58 65 63 73 64 68 67 57 56 58 55 55 53 54 52 51 53 53 50 46 44 41 38 38 63 66 68 71 64
86 82 85 82 78 72 73 68 66 67 65 66 67 67 68 77 82 84 84 71 75 71 68 68 66 63 56 53 54 54 52 55 56 52 49 46 45 42 58 72 73 71 70
80 82 78 71 70 71 70 70 69 72 69 80 79 78 82 79 82 81 82 80 76 76 74 72 69 67 64 59 58 59 58 56 57 57 55 50 51 48 59 73 80 80 72
80 74 73 71 69 69 71 70 72 77 83 83 85 88 84 83 80 79 79 80 77 79 75 71 70 70 67 64 63 63 64 64 62 61 58 56 54 55 51 73 86 88 81
68 68 69 71 72 71 71 72 73 73 74 78 77 78 81 81 82 82 82 81 79 76 75 73 67 69 73 68 68 69 68 68 70 68 66 63 60 60 55 59 90 91 88
66 67 66 68 69 70 71 73 74 77 79 78 80 81 85 85 85 84 80 80 79 81 79 80 82 84 82 82 82 82 77 75 75 74 75 74 69 66 66 64 74 96 96
65 67 68 70 74 79 79 81 82 85 86 87 84 83 86 87 84 82 82 84 88 90 90 91 92 94 94 96 95 94 95 89 84 82 84 83 81 77 73 73 72 76 97
71 74 77 80 82 84 86 87 87 85 86 84 84 80 78 83 89 90 92 94 99 100 103 105 109 108 109 106 109 109 107 105 102 98 94 91 92 90 83 82 78 76 83
78 81 83 85 87 89 88 86 82 79 78 78 83 85 86 89 92 99 104 108 112 115 116 118 120 119 119 118 117 116 113 114 118 117 110 105 101 100 98 92 88 85 87
71 73 74 74 74 73 73 73 76 78 83 87 89 95 97 100 103 104 111 116 121 126 127 127 124 121 120 117 117 117 114 112 115 122 124 121 115 109 106 105 99 96 90
66 66 67 68 70 71 73 77 81 87 88 93 99 102 107 112 115 117 116 122 125 128 128 126 123 121 118 116 116 115 110 105 107 108 114 125 122 122 115 109 107 105 103
67 68 68 69 72 75 79 82 86 90 94 101 107 112 116 120 121 121 120 116 115 118 119 119 116 111 108 103 101 99 97 98 102 102 105 111 119 122 122 120 113 109 109
66 67 69 73 77 80 83 88 93 100 106 111 115 116 117 116 114 111 111 109 106 108 107 104 99 94 90 88 88 87 84 84 86 89 97 103 109 116 119 122 123 121 113
69 71 75 80 83 87 91 98 104 109 111 112 112 110 106 107 107 104 102 99 97 97 96 94 91 83 78 78 79 80 78 77 76 80 88 93 98 107 114 118 122 123 123
74 77 81 84 90 95 100 106 109 108 109 109 106 105 104 100 100 99 96 93 87 84 85 86 79 74 70 69 70 74 73 74 72 77 80 85 90 97 107 113 118 121 124
81 84 89 93 97 101 106 108 109 111 108 104 104 103 98 97 96 94 90 84 79 71 67 77 75 70 67 61 63 67 67 68 69 70 76 79 83 89 97 107 117 119 123
88 92 97 102 106 108 111 110 110 108 104 104 105 98 96 93 90 86 81 75 70 67 61 71 71 66 63 60 59 59 62 64 65 67 71 74 78 81 88 98 109 118 122
96 101 105 108 109 113 112 110 107 106 107 106 98 95 91 86 82 77 72 69 67 66 60 59 69 62 59 58 58 56 57 60 61 64 69 70 73 76 81 89 98 110 120
103 106 109 111 110 110 108 107 106 107 104 97 95 89 84 79 75 71 69 66 64 62 60 57 61 58 57 54 54 54 55 55 58 59 64 66 68 71 78 82 88 99 111
108 112 113 110 108 107 109 107 107 102 97 94 89 82 76 73 69 68 66 63 60 58 56 54 52 53 50 49 50 49 51 51 53 54 58 62 66 67 73 77 82 89 100
111 113 109 108 108 107 108 106 100 95 93 86 80 74 70 68 67 65 62 59 57 55 52 50 49 47 45 45 46 47 48 48 50 49 52 60 64 63 70 74 76 83 93
110 105 106 109 109 110 106 99 95 92 86 79 73 70 67 66 65 61 59 56 52 50 49 47 44 43 41 40 41 44 45 48 47 47 47 56 60 61 65 70 74 79 85
101 105 109 110 109 107 102 95 91 86 79 73 70 67 65 64 61 56 54 52 50 48 47 45 43 40 40 38 39 38 39 43 45 44 45 52 57 61 63 68 73 75 80
104 107 107 106 103 98 93 89 85 80 73 70 68 66 63 61 57 53 51 50 46 44 43 42 41 38 37 35 35 35 37 38 40 43 45 47 53 58 57 64 69 73 77
108 106 101 98 98 92 91 86 81 76 71 68 65 63 60 56 53 50 49 46 43 42 40 40 37 35 33 30 30 31 32 34 37 40 43 43 49 56 56 61 65 70 75
103 96 98 101 98 93 90 83 78 73 69 66 63 60 58 52 49 48 46 43 40 38 38 36 34 32 30 27 26 27 28 29 32 36 40 41 44 52 55 57 60 66 70

GFSMA_250_spd_012.txt.gz
Wind_Speed
88 88 87 93 98 99 98 95 95 91 86 76 71 67 71 69 67 62 62 58 61 62 73 71 63 60 55 56 59 56 56 53 51 48 47 49 50 44 40 38 54 61 68
93 95 97 96 95 91 94 94 91 85 76 72 73 67 66 66 71 68 79 75 78 71 67 66 63 62 64 61 60 60 59 58 55 53 51 50 52 51 45 44 57 62 61
92 95 96 93 91 90 90 86 79 75 73 73 69 70 69 71 73 72 73 75 73 72 71 70 69 68 68 64 64 63 62 60 58 56 54 54 54 55 53 49 51 69 66
92 88 88 88 86 82 77 77 75 74 72 72 73 72 69 74 74 75 75 76 77 74 73 73 71 69 70 70 65 65 66 62 59 62 60 59 59 57 58 55 53 72 71
81 80 77 73 72 72 72 72 74 76 77 77 75 76 76 80 83 80 79 78 79 79 77 75 74 74 72 69 70 70 67 63 65 63 62 65 65 63 62 60 61 63 78
69 66 65 69 72 74 74 76 78 81 83 85 82 82 81 86 87 84 79 78 77 79 81 78 76 74 74 74 76 78 79 78 73 70 68 72 71 69 67 66 66 64 79
63 66 69 71 73 75 77 78 78 79 81 83 81 80 77 78 83 83 84 83 83 84 86 88 88 88 87 89 89 89 91 91 89 86 82 78 77 77 76 73 74 74 71
64 66 67 68 70 71 72 72 71 69 71 73 72 72 71 73 76 80 86 91 94 98 100 101 100 100 100 100 103 105 104 101 100 100 97 94 89 85 83 82 82 81 80
64 66 67 67 68 69 70 70 68 68 67 71 75 78 81 83 85 89 94 99 103 108 113 115 114 113 113 113 116 113 112 112 111 110 110 107 102 98 94 90 90 91 86
62 64 65 67 68 69 70 71 72 74 77 78 83 87 90 93 94 95 102 107 113 118 120 123 124 123 119 114 114 113 110 106 110 114 116 117 114 109 106 103 98 99 99
63 63 65 68 71 74 74 76 77 79 83 88 90 94 98 103 107 111 110 115 116 118 119 116 115 114 112 109 107 105 103 102 103 104 107 105 108 113 114 114 110 104 105
66 67 70 72 74 78 80 81 84 87 91 94 100 103 107 110 112 113 111 107 104 104 105 105 108 110 109 107 105 102 100 98 97 96 97 98 99 105 111 116 114 114 109
71 73 75 76 79 83 86 89 93 96 100 103 107 108 108 107 104 101 96 92 92 98 101 104 104 101 96 91 88 88 88 88 88 87 88 90 94 95 101 112 116 116 119
77 78 80 81 85 90 94 98 102 106 109 108 105 102 97 97 95 95 98 94 90 91 93 95 94 87 81 79 78 77 77 78 77 75 79 82 88 90 95 102 111 117 120
82 83 84 87 90 94 100 105 108 109 106 103 100 98 99 98 98 95 94 91 87 85 87 89 85 78 74 71 70 70 72 74 73 71 71 74 80 83 87 94 103 112 119
84 85 89 94 99 104 107 109 109 102 102 104 105 102 102 96 92 91 89 89 86 80 75 81 81 74 70 66 67 66 68 70 71 68 68 70 72 76 80 87 94 106 115
86 90 95 100 106 110 110 107 104 105 106 109 108 106 98 93 90 88 86 84 79 75 69 70 76 71 66 61 63 62 62 63 66 67 65 66 69 71 74 80 87 97 108
92 97 101 106 111 109 103 104 104 107 110 111 109 103 97 92 90 86 80 76 72 69 66 62 69 66 61 57 57 58 58 57 58 62 63 66 67 69 72 76 80 89 98
97 102 106 110 110 105 102 106 108 111 110 107 105 98 92 87 85 79 72 69 66 65 62 59 60 60 58 55 54 52 52 54 55 56 58 65 66 66 71 73 75 81 92
103 108 109 104 103 104 104 105 106 107 106 104 95 90 85 81 78 72 69 65 63 61 59 57 54 56 54 51 48 49 48 49 51 51 54 60 63 65 66 66 72 77 84
108 109 103 103 105 107 106 105 100 99 99 89 85 82 80 74 72 67 65 61 59 59 57 55 53 52 50 47 44 44 44 44 46 48 50 53 58 62 66 62 69 72 77
110 104 102 104 104 106 110 101 94 92 87 82 81 79 74 68 66 63 62 59 57 55 54 49 49 47 45 43 41 39 39 41 44 41 47 48 51 59 62 59 63 70 75
108 105 107 109 110 110 106 98 92 88 86 86 80 76 71 65 63 60 57 57 56 53 52 51 48 41 40 39 38 38 38 39 40 38 44 46 48 54 60 57 62 68 73
106 107 110 111 108 105 97 95 92 90 88 84 79 73 67 62 62 58 56 54 53 51 50 46 42 41 36 35 36 36 37 36 38 37 40 43 47 50 52 56 61 64 68
107 111 111 109 102 100 100 96 95 90 83 81 75 69 65 60 58 56 54 54 52 50 47 43 40 37 35 34 34 33 34 34 34 35 38 40 41 47 49 53 61 59 64
112 109 106 106 104 101 99 93 86 83 83 78 71 65 65 59 55 52 51 51 50 47 44 39 36 35 34 32 31 32 30 31 31 32 35 37 38 44 48 49 55 55 59

GFSMA_250_spd_015.txt.gz
Wind_Speed
83 81 82 85 90 91 93 97 99 101 99 99 101 99 100 92 88 80 74 73 69 66 61 58 67 66 64 68 65 64 64 61 66 69 66 61 57 57 54 51 48 44 42
91 94 95 98 99 101 102 99 94 95 99 99 98 92 82 79 77 77 73 70 71 70 67 66 64 65 66 65 66 64 63 66 65 69 69 67 65 61 60 57 52 49 44
101 97 99 96 95 96 96 99 98 100 100 96 88 84 80 80 82 81 79 77 75 74 74 72 71 71 72 70 69 69 68 67 67 67 66 72 70 67 63 63 59 54 49
92 93 97 96 94 92 91 92 93 92 86 84 83 83 80 80 82 82 81 83 83 81 79 78 76 75 77 78 78 78 75 70 71 71 73 71 72 74 72 68 65 60 58
86 89 89 89 88 87 85 82 79 79 80 81 81 81 78 76 76 75 75 76 74 73 73 74 75 74 71 72 72 74 78 80 77 73 73 74 75 78 77 75 72 67 64
75 75 78 77 77 76 76 76 76 76 76 75 77 78 76 73 73 72 73 75 77 78 79 78 78 79 77 78 77 77 77 79 78 79 79 79 79 78 78 76 77 76 72
70 68 68 69 71 72 73 74 73 74 76 78 77 75 76 76 75 76 78 81 82 85 87 88 89 89 90 89 88 87 88 88 86 87 83 82 82 82 81 80 80 80 78
57 56 60 63 66 69 71 71 72 75 77 77 77 75 75 77 79 81 85 89 92 95 98 101 102 102 100 99 99 99 100 99 97 94 95 92 89 86 84 81 84 85 84
56 60 63 65 67 68 70 73 75 76 76 77 78 79 80 80 83 89 93 96 100 104 108 111 114 114 113 111 109 108 107 105 106 106 105 102 100 99 96 92 87 85 91
57 62 66 69 72 74 76 77 79 80 80 81 83 86 89 91 91 95 99 103 106 109 113 118 117 114 117 114 108 103 101 103 105 107 110 110 107 105 104 104 101 95 89
61 65 69 73 78 80 81 81 82 83 86 89 92 95 98 103 104 103 101 103 102 103 105 104 104 102 101 103 101 97 94 94 95 98 100 101 102 105 105 105 107 108 102
68 73 77 80 83 81 81 84 85 90 95 97 100 103 105 104 100 99 98 95 90 96 101 103 104 100 99 100 99 98 97 97 96 96 96 96 96 96 101 108 107 108 110
75 79 82 83 81 82 85 90 94 97 101 105 109 109 105 103 103 104 102 99 94 89 89 95 97 94 92 91 90 90 88 86 86 86 87 87 88 89 94 103 107 108 110
80 84 85 84 84 84 89 95 100 104 109 111 108 105 103 104 105 106 102 95 80 82 86 88 88 85 82 81 80 77 78 78 77 78 79 81 84 86 88 92 102 110 109
85 86 85 86 86 89 94 99 104 109 111 107 104 104 102 104 108 106 102 92 86 84 85 86 82 78 74 70 68 68 68 68 68 69 70 71 76 81 85 87 94 102 109
88 87 87 88 91 96 101 106 109 109 105 105 106 108 106 102 103 103 99 94 92 88 81 81 79 74 69 65 63 62 65 65 65 65 65 64 66 71 77 82 89 96 103
88 89 90 92 96 102 107 111 110 105 106 106 108 109 107 101 98 96 95 91 89 81 75 73 71 70 66 63 61 61 62 62 62 63 63 63 65 67 68 74 81 89 95
90 90 91 96 101 107 110 108 103 103 104 105 105 101 97 97 93 87 84 80 78 72 68 65 67 65 62 59 57 58 58 56 57 58 59 61 64 65 68 70 75 81 90
92 94 98 103 107 109 105 102 101 104 105 106 102 98 94 91 87 83 77 74 69 66 64 62 61 60 59 55 54 52 52 51 53 53 54 57 61 64 66 69 72 77 82
95 98 104 108 106 102 102 104 103 104 100 102 98 93 88 84 80 78 74 67 65 63 62 59 56 55 53 50 47 50 49 48 48 49 50 52 56 61 62 64 70 75 77
100 106 110 105 103 102 104 107 105 101 99 95 93 88 84 79 77 74 70 65 62 60 58 57 53 51 49 49 48 46 47 46 44 46 49 48 53 55 58 64 67 69 72
107 109 107 107 105 105 105 108 108 101 98 95 89 85 84 78 73 69 67 64 60 57 55 54 50 48 46 47 45 42 42 43 42 40 47 46 49 50 55 59 64 65 68
110 109 108 106 105 106 110 109 104 98 97 94 89 87 83 76 71 68 64 61 58 55 53 52 50 47 46 44 40 39 40 38 38 37 44 44 47 47 50 56 62 62 66
111 111 109 109 108 106 104 100 97 95 92 89 86 81 77 73 69 66 62 59 54 52 50 47 46 45 44 42 40 37 35 36 37 35 40 39 44 46 47 53 57 55 59
114 111 110 109 107 104 99 96 94 92 91 87 81 77 73 69 65 62 60 57 53 49 46 44 44 44 42 39 38 34 35 35 35 36 38 36 39 42 43 47 50 50 55
113 110 111 110 106 101 97 96 93 89 85 80 76 72 69 66 62 60 57 54 51 47 44 42 42 41 38 36 36 34 34 34 33 34 35 35 35 37 37 41 47 50 56

GFSMA_250_spd_018.txt.gz
Wind_Speed
76 79 83 87 87 90 92 99 103 106 103 94 92 91 91 89 89 88 86 84 85 83 81 76 73 70 70 69 68 66 70 80 76 76 74 72 73 71 71 68 63 61 61
83 86 91 94 96 98 99 90 89 91 96 98 98 98 94 94 94 92 89 85 85 83 84 86 84 81 77 76 76 74 72 68 79 80 75 76 73 74 76 72 70 64 64
91 93 94 94 95 94 97 93 98 92 91 85 87 89 91 91 88 90 92 89 85 79 77 77 76 79 83 85 83 81 80 77 75 76 79 77 75 78 76 76 76 69 67
91 94 92 87 86 87 87 88 87 83 85 86 87 86 83 84 84 83 81 80 79 79 76 74 74 73 72 74 80 84 90 88 82 82 79 75 74 74 79 76 75 77 72
79 78 81 83 80 79 76 78 79 80 78 77 77 78 78 78 80 81 81 81 80 80 80 78 77 77 77 76 77 78 78 79 88 90 88 85 83 81 80 80 80 81 77
81 82 77 76 75 74 74 73 73 74 75 76 78 79 80 80 81 82 82 83 84 83 83 83 83 84 85 84 84 84 84 83 81 84 88 84 84 87 86 85 86 82 84
77 74 72 69 68 69 69 70 71 74 77 79 83 85 85 83 82 81 82 85 89 92 93 93 93 93 92 92 94 94 93 93 93 92 89 88 84 82 85 88 86 90 88
68 66 64 65 65 67 70 73 75 79 82 84 85 82 80 82 85 89 92 94 95 99 102 104 105 106 106 104 103 102 102 103 102 102 102 99 93 91 88 86 90 89 93
60 61 63 66 67 69 73 76 80 84 86 85 84 83 83 85 88 94 96 101 106 107 106 106 107 109 109 108 106 106 107 109 110 112 112 109 105 100 94 92 91 90 93
62 65 67 68 70 73 76 81 85 87 87 86 86 86 91 94 98 101 104 107 104 101 100 104 103 104 102 98 96 97 96 96 100 105 113 117 115 110 107 100 97 97 93
69 70 71 72 73 77 82 87 89 88 88 89 90 94 98 101 106 108 110 106 104 103 105 106 105 102 98 92 92 94 95 97 97 96 94 96 100 105 110 112 105 101 100
64 64 68 71 76 81 86 89 88 88 88 90 94 98 103 108 110 111 107 106 105 106 105 106 102 99 93 87 86 89 90 91 91 89 89 90 93 94 96 103 111 106 106
63 66 72 77 80 83 88 89 89 89 91 95 100 106 110 110 107 105 105 107 106 106 103 102 100 95 85 77 73 74 77 79 80 82 81 80 82 87 92 93 99 108 106
67 72 78 81 84 88 92 89 90 92 95 103 108 109 109 105 106 106 107 112 111 106 99 99 98 93 77 74 71 67 66 67 69 72 74 76 78 77 81 89 95 97 103
72 77 80 84 88 92 90 91 92 97 103 106 106 104 104 103 107 108 107 105 104 97 95 94 91 88 79 76 70 68 64 62 61 62 65 69 72 76 78 82 87 94 99
80 83 85 90 92 92 94 95 99 105 106 103 100 98 101 103 105 102 99 96 95 92 86 81 79 79 77 71 69 63 59 59 57 57 59 62 65 69 74 79 83 87 93
84 87 90 94 92 95 98 102 106 106 103 102 101 102 103 103 101 97 94 94 90 86 80 77 76 73 72 67 63 59 57 56 56 57 58 59 60 63 69 74 78 83 90
89 92 93 92 93 98 103 104 103 102 101 100 101 102 103 103 102 100 95 90 85 79 72 71 74 70 65 60 60 57 55 54 54 56 57 58 60 62 63 68 73 78 84
92 91 91 93 97 102 104 105 103 101 101 102 103 104 103 103 101 99 94 89 83 77 71 67 67 63 60 57 57 53 52 51 52 53 54 56 58 61 61 62 68 74 80
92 91 92 97 103 107 108 106 103 103 103 103 103 100 99 99 97 92 88 82 78 73 70 65 61 59 57 55 54 52 50 49 49 47 50 51 53 57 59 60 63 68 74
92 92 97 102 106 109 111 109 107 104 104 102 99 98 97 95 90 84 80 75 72 69 66 62 58 56 54 52 52 48 47 48 44 46 49 45 49 52 54 57 60 65 70
95 99 103 107 111 113 111 110 110 106 99 97 96 94 94 91 86 82 79 73 68 66 64 60 54 53 50 49 48 46 46 44 43 40 45 40 45 46 48 52 56 60 64
100 104 109 113 117 115 112 110 110 107 104 97 94 92 89 85 82 78 74 70 66 62 60 58 55 50 48 46 45 43 42 39 39 37 40 36 40 42 45 48 52 56 61
105 109 114 117 117 113 112 111 107 102 97 93 90 86 82 80 76 73 69 65 61 58 53 51 51 50 46 44 43 42 42 35 33 37 34 32 38 40 42 45 49 53 58
110 114 117 119 116 113 112 109 103 98 95 90 86 81 78 74 71 68 65 61 58 54 51 49 47 46 43 41 41 40 37 35 31 34 33 32 35 36 39 41 46 50 54
116 118 120 120 117 115 112 107 101 97 91 84 79 76 73 69 66 64 62 58 55 51 47 45 44 42 40 38 38 37 34 33 33 31 31 31 32 33 35 36 44 46 48

GFSMA_250_spd_021.txt.gz
Wind_Speed
70 72 78 83 83 83 86 90 91 97 99 97 98 89 88 89 87 83 86 84 81 82 81 77 81 80 78 76 74 73 72 74 77 74 70 66 70 70 70 74 75 75 69
70 81 79 86 91 93 96 89 92 86 88 86 89 89 87 80 77 76 78 77 78 77 76 75 75 75 74 74 74 73 72 72 73 77 77 74 73 73 74 74 77 76 75
78 80 85 82 79 86 93 89 83 87 89 94 89 84 74 76 73 78 78 79 80 80 80 78 76 75 75 75 76 76 73 72 71 72 78 79 79 76 76 77 77 77 76
87 91 91 88 89 83 80 83 81 83 87 83 82 78 74 77 78 82 83 85 86 86 81 78 75 74 73 74 76 77 79 78 78 76 72 76 82 83 82 79 79 79 77
81 78 74 78 79 79 75 79 81 78 78 79 76 78 80 82 85 87 90 90 89 85 80 77 77 77 78 81 82 83 82 84 86 86 84 80 75 81 86 87 82 81 80
69 69 72 72 76 76 75 74 75 77 76 78 81 83 84 87 90 93 93 91 89 87 85 85 86 88 89 89 88 88 90 92 92 93 95 93 87 81 80 86 87 85 81
68 69 71 71 71 71 74 75 76 76 77 82 85 87 91 93 96 97 95 93 91 90 91 93 95 96 96 97 96 95 94 97 101 102 103 104 101 92 86 83 85 87 90
64 64 63 66 70 73 75 76 79 83 85 87 88 90 93 97 98 96 94 93 94 96 99 101 103 103 102 99 97 94 91 92 95 101 107 110 111 106 95 87 86 87 84
56 59 64 69 72 75 78 81 83 80 78 83 89 93 96 98 95 94 95 97 102 106 111 109 107 104 103 101 98 92 88 88 90 92 95 101 108 111 110 99 90 90 90
61 64 68 71 74 77 79 75 74 78 83 87 91 94 96 93 93 94 100 104 108 109 109 107 104 104 105 106 105 97 92 90 90 90 91 90 93 97 105 114 106 95 95
62 62 65 67 68 69 71 75 79 83 87 90 92 90 90 93 97 103 107 109 108 108 108 110 105 104 104 105 100 96 89 87 85 83 80 80 84 92 94 103 112 107 101
62 64 64 64 66 70 75 79 83 87 88 91 88 88 93 98 103 105 105 104 105 106 108 110 111 108 106 103 98 92 87 82 78 74 71 75 78 86 92 90 93 97 101
65 65 64 68 72 75 78 83 86 87 86 85 88 94 99 102 104 105 104 103 104 105 108 110 112 106 101 97 93 88 81 75 72 66 64 65 70 78 82 85 91 90 90
68 65 68 73 76 78 82 87 85 83 85 87 93 98 103 104 104 104 102 104 104 105 107 106 105 100 95 92 87 82 76 73 67 65 60 59 64 70 78 78 79 87 91
65 68 74 78 81 83 86 91 87 85 88 93 97 102 105 106 104 103 105 106 106 103 101 101 99 96 92 87 82 77 73 70 66 60 55 53 56 63 69 76 80 81 84
70 76 78 80 84 86 91 92 88 90 94 98 102 106 106 106 106 105 107 105 104 101 95 94 91 89 85 80 77 73 69 65 60 56 54 52 53 58 64 71 78 82 83
76 79 84 85 88 91 95 91 91 95 98 102 108 110 109 108 107 105 102 100 99 96 93 89 87 81 78 74 71 68 64 59 56 54 54 53 53 56 61 67 72 78 81
84 85 88 90 91 96 94 93 96 99 103 107 111 111 109 108 106 102 98 94 93 91 88 84 80 75 69 65 64 64 60 55 53 52 52 52 53 54 58 62 66 71 75
89 91 93 92 96 96 94 98 101 104 107 108 109 109 109 108 104 99 96 94 91 88 83 78 74 69 67 63 62 59 57 52 51 49 50 51 52 52 55 58 61 66 71
91 94 95 96 98 95 98 101 105 110 111 111 109 109 108 104 99 97 93 89 85 81 78 74 71 68 64 62 58 56 54 51 48 46 50 49 50 50 53 56 57 60 65
93 94 96 100 98 99 103 104 108 111 113 111 111 108 104 103 98 93 87 81 77 76 74 71 67 64 60 57 55 52 52 49 42 46 48 45 51 50 49 52 53 57 61
95 96 100 98 99 104 106 109 113 114 114 113 109 107 104 98 90 85 80 76 74 72 70 66 64 59 56 53 52 50 47 45 42 44 45 39 50 47 48 48 53 55 58
98 102 101 100 104 106 110 113 115 118 115 112 110 105 98 92 85 81 77 73 71 68 65 64 61 56 53 50 48 44 43 42 41 42 44 37 46 45 44 43 47 51 56
103 102 102 106 107 110 113 116 118 117 117 114 108 102 94 87 82 79 76 71 67 64 62 58 56 54 51 49 45 42 40 37 38 41 42 36 40 40 40 40 43 47 51
102 100 105 108 110 113 116 118 118 118 115 111 105 95 88 84 80 76 71 68 64 61 58 55 53 51 49 45 43 39 38 37 36 39 38 32 35 33 36 38 40 43 48
101 105 108 110 113 116 119 121 119 115 110 106 97 88 83 80 77 72 69 64 61 57 55 51 48 47 46 42 39 38 36 36 37 32 32 28 30 29 34 36 38 41 44

GFSMA_250_spd_024.txt.gz
Wind_Speed
59 59 65 70 71 75 77 84 87 87 93 94 94 83 78 78 78 82 77 68 67 69 69 74 75 80 81 81 80 77 74 71 67 66 64 63 63 65 69 71 68 64 68
73 67 68 73 75 80 84 88 87 89 94 90 79 76 79 82 76 74 76 75 72 74 76 76 79 82 84 84 83 79 75 72 69 67 65 66 66 66 64 68 73 71 68
75 78 76 79 83 89 92 94 90 85 79 75 77 75 76 76 76 77 76 78 81 80 82 83 84 85 85 82 82 80 78 75 74 72 70 67 67 69 68 67 68 74 76
81 81 84 85 89 88 88 83 78 78 77 75 75 75 77 78 79 80 82 84 87 88 88 89 90 91 89 85 81 80 80 81 82 82 81 80 77 75 74 73 70 72 76
76 79 71 71 69 71 74 76 78 77 74 74 76 78 80 81 84 88 89 90 89 89 90 94 95 94 91 88 85 83 82 84 87 89 89 91 90 86 84 81 80 77 77
71 71 69 68 70 74 75 73 71 72 76 78 79 80 83 85 85 86 86 88 92 95 97 99 97 96 94 91 89 88 90 92 94 95 95 96 96 97 97 94 87 85 83
71 65 65 68 69 68 67 67 71 75 78 80 82 82 84 84 85 86 89 92 94 96 98 98 100 99 99 97 97 96 94 93 93 92 93 94 94 97 99 99 102 95 88
60 61 60 60 61 63 67 70 71 75 77 76 77 78 79 84 87 90 92 94 94 94 96 100 104 106 105 104 102 99 95 91 89 88 88 87 88 89 91 92 96 101 100
51 51 53 57 61 63 65 69 73 74 73 77 80 81 83 87 90 91 90 90 91 95 102 108 110 111 110 109 106 102 97 91 85 85 85 87 89 89 90 91 94 96 100
48 51 56 61 63 67 71 72 72 72 77 81 83 85 88 93 93 89 89 92 95 101 106 110 111 111 111 109 108 105 101 97 91 88 82 82 85 85 83 89 96 99 99
51 57 61 65 67 70 71 73 71 76 82 85 85 86 89 94 92 89 90 95 101 106 110 110 110 109 108 107 106 104 100 96 90 82 79 79 80 81 78 81 92 99 98
57 61 65 68 70 70 69 71 76 79 82 83 86 89 94 94 91 93 97 102 105 109 110 109 107 107 106 107 105 101 93 87 82 77 77 77 78 76 72 72 79 89 93
59 62 67 69 68 69 72 75 80 83 85 87 89 95 95 92 94 99 102 104 105 105 107 110 108 107 104 103 101 95 88 80 76 73 71 72 72 70 68 67 71 80 87
62 67 69 69 70 73 77 82 84 85 86 89 94 96 94 96 100 103 104 106 105 108 111 112 109 107 102 99 95 92 88 82 74 69 65 63 64 63 63 63 67 73 81
66 71 70 71 73 78 81 84 86 89 91 94 98 95 95 102 104 104 107 110 112 111 110 109 103 100 96 93 92 89 84 76 68 62 60 60 59 58 59 60 62 66 75
70 72 72 73 77 82 85 86 89 93 95 99 97 97 103 103 105 107 110 112 111 109 103 101 97 93 89 85 83 79 75 70 65 59 58 57 55 54 55 59 60 65 72
74 74 75 80 84 87 88 90 94 97 101 99 98 104 105 106 109 111 111 110 108 105 98 94 93 88 82 76 73 71 68 65 62 56 56 55 53 52 52 54 59 62 68
76 78 81 86 91 92 94 96 98 102 101 99 105 108 107 109 112 113 111 109 104 97 92 88 84 80 76 71 68 66 62 58 55 52 53 52 51 50 50 51 53 58 62
80 82 86 91 95 98 98 101 102 102 101 105 108 107 109 113 114 112 109 104 98 91 85 80 78 75 72 67 64 62 58 54 49 49 50 49 48 48 49 50 53 56 59
83 87 91 95 100 102 102 104 105 102 106 110 111 112 115 116 114 109 105 100 93 86 81 78 75 72 68 64 61 60 57 51 48 49 49 44 46 46 46 48 52 54 57
88 92 96 98 102 104 106 104 102 107 111 113 115 117 118 116 112 107 103 96 89 82 79 75 71 69 66 63 59 55 54 52 45 47 43 40 47 43 46 47 48 50 53
91 95 100 100 101 105 104 104 108 111 114 116 117 118 117 114 111 107 100 92 85 79 75 71 69 67 64 60 55 50 50 49 46 44 41 37 46 43 46 44 45 48 52
95 99 100 104 107 107 105 109 112 115 117 118 119 118 115 112 109 102 94 87 82 75 70 68 66 64 61 57 52 48 44 43 43 43 40 35 41 41 43 41 43 47 49
98 100 102 106 105 106 109 113 117 117 118 119 118 118 114 111 104 96 89 83 78 71 67 63 61 59 57 55 52 47 44 39 38 41 41 31 37 37 40 41 42 43 44
101 103 106 106 106 109 114 117 118 117 118 118 119 117 112 104 97 90 83 78 73 67 63 59 57 57 56 53 51 46 41 40 35 37 39 31 36 34 38 38 38 39 41
102 105 106 107 110 113 118 119 118 118 118 118 117 113 104 97 92 84 77 75 70 65 59 56 55 55 53 51 49 46 41 36 36 33 37 32 34 32 28 36 35 37 39

GFSMA_250_spd_027.txt.gz
Wind_Speed
59 62 61 65 70 69 74 76 79 79 83 89 90 95 92 83 80 74 69 68 69 70 70 73 74 77 78 79 80 81 81 81 79 77 76 72 71 68 65 64 63 62 64
64 66 65 71 75 80 84 85 87 88 88 82 79 79 75 74 70 68 69 72 74 74 74 76 78 79 80 81 82 81 83 84 85 84 79 74 71 70 69 66 65 64 63
60 61 63 65 69 71 73 78 80 81 82 77 73 75 70 69 72 74 75 77 77 79 79 79 79 80 80 81 85 87 88 88 88 86 83 79 76 73 71 71 72 69 67
71 63 66 67 70 75 79 81 79 77 71 70 69 68 68 71 74 75 77 78 78 78 79 81 82 84 85 87 89 90 91 91 89 87 86 83 82 80 78 77 78 77 74
68 72 74 76 81 79 80 82 76 70 67 65 66 67 69 72 75 76 74 74 77 81 84 85 86 87 89 90 90 90 90 91 91 91 91 90 91 91 88 87 86 84 83
71 73 72 76 78 80 78 72 70 66 61 63 65 69 73 75 73 74 77 81 84 86 86 88 90 91 90 90 91 92 94 96 96 97 98 97 94 92 93 93 94 96 93
68 71 72 73 73 68 67 65 59 60 64 66 70 74 75 73 74 78 83 85 85 86 88 92 93 93 92 93 95 98 102 104 103 103 101 100 96 94 94 95 95 96 98
73 73 71 71 63 60 57 58 61 64 68 71 73 71 70 74 79 83 86 87 88 90 93 95 93 93 95 99 103 106 109 111 111 108 104 99 97 93 90 90 92 95 96
62 62 63 55 53 56 61 63 65 70 72 73 69 71 74 79 83 86 88 90 91 94 97 95 94 97 102 106 110 112 113 112 111 110 106 101 97 93 88 87 88 92 95
48 49 48 50 54 60 62 65 68 73 73 73 73 77 82 86 88 88 90 93 95 99 98 97 99 104 109 112 114 115 114 112 109 105 101 97 96 93 89 83 85 89 93
47 48 52 56 61 63 64 70 73 71 72 75 78 83 85 88 90 91 93 96 100 99 98 102 108 111 113 114 113 111 108 103 100 97 92 89 88 86 80 76 79 84 91
51 52 56 61 63 64 69 73 76 77 76 79 84 87 88 90 92 95 98 101 97 98 103 109 112 112 112 113 111 108 105 101 97 92 88 84 81 78 76 75 77 80 82
55 58 62 65 66 69 73 77 79 77 79 84 87 90 93 95 97 98 101 96 98 103 109 111 112 113 114 112 109 103 99 95 91 88 84 80 77 75 74 75 78 79 76
58 62 64 67 73 74 78 79 79 79 83 88 91 93 95 98 101 102 98 101 105 108 109 111 113 113 110 107 103 99 94 88 81 75 71 70 69 70 71 73 75 74 72
64 65 69 76 78 79 78 81 82 83 86 90 93 95 98 101 101 98 103 107 108 108 112 112 110 107 103 100 96 92 87 81 75 70 65 61 60 62 66 67 67 67 66
66 67 76 78 78 79 82 83 85 86 90 93 96 99 102 100 100 104 107 109 111 112 112 111 108 104 97 91 85 81 77 75 73 69 64 60 57 57 59 61 61 61 62
66 74 77 78 80 82 86 87 89 91 94 95 99 104 103 102 105 109 110 114 115 114 112 109 103 98 89 82 77 74 70 67 65 62 61 57 54 53 55 57 57 57 57
72 75 77 80 83 86 91 93 93 95 98 100 104 101 103 106 112 114 116 117 116 114 109 103 97 88 83 79 75 71 66 62 59 58 56 52 50 51 50 52 54 55 56
73 76 80 85 88 89 93 97 99 95 101 106 106 107 110 113 116 118 118 118 116 112 104 96 91 86 80 76 72 68 63 59 55 53 52 49 49 48 47 47 50 52 54
77 81 85 89 90 92 96 99 101 103 106 108 109 111 114 117 119 121 120 118 114 106 99 93 87 81 76 72 68 64 62 54 52 51 48 44 46 44 45 45 47 48 49
80 84 88 90 91 94 99 101 102 105 110 110 112 114 117 120 122 121 120 116 109 103 94 90 84 78 72 69 65 60 56 53 49 49 44 40 42 42 43 43 44 45 47
84 86 90 91 95 96 100 102 106 109 111 112 113 117 120 122 121 119 116 111 105 96 91 86 80 74 70 67 63 57 51 49 49 47 42 39 40 41 40 40 40 42 45
86 88 92 96 99 103 103 106 109 110 112 113 116 120 121 123 119 116 112 107 99 92 86 81 77 70 68 64 60 55 50 45 44 48 41 32 41 36 38 38 38 41 44
89 92 94 98 101 104 106 108 111 111 113 116 120 121 122 121 117 112 109 101 93 85 81 77 73 68 65 60 57 55 51 45 41 44 41 32 36 35 36 36 36 39 41
91 94 97 101 103 105 107 111 111 114 117 120 120 122 121 118 114 108 103 96 89 82 79 74 70 65 61 56 55 53 51 46 40 40 39 33 33 30 33 35 34 38 40
94 98 101 103 105 106 111 112 116 118 120 119 121 122 120 116 110 104 99 92 85 80 76 71 65 61 57 54 52 52 51 46 40 38 38 32 33 29 29 36 38 36 38

GFSMA_250_spd_030.txt.gz
Wind_Speed
57 60 60 62 64 58 59 57 56 62 68 70 70 75 80 80 79 75 69 67 64 65 66 68 70 71 71 71 71 70 71 72 72 73 74 76 76 76 75 74 74 74 70
54 60 61 61 60 65 68 65 69 68 70 75 77 80 83 73 69 66 65 66 65 66 69 71 70 69 70 73 76 78 78 79 80 80 80 80 80 81 81 79 79 77 71
63 61 62 58 62 66 70 70 72 74 72 73 71 70 67 64 63 65 65 67 70 73 73 72 72 74 76 79 82 83 82 83 85 86 85 84 84 84 83 80 79 76 75
58 61 67 71 73 71 71 74 73 73 77 71 70 64 63 63 66 68 70 74 76 75 72 72 75 78 80 81 82 83 84 86 88 89 89 89 88 88 88 87 83 80 78
64 66 64 65 70 68 71 72 76 75 73 69 65 62 63 65 68 72 75 77 75 74 75 77 81 83 84 84 84 85 87 90 91 90 90 90 91 91 92 92 92 92 89
69 73 64 66 67 71 75 78 76 76 71 63 61 63 66 67 71 75 76 74 75 77 82 85 86 86 87 87 87 89 92 93 90 90 91 95 98 100 99 99 99 100 100
63 64 65 68 69 76 80 76 69 61 59 60 64 64 66 71 74 75 75 76 79 82 86 89 89 89 89 90 93 96 92 90 90 94 99 103 105 105 104 104 102 101 100
64 65 68 70 73 75 65 60 56 57 59 63 64 68 69 70 74 77 78 81 85 87 89 89 90 91 94 97 95 91 93 97 100 104 107 109 108 108 106 104 102 99 100
60 62 64 66 66 62 57 56 57 61 64 65 68 73 75 78 77 75 82 87 90 92 92 91 92 95 96 94 94 97 99 104 107 109 111 112 112 109 105 102 100 99 96
57 58 58 58 58 54 57 59 62 65 67 70 72 76 80 83 85 86 84 87 92 93 93 96 97 93 92 98 100 101 106 106 108 111 112 111 107 103 100 96 92 90 92
53 55 56 57 55 57 62 65 66 66 70 75 76 77 79 82 86 90 94 96 92 93 97 98 95 98 100 104 107 108 107 109 110 109 107 104 102 96 92 89 87 82 80
48 49 52 55 57 61 64 68 69 72 74 78 80 80 82 85 89 92 95 96 96 101 100 98 100 103 107 108 108 108 107 105 104 103 101 98 95 89 84 82 81 78 76
45 50 55 58 62 65 69 72 76 79 83 84 84 83 87 91 94 96 97 99 101 103 101 104 106 110 110 108 107 105 103 101 101 97 93 90 87 84 78 74 72 72 70
49 55 60 59 67 71 75 78 82 83 85 85 87 89 91 94 97 98 99 101 105 105 107 107 107 107 110 109 107 104 100 96 93 89 84 81 78 75 73 71 70 69 67
50 55 60 64 69 70 77 83 83 85 87 88 90 92 96 98 100 100 101 106 105 107 111 115 113 110 109 105 102 99 93 88 84 82 78 74 71 68 67 66 66 66 65
54 60 63 67 73 79 81 84 86 86 89 91 94 96 97 100 102 102 106 108 109 113 114 117 117 114 111 105 98 90 83 80 77 75 71 67 63 60 61 61 61 61 62
61 62 65 71 76 79 83 85 86 89 93 95 97 100 102 102 102 106 110 110 115 118 118 120 118 114 107 102 93 83 78 75 72 69 67 63 59 57 57 57 57 57 58
62 64 70 75 78 80 84 88 90 93 97 100 102 102 105 105 108 111 112 115 119 121 123 120 119 112 103 95 86 79 75 70 68 65 63 59 56 53 52 54 54 53 54
68 72 76 77 79 83 86 89 93 97 99 102 106 107 108 110 111 115 116 119 123 124 123 121 117 108 100 90 82 76 72 68 64 63 59 55 54 49 49 50 49 48 50
72 74 77 79 83 86 90 93 95 99 100 104 107 108 110 111 115 118 120 124 126 126 124 119 110 104 95 86 79 74 71 66 61 59 54 49 54 47 48 47 46 45 46
74 77 80 83 87 90 94 97 98 101 103 105 107 110 111 114 118 121 124 127 127 126 121 114 108 98 91 83 77 71 66 63 58 55 52 42 54 48 45 43 43 43 43
77 81 83 87 90 95 96 101 102 103 106 108 111 112 114 118 121 124 127 127 128 123 117 111 102 94 88 81 75 68 64 59 55 50 51 40 47 45 42 41 39 41 40
81 84 87 90 92 95 99 100 103 106 108 111 111 114 117 122 125 128 128 127 124 119 114 103 98 90 84 79 73 66 61 57 52 49 51 43 41 40 41 38 37 38 38
85 88 90 93 95 97 99 103 106 108 110 111 115 118 122 126 129 129 127 122 120 114 107 97 92 85 80 74 68 62 57 55 51 46 48 46 38 36 38 38 35 36 36
87 90 93 95 96 100 104 108 109 108 110 116 118 122 126 128 128 125 122 119 116 109 95 91 86 81 77 70 64 58 55 54 53 46 44 42 41 31 35 37 35 33 34
88 90 93 97 101 105 108 109 110 112 115 118 121 124 126 126 124 120 117 113 109 100 88 84 82 77 70 64 61 56 54 54 51 47 42 40 38 33 29 36 35 31 30

GFSMA_250_spd_033.txt.gz
Wind_Speed
58 59 60 60 61 64 60 57 57 57 65 66 67 73 75 78 78 76 80 78 73 66 63 62 64 67 70 72 72 70 67 67 69 71 73 73 73 73 72 71 72 71 71
56 58 55 57 52 56 58 64 65 66 67 74 79 83 77 78 81 79 68 69 64 65 65 66 68 72 74 73 72 72 73 75 78 78 78 77 77 76 76 77 77 76 75
60 54 57 60 57 66 69 71 74 76 74 81 81 74 79 82 81 68 66 62 65 67 69 70 72 73 71 72 75 78 80 82 84 85 84 82 81 81 82 83 83 82 79
56 58 61 62 61 62 66 68 70 76 80 78 82 83 78 74 66 61 64 65 68 65 70 75 75 75 76 77 80 82 85 86 87 86 86 86 87 86 87 87 85 83 81
56 56 61 66 69 72 76 75 80 83 80 76 76 70 65 63 61 65 66 68 72 74 74 75 80 80 82 83 85 87 88 88 87 87 89 89 90 89 85 83 83 84 85
64 67 65 65 66 66 71 73 74 75 73 70 65 64 64 62 62 64 65 70 74 79 82 82 81 82 86 89 89 89 87 89 90 90 87 85 85 87 90 91 91 91 92
62 65 71 74 70 71 76 75 71 74 70 65 64 62 59 61 65 70 71 75 77 80 82 84 87 90 89 88 88 89 91 94 90 88 89 90 92 95 97 98 99 100 100
54 58 64 68 74 71 74 71 73 71 65 63 62 63 66 64 58 66 79 80 82 85 84 86 88 91 93 94 89 87 89 92 92 92 95 98 100 101 102 103 103 105 105
68 68 73 70 72 71 70 69 69 69 65 65 65 66 67 69 73 70 72 82 84 88 89 91 91 92 92 93 95 94 89 94 96 99 103 103 104 106 108 109 109 109 108
68 69 72 68 66 64 62 66 65 64 64 64 65 67 72 74 80 84 81 80 84 86 89 93 95 96 93 94 97 95 97 100 101 104 104 104 106 106 108 110 110 107 104
58 60 62 60 58 57 60 62 64 65 65 69 68 69 72 79 85 90 93 96 88 88 89 93 96 96 98 101 101 97 102 105 103 103 102 100 100 104 106 104 102 99 96
53 52 54 52 52 58 57 60 66 68 70 70 75 78 84 88 92 91 90 94 98 100 100 101 101 100 102 104 106 104 108 107 101 98 97 98 100 100 98 93 90 86 83
44 47 45 52 54 61 63 66 67 71 77 80 83 88 91 94 92 93 94 99 102 105 107 107 104 104 107 110 112 110 112 108 102 99 100 99 96 92 87 84 83 80 77
38 42 42 49 57 63 63 66 72 78 83 85 88 92 95 91 92 95 97 102 106 108 110 110 111 110 108 111 113 113 111 106 100 99 97 94 89 85 82 78 76 73 71
46 48 52 53 59 61 66 72 77 82 84 89 93 95 92 94 97 99 103 106 108 111 111 114 116 117 117 116 115 114 108 102 100 96 90 85 82 79 74 71 67 66 64
48 50 53 57 59 66 71 77 81 83 89 93 95 93 93 97 100 103 108 110 113 113 112 117 119 121 122 120 118 113 106 101 98 91 84 81 79 74 68 63 62 61 60
48 53 57 61 66 71 76 81 84 87 91 93 93 93 100 101 103 108 110 113 115 118 117 117 123 124 123 119 112 107 106 101 92 84 78 76 74 69 66 60 58 57 57
55 58 63 67 72 77 82 84 88 91 90 92 95 96 101 105 107 109 113 116 117 118 119 122 124 125 122 117 108 107 104 98 88 79 74 73 70 64 62 57 53 53 53
59 63 68 72 76 80 83 85 89 92 94 95 98 99 102 104 107 112 115 116 118 121 125 126 122 121 116 112 107 106 99 90 83 75 70 69 65 64 58 52 50 50 50
65 69 72 75 79 82 84 87 91 94 99 99 103 106 108 112 115 117 117 120 124 126 125 124 121 117 115 110 106 101 93 85 79 72 67 64 59 59 54 51 48 49 47
69 73 76 80 82 83 86 91 93 96 99 100 103 107 110 112 114 117 122 124 125 126 126 124 120 115 113 111 103 95 86 79 76 66 63 60 55 53 50 51 49 45 46
73 77 80 81 83 86 90 92 95 96 98 101 105 107 110 112 117 120 123 124 124 124 125 126 121 118 112 109 98 90 82 76 72 65 58 58 51 50 47 50 47 44 44
76 77 79 82 85 88 90 92 94 96 98 102 105 108 113 117 120 123 122 121 123 125 124 122 118 117 111 104 91 83 78 71 67 61 56 56 49 49 45 49 46 42 41
74 78 82 84 86 87 89 91 94 97 99 103 108 111 114 117 120 123 124 124 122 118 119 119 116 111 103 94 86 79 74 67 63 58 54 55 49 48 44 44 45 39 38
76 78 80 83 86 87 89 92 94 97 101 106 110 113 116 119 121 123 124 120 118 117 116 113 108 101 95 87 81 74 68 63 60 58 53 52 47 47 43 42 42 37 36
74 77 80 82 84 88 91 94 98 103 105 108 111 114 116 117 118 117 119 120 117 115 114 107 98 90 89 79 75 72 65 61 56 57 51 50 45 43 44 35 41 36 33

GFSMA_250_spd_039.txt.gz
Wind_Speed
38 45 41 41 42 43 47 48 49 53 52 53 56 55 57 64 68 69 68 71 74 77 81 82 85 82 84 85 77 72 67 67 67 67 67 67 66 66 66 65 65 65 67
46 45 47 48 47 45 46 49 52 56 61 61 58 62 58 66 71 70 71 78 82 84 80 84 82 82 76 74 68 68 68 69 70 70 70 70 70 71 71 71 73 73 73
52 53 52 49 48 54 54 49 50 54 58 59 65 70 69 67 70 75 79 77 78 83 88 81 76 73 70 67 66 67 70 71 73 73 73 74 75 76 76 75 75 76 76
50 47 52 54 46 46 49 55 56 58 58 61 68 71 72 75 75 76 79 81 84 84 75 76 76 74 69 66 66 69 72 74 76 77 77 78 79 80 79 77 77 77 76
52 50 50 45 42 49 49 49 54 59 64 67 68 75 76 78 81 83 77 78 79 74 75 75 72 71 69 69 69 73 77 82 81 79 78 80 82 82 81 80 80 78 78
41 38 41 40 44 48 53 59 61 65 66 71 72 74 76 77 78 81 82 77 74 72 71 69 69 72 70 72 77 81 86 87 85 82 82 84 86 85 84 83 83 83 83
44 43 50 42 45 53 62 67 66 70 69 72 75 79 80 83 85 83 84 81 78 75 72 69 68 70 74 79 83 87 92 90 89 89 89 90 90 89 89 89 90 89 87
53 50 48 53 56 61 67 69 69 71 74 76 78 81 86 85 84 84 82 75 69 72 74 73 77 79 82 86 89 92 92 92 96 97 96 96 96 94 95 94 93 93 94
55 55 56 56 61 64 67 69 72 76 77 78 82 85 87 83 81 83 76 69 68 73 74 77 80 86 93 94 96 97 96 99 101 101 102 102 102 98 97 95 92 91 90
57 59 62 65 65 67 67 69 71 72 73 78 80 83 81 82 82 74 71 70 75 77 80 84 88 94 98 99 100 102 102 104 106 107 106 104 102 100 99 95 91 90 89
59 63 64 64 67 67 66 66 71 74 76 77 80 79 75 72 70 73 76 80 79 82 85 90 93 98 102 103 104 104 105 108 109 110 106 104 101 97 94 92 90 89 88
52 51 55 58 62 61 64 67 70 72 74 74 71 68 68 70 75 79 80 83 86 91 95 99 102 102 103 105 105 107 109 112 112 110 108 103 100 97 93 90 88 86 86
48 49 50 54 59 58 61 64 67 69 68 66 65 68 72 78 80 81 83 87 92 98 103 107 106 107 108 108 107 109 110 109 112 114 110 103 101 98 95 91 88 87 87
51 41 50 53 55 61 63 65 66 67 66 68 73 77 77 79 79 83 88 95 98 103 107 110 111 111 111 113 113 111 111 114 114 110 107 104 101 98 94 92 89 87 86
49 44 47 59 62 64 65 68 69 70 73 76 78 79 79 82 88 93 96 99 102 104 106 110 112 116 117 116 116 115 116 115 113 111 109 104 102 98 95 93 90 85 80
40 41 53 60 65 70 69 70 71 73 76 78 78 81 84 87 91 96 100 103 104 104 104 109 111 114 120 121 120 118 118 115 115 115 114 109 105 100 100 93 88 81 75
51 54 58 64 72 74 73 72 72 74 78 80 81 85 89 93 95 99 102 103 104 107 105 106 110 114 115 117 119 118 117 115 117 118 118 113 110 103 94 89 82 76 71
61 59 63 67 70 73 75 74 75 78 81 83 90 91 90 95 99 99 99 103 104 106 107 108 108 110 111 115 118 119 118 118 118 118 118 116 109 96 89 83 78 72 67
62 65 67 69 73 76 76 77 80 83 87 89 89 92 94 94 93 97 99 100 104 106 108 109 105 107 111 116 118 120 122 122 119 118 117 110 97 87 82 78 73 69 65
66 67 68 71 72 75 76 76 78 80 83 86 86 86 87 91 93 95 97 100 104 107 108 109 108 109 112 116 122 126 126 123 119 116 110 99 91 83 79 72 68 65 63
64 69 70 69 68 69 71 73 74 74 76 79 83 86 88 89 91 95 97 100 101 103 107 109 110 112 114 120 125 126 128 124 117 111 98 90 84 78 73 68 64 62 59
60 62 64 65 65 64 65 68 71 75 77 80 83 84 86 91 94 95 95 97 104 106 109 112 110 115 118 123 124 126 129 125 114 104 92 84 79 73 70 67 62 60 57
56 58 59 61 63 65 67 71 74 75 79 80 80 86 91 94 96 95 98 104 107 110 113 113 114 118 121 121 126 125 122 117 106 96 88 79 74 70 69 65 60 56 53
59 61 62 64 65 69 71 72 72 73 76 82 87 90 87 89 93 98 101 101 105 107 109 114 118 119 121 122 125 123 117 107 97 90 82 75 71 67 66 62 57 53 50
61 62 62 64 66 67 67 67 70 73 80 82 81 88 90 94 96 98 99 102 103 105 108 113 116 118 119 120 118 114 104 99 92 84 77 71 69 66 64 61 54 51 48
57 59 60 60 60 63 67 72 75 76 74 78 83 88 92 95 100 101 104 106 104 106 109 109 110 109 110 109 108 104 97 92 84 79 74 69 67 64 62 60 51 48 45

GFSMA_250_spd_042.txt.gz
Wind_Speed
44 43 39 36 40 41 48 41 41 43 47 50 51 50 53 53 59 63 59 61 66 65 73 73 77 77 84 84 86 83 87 81 75 71 69 67 68 69 70 70 70 68 66
45 40 41 43 45 45 46 48 49 52 52 51 51 51 56 58 59 60 65 66 68 74 74 80 80 85 87 87 82 78 73 71 72 69 67 69 70 70 70 71 71 70 69
44 43 42 48 51 52 50 50 53 53 51 54 55 57 56 57 61 66 70 69 75 75 82 80 80 82 85 80 78 77 75 71 69 69 66 69 70 71 72 72 71 72 74
45 47 47 49 51 49 50 53 55 56 49 52 54 56 60 64 65 70 74 77 72 78 78 81 81 82 81 82 79 74 72 70 71 69 71 74 75 77 77 75 75 76 77
53 53 53 53 53 58 59 55 55 50 53 55 57 59 62 66 69 73 72 76 81 82 84 84 84 85 78 74 72 72 72 70 72 75 77 78 80 81 80 79 82 81 82
55 58 61 65 58 59 56 58 57 57 55 57 60 65 69 71 73 75 80 82 83 85 83 83 83 80 79 77 74 73 73 76 79 83 83 81 83 84 85 87 87 85 83
61 64 65 62 57 51 55 54 55 57 59 65 68 72 69 70 75 79 77 82 79 79 81 78 79 76 75 75 78 78 81 86 90 92 91 88 87 90 92 91 88 88 88
63 55 48 44 45 50 51 55 60 62 66 68 72 74 75 76 77 75 76 77 76 81 78 76 72 75 79 81 83 84 89 94 98 100 99 98 95 97 96 93 93 94 96
52 48 49 56 58 60 63 64 65 66 69 71 73 74 72 72 74 76 76 78 76 72 72 74 76 80 84 85 87 92 97 101 103 106 106 105 103 100 101 100 99 99 98
49 50 51 55 58 62 64 67 67 68 67 67 69 68 71 73 74 74 74 74 70 73 74 78 80 82 85 91 96 100 104 106 108 108 109 109 106 106 105 104 104 102 96
51 51 55 58 59 61 61 63 65 65 64 65 65 65 65 69 71 71 71 72 75 79 78 83 83 87 91 98 102 105 108 108 109 111 112 112 112 108 105 108 103 100 97
56 56 58 62 67 68 69 69 68 63 61 61 63 65 71 73 73 73 73 78 81 82 84 88 91 94 99 102 105 109 106 108 110 111 113 114 113 113 110 106 102 99 97
55 59 60 63 63 60 60 61 61 61 60 63 67 71 75 76 78 79 80 82 84 86 90 94 97 101 103 106 106 104 106 109 109 111 113 113 117 117 111 107 105 100 95
50 47 45 46 52 54 57 60 57 59 62 69 72 74 77 80 80 81 84 86 87 90 93 101 102 104 108 105 106 108 110 109 112 114 116 116 117 115 113 110 102 95 93
37 39 41 47 50 52 57 59 60 67 73 75 77 81 83 83 82 85 88 90 93 94 99 103 105 105 105 108 110 111 112 115 113 113 114 116 116 118 113 105 95 95 88
32 36 46 46 51 54 59 67 71 74 77 81 85 85 85 87 89 90 94 96 99 100 99 101 101 106 108 111 113 113 112 113 114 116 116 117 118 121 118 112 94 93 82
28 41 53 57 57 59 65 68 72 78 80 80 82 87 90 91 92 95 98 98 98 96 92 97 100 106 109 112 112 114 117 117 117 118 119 121 122 125 125 115 92 90 83
38 51 60 66 58 61 71 80 84 85 87 87 89 88 90 93 95 95 96 92 91 95 95 97 101 104 106 108 112 115 116 116 114 117 121 124 124 123 119 110 96 88 82
48 49 58 65 73 78 81 86 88 89 88 90 91 92 92 91 90 86 88 90 91 92 96 97 96 99 103 108 110 113 113 113 116 121 126 128 125 115 110 103 91 83 80
66 74 77 78 79 81 86 90 90 88 89 91 93 90 83 81 83 85 85 85 90 90 90 93 93 96 101 106 109 110 108 113 117 120 126 126 122 116 107 97 85 79 74
67 71 75 81 88 88 87 86 87 87 85 81 79 79 80 82 81 80 83 85 87 86 89 92 95 98 101 102 104 105 111 115 115 118 123 121 117 108 99 89 80 73 69
76 78 80 81 80 81 78 77 77 78 77 78 79 80 79 79 79 82 84 85 85 88 94 95 97 102 105 108 108 109 111 113 111 110 116 112 109 98 91 81 75 69 65
66 67 67 70 74 75 76 78 78 79 80 79 77 75 76 79 81 84 85 84 88 93 96 98 99 107 110 113 111 111 113 114 112 110 109 102 99 90 84 78 73 66 61
66 70 74 77 77 77 77 75 72 71 72 72 73 76 78 74 77 79 85 89 92 97 102 105 111 114 116 113 114 114 114 110 107 104 105 96 92 84 76 74 69 62 59
42 48 54 59 62 64 64 65 68 70 72 75 79 81 77 79 84 81 86 90 93 98 102 106 111 115 117 115 116 115 113 109 103 98 98 91 86 81 73 70 63 58 54
43 49 50 51 57 60 63 67 70 72 71 72 72 76 80 82 84 86 91 93 96 97 102 108 114 119 117 116 119 117 111 104 100 92 91 86 81 76 70 67 60 55 51

GFSMA_250_spd_045.txt.gz
Wind_Speed
34 35 33 32 34 38 35 37 37 43 47 47 49 48 52 53 57 59 54 54 57 60 61 60 66 69 74 76 81 82 81 86 90 86 83 78 76 72 70 69 72 69 69
36 32 38 36 36 36 40 43 39 46 49 50 48 52 54 54 52 53 57 58 61 62 63 65 71 77 81 83 81 84 85 86 83 80 80 76 70 69 67 69 70 69 68
33 35 37 37 39 41 44 46 44 45 51 50 52 55 58 61 59 59 61 60 61 63 68 70 77 81 82 85 85 88 84 82 80 76 73 69 67 66 67 70 73 75 74
43 45 42 44 48 52 50 49 45 50 55 57 61 61 56 59 60 59 59 63 66 69 69 76 80 83 85 86 86 82 83 79 75 75 70 70 67 71 74 77 78 79 80
49 49 51 54 54 56 54 57 56 60 53 56 58 59 59 59 55 56 58 63 66 71 75 76 73 78 79 79 83 82 76 74 75 76 75 74 76 78 80 83 84 85 84
52 55 58 59 59 58 57 56 56 55 54 51 51 54 55 54 57 63 68 73 73 76 77 75 77 81 81 80 78 74 76 78 78 80 80 82 84 86 87 87 88 88 89
60 62 65 64 64 64 49 45 45 46 45 46 47 53 55 63 67 71 72 72 75 77 75 77 77 78 77 78 77 78 78 81 83 86 90 91 91 91 91 92 93 94 94
67 67 68 70 64 51 50 49 42 47 52 55 59 64 65 68 70 69 71 71 69 70 72 73 75 77 77 77 80 83 85 86 90 96 99 99 98 99 96 97 97 99 98
63 60 60 48 46 48 50 53 57 62 63 63 64 65 66 67 69 70 66 64 64 65 69 72 73 75 78 82 85 88 92 95 98 104 104 105 105 102 101 101 102 102 100
58 61 48 49 48 49 52 53 55 58 62 60 62 65 68 70 72 68 64 65 69 72 73 77 79 82 83 86 90 94 98 100 106 107 109 108 107 107 107 106 106 102 105
53 46 47 52 54 57 57 59 59 59 60 61 61 63 64 62 64 61 63 69 74 75 79 82 86 85 87 89 92 97 102 105 107 106 105 109 109 112 113 110 107 108 110
50 49 53 53 54 55 57 61 57 55 57 59 58 57 50 55 57 63 68 72 77 81 83 86 88 89 91 92 97 102 102 102 100 104 105 108 113 115 113 114 113 113 114
51 56 55 52 50 48 52 50 47 50 53 46 47 51 57 63 68 71 77 78 78 81 86 91 94 95 95 98 99 99 95 97 99 103 107 109 110 112 115 115 115 115 116
51 37 36 39 41 40 40 46 50 49 59 64 62 61 63 69 74 80 82 84 84 86 89 93 97 98 96 96 92 93 94 98 102 106 106 109 110 113 114 115 114 117 119
35 34 35 36 38 38 40 48 53 54 62 64 69 70 71 76 82 86 85 85 87 89 93 93 94 94 89 90 94 93 98 102 103 106 107 108 109 111 114 114 116 120 121
35 36 38 37 41 32 46 52 58 63 63 66 71 76 78 84 86 84 86 92 96 97 94 91 86 89 92 91 93 96 100 101 101 105 107 109 111 114 115 117 121 123 121
38 33 37 39 39 46 55 59 60 65 65 72 83 78 85 87 88 89 92 97 95 95 88 83 87 90 92 93 98 102 101 104 105 106 107 109 114 115 117 122 124 125 118
37 42 44 45 54 50 61 69 71 74 75 80 83 81 85 98 99 99 98 95 87 83 86 89 90 90 91 97 98 99 100 101 105 103 106 111 115 117 121 123 125 121 113
43 45 49 50 60 66 66 71 71 77 85 85 91 94 97 102 103 94 95 90 88 88 90 86 85 90 94 96 94 96 97 99 103 102 106 111 116 121 123 124 121 115 107
48 52 59 58 59 69 78 85 80 85 90 91 94 100 101 101 98 95 94 90 91 87 85 86 92 92 91 96 96 96 96 101 102 107 111 114 121 123 123 124 118 111 101
53 57 60 64 66 72 76 84 90 93 96 100 104 106 102 98 94 94 89 85 81 84 88 90 91 95 101 103 99 100 98 97 101 108 110 116 121 122 122 118 110 100 90
60 65 65 70 74 78 83 88 93 99 101 101 97 95 93 89 85 83 80 83 85 88 87 90 94 97 101 99 99 101 102 103 102 113 115 114 120 115 113 107 101 91 85
64 65 69 72 75 79 84 89 91 91 91 79 74 74 74 74 78 81 83 82 78 85 93 93 95 100 96 101 101 102 102 107 110 115 119 113 117 109 107 101 95 86 81
56 60 60 54 49 53 54 52 52 51 52 55 59 63 68 72 75 78 82 85 90 95 97 98 100 99 99 100 101 104 105 109 109 114 122 111 112 104 99 96 90 81 73
49 51 54 56 55 56 58 59 58 59 60 61 62 64 66 69 72 74 76 81 86 92 95 94 94 97 99 102 107 107 108 113 114 115 123 112 108 100 95 91 84 74 65
53 55 56 56 58 59 61 64 65 66 65 67 69 70 74 76 77 79 82 85 89 93 95 97 96 98 102 105 112 116 116 118 120 115 119 104 100 98 90 86 79 70 60

GFSMA_250_spd_048.txt.gz
Wind_Speed
41 33 45 27 24 23 26 27 30 36 37 41 43 42 44 44 45 48 51 52 52 54 51 53 57 57 59 64 66 66 72 74 77 77 77 79 79 77 80 77 74 73 69
39 38 28 25 26 22 25 32 37 40 41 44 45 47 47 47 51 52 52 50 53 54 53 52 51 58 61 66 72 73 73 74 76 74 76 79 78 79 74 70 70 69 69
38 33 30 30 29 27 26 34 41 47 50 48 46 47 49 53 50 49 48 51 51 48 42 51 63 64 65 73 76 77 80 78 77 81 78 75 70 70 73 74 71 71 73
38 35 32 30 34 33 37 42 52 53 52 50 45 47 50 50 50 48 51 49 49 47 51 57 62 68 73 75 76 71 73 75 77 74 74 75 73 74 76 76 76 78 80
34 36 35 36 41 46 46 51 56 60 65 46 43 42 44 46 48 45 46 47 48 51 56 64 68 70 68 68 68 66 68 68 69 70 70 72 74 76 80 84 86 86 83
42 44 47 50 52 54 53 57 65 65 53 42 42 46 45 47 45 44 43 51 58 62 64 64 66 67 65 68 64 65 66 70 71 73 76 78 81 85 89 93 91 88 86
60 63 62 63 62 60 62 65 62 54 42 43 45 39 43 44 48 49 53 60 61 65 67 69 70 65 66 67 69 69 71 71 76 81 83 85 88 91 94 92 91 90 93
61 62 60 66 67 62 69 63 51 48 46 47 43 47 53 54 58 61 64 62 63 61 62 59 60 64 65 68 72 74 77 80 83 85 88 91 93 95 94 93 94 95 95
62 63 63 61 65 63 66 60 48 45 45 49 52 51 54 53 57 57 60 62 54 51 51 56 62 67 72 77 81 81 83 85 88 89 92 93 94 95 93 96 97 98 99
71 73 66 62 71 63 53 53 51 50 52 54 56 57 58 59 59 53 57 50 48 50 61 66 72 76 78 81 83 84 86 90 93 96 95 94 92 97 100 98 101 102 104
66 70 71 70 64 68 50 52 53 54 56 58 58 59 61 57 48 44 45 48 53 61 69 73 77 81 81 80 80 86 92 96 96 97 92 91 95 96 100 102 104 108 106
63 55 63 56 57 63 54 55 58 58 60 54 54 51 45 37 42 47 46 51 57 69 73 76 82 82 80 81 88 93 95 96 93 89 91 93 96 98 100 105 107 107 110
51 45 44 48 49 46 52 52 55 56 50 49 52 50 41 43 49 57 59 65 72 76 80 85 80 83 86 91 92 96 95 89 89 90 90 91 96 101 102 105 104 107 109
46 48 46 45 46 45 45 48 50 52 49 46 49 54 60 60 63 63 73 75 78 83 84 78 87 89 96 96 99 91 87 90 90 91 91 93 98 103 101 104 109 108 111
43 43 43 45 49 47 50 53 49 44 47 41 51 63 66 71 66 73 73 83 85 81 76 84 100 98 105 96 91 89 90 89 90 91 95 98 103 101 111 112 111 113 113
42 43 44 45 47 47 45 46 48 46 51 56 61 63 68 64 71 77 80 84 77 89 102 99 96 95 94 94 93 92 86 86 90 94 98 103 106 110 112 109 114 114 117
48 45 46 48 51 48 41 39 48 53 51 60 63 65 67 72 77 84 75 84 96 101 102 97 98 100 96 92 89 86 86 89 94 98 102 107 112 114 118 117 114 115 113
52 52 51 55 52 51 51 42 47 52 61 71 68 70 76 82 80 84 95 98 103 107 108 105 102 96 90 85 84 88 89 88 94 99 105 111 110 108 112 113 113 114 117
56 59 61 61 58 52 52 51 52 59 62 67 69 74 80 84 89 96 101 106 107 110 111 98 86 84 83 86 88 86 87 93 101 106 109 112 112 108 110 109 113 116 120
49 54 57 53 54 57 59 57 58 64 67 70 74 79 85 90 96 102 104 109 106 92 79 75 76 77 81 86 87 88 92 101 105 110 108 103 105 104 108 110 112 116 120
46 46 50 53 57 62 62 61 64 65 68 74 79 87 94 95 90 90 92 69 59 62 66 70 74 78 82 85 88 92 95 98 100 100 101 101 103 105 107 109 111 116 117
46 48 49 54 57 58 63 66 69 72 72 73 78 71 64 72 61 66 70 70 71 71 70 75 78 81 85 87 90 92 92 93 94 100 99 101 106 102 106 108 112 113 110
45 47 50 57 60 62 67 70 73 74 63 61 62 67 73 73 72 72 74 74 73 75 77 81 86 88 88 90 91 92 94 95 98 100 102 98 105 104 105 107 110 107 105
41 45 47 50 54 56 56 57 60 61 65 67 70 71 73 73 75 76 77 76 77 79 81 84 89 93 93 94 96 97 97 97 98 104 108 102 104 100 101 106 108 104 99
44 45 48 52 53 54 59 64 65 69 73 74 73 75 76 77 78 79 78 80 81 83 85 88 93 97 97 98 100 102 103 102 100 105 112 108 105 103 101 106 105 98 93
45 48 48 46 46 50 53 54 57 61 64 67 70 69 72 74 76 80 81 84 87 87 89 92 98 101 102 103 105 108 108 108 110 105 112 104 106 109 97 101 98 92 86

GFSMA_250_spd_051.txt.gz
Wind_Speed
37 36 36 37 30 35 38 36 37 29 29 27 33 36 41 46 38 35 35 40 40 39 40 42 47 47 47 41 46 51 57 61 64 66 69 74 73 69 68 71 72 74 71
38 37 40 39 43 45 45 33 27 30 26 32 37 41 45 45 39 38 40 40 42 43 43 45 45 46 42 42 50 56 64 66 67 70 70 67 67 64 64 62 64 64 66
46 43 42 43 41 30 30 31 27 30 36 36 41 43 47 42 36 38 39 41 42 44 44 43 45 41 46 54 60 62 65 67 67 67 68 60 59 59 60 65 67 68 71
48 43 43 36 36 32 32 31 32 36 42 45 48 47 45 51 53 47 48 40 43 45 44 44 42 48 55 56 60 62 63 62 62 60 62 63 65 66 65 65 72 75 80
50 47 43 40 36 33 33 39 42 46 51 56 55 55 54 56 49 54 42 43 47 48 44 42 47 54 60 58 62 60 59 56 58 59 59 60 64 68 74 79 82 84 83
52 48 41 37 36 38 41 52 60 58 58 63 61 54 58 63 52 44 41 46 50 43 48 52 56 58 58 54 53 52 55 60 61 62 63 69 73 78 81 86 87 86 83
51 43 43 46 50 53 55 57 63 65 60 56 59 57 59 49 49 44 44 49 45 44 55 58 56 58 54 47 52 63 64 63 67 69 75 78 79 83 90 91 83 81 82
56 55 55 57 55 60 63 66 69 65 60 60 65 61 62 59 47 49 53 53 50 51 56 58 60 59 50 49 64 67 72 69 74 76 79 85 85 92 91 84 82 83 85
58 60 61 62 65 67 71 68 66 69 67 56 64 54 49 49 51 53 57 58 55 57 54 53 50 51 51 61 72 73 75 74 78 81 83 85 91 93 90 84 82 85 84
64 67 70 70 72 70 66 67 63 62 59 54 53 52 50 54 56 58 56 49 43 42 43 44 48 54 63 71 71 72 70 72 83 88 89 93 91 82 88 84 82 80 85
71 71 70 68 67 62 64 57 57 53 51 51 49 51 57 60 55 51 41 39 44 45 49 53 60 64 68 69 72 68 73 83 97 96 96 88 89 85 81 79 82 86 92
64 65 67 68 68 63 58 55 52 52 51 52 46 46 48 48 49 47 44 49 48 54 62 66 71 74 74 74 72 71 84 102 94 92 90 88 86 83 78 80 87 89 91
58 59 57 55 54 56 53 53 51 49 51 48 49 45 42 46 41 43 50 54 60 64 69 69 75 81 79 77 80 93 100 103 97 91 85 84 81 80 83 86 87 90 95
52 51 51 52 51 48 51 52 51 50 52 53 53 51 57 55 58 59 60 62 66 69 68 71 79 80 76 86 98 103 102 96 90 83 79 79 81 84 86 86 90 95 102
46 46 49 48 49 51 52 49 52 50 51 53 58 58 59 58 57 61 64 69 70 74 69 77 82 78 87 98 104 101 98 87 82 78 79 82 86 88 88 92 96 103 108
52 51 50 50 49 49 51 51 49 50 51 53 58 51 59 61 58 62 65 68 72 77 78 80 76 88 100 102 96 89 79 75 78 79 81 84 88 89 93 97 100 104 109
54 56 54 52 52 51 51 51 50 48 50 52 51 50 55 58 60 63 68 69 75 79 82 83 92 97 91 89 78 67 69 72 77 81 84 87 91 95 97 101 105 107 108
53 55 53 53 55 55 57 54 54 59 58 53 52 56 54 60 61 64 68 71 77 80 86 94 89 81 76 70 74 78 78 76 78 82 85 89 91 95 98 100 103 106 108
49 52 54 53 54 55 58 58 59 59 60 51 52 54 57 61 64 68 71 74 80 87 88 77 73 74 79 79 78 80 81 83 83 86 89 92 95 98 100 103 105 107 108
44 44 48 51 53 56 58 55 53 51 51 55 59 60 63 66 70 73 77 83 84 75 73 79 76 76 78 79 80 81 84 84 86 89 92 95 97 99 102 103 106 109 109
40 40 43 45 48 47 47 49 53 58 56 56 58 61 65 66 66 67 66 68 74 74 73 78 79 79 80 82 83 85 85 85 86 90 94 99 99 102 105 105 109 112 113
34 38 41 44 44 44 45 45 48 51 54 56 58 61 62 62 65 68 72 75 75 74 78 80 81 80 80 82 85 85 85 86 86 91 95 99 102 103 105 108 113 115 114
32 31 32 33 35 38 41 44 47 50 51 52 54 58 60 60 57 58 61 65 68 72 75 80 82 82 85 87 86 89 88 89 92 95 98 99 103 105 108 111 115 115 114
43 40 39 38 37 39 42 45 48 51 55 57 57 52 55 59 64 64 65 69 73 75 80 83 85 87 90 91 91 90 92 95 97 102 105 102 108 108 110 113 115 116 116
45 44 44 43 43 45 46 51 51 51 55 56 58 62 65 67 67 69 71 74 78 80 83 85 87 89 92 94 95 96 97 98 101 105 109 110 111 111 110 112 115 117 116
51 51 51 51 52 51 54 57 61 63 63 63 65 67 68 71 73 75 79 81 83 85 89 91 92 94 96 98 100 101 102 103 107 109 114 114 117 116 108 109 116 117 111

GFSMA_250_spd_054.txt.gz
Wind_Speed
43 36 37 36 35 38 38 33 34 31 37 38 33 30 36 37 33 38 47 44 46 46 48 43 43 45 45 46 44 46 44 42 42 48 57 62 64 59 60 63 59 58 56
46 39 37 39 34 35 34 34 36 40 39 29 33 38 39 39 42 46 47 51 51 52 49 50 46 47 45 46 47 44 42 45 54 57 61 59 51 51 50 44 49 54 58
51 50 49 48 42 36 38 38 41 34 30 35 41 36 40 43 50 55 55 52 53 53 48 45 45 46 47 48 46 43 50 51 55 58 48 49 54 50 50 53 60 66 73
45 41 39 44 44 41 38 39 36 39 37 37 41 41 48 58 58 53 53 53 56 52 48 45 48 52 50 46 46 51 56 56 53 41 48 50 51 58 63 66 71 76 82
47 44 45 45 46 47 44 47 49 44 43 45 43 50 55 59 62 53 56 62 53 49 49 48 49 50 48 49 54 57 60 52 39 49 53 54 58 64 69 75 77 78 83
52 50 53 51 52 52 50 50 44 47 43 46 53 59 57 65 62 60 59 54 56 49 48 48 51 50 50 56 60 59 55 46 47 57 58 58 63 68 74 81 80 86 88
58 54 50 56 57 57 58 57 50 46 51 59 64 63 65 67 68 63 52 50 47 49 48 51 55 54 59 62 60 56 51 51 57 64 65 62 72 77 82 84 85 86 83
61 61 65 60 61 63 58 52 55 56 63 64 67 66 68 69 59 52 47 48 47 51 53 54 57 57 57 57 48 40 46 49 55 62 63 70 78 82 88 90 88 86 77
60 62 65 65 64 61 59 62 64 65 66 69 73 72 72 63 53 49 48 49 52 55 57 57 60 54 43 41 49 51 52 61 60 62 67 70 82 87 92 94 88 78 69
56 56 58 59 60 60 63 65 66 70 74 73 71 73 64 58 52 49 51 47 51 57 58 52 50 49 49 49 52 48 57 64 65 67 71 79 87 95 94 84 77 70 67
59 61 60 62 65 67 68 72 72 73 74 77 71 62 59 57 50 47 47 46 51 49 48 50 54 54 49 55 59 65 67 70 70 74 78 90 100 98 86 73 71 71 71
62 64 66 67 67 70 71 71 72 69 71 62 62 58 54 53 53 46 44 41 41 41 49 50 51 56 57 60 65 67 73 76 73 76 89 99 92 80 73 69 70 72 75
61 62 63 66 67 68 68 69 65 62 61 58 58 53 55 55 51 51 44 48 50 52 52 56 62 64 65 70 70 71 74 79 85 90 96 84 75 76 68 71 72 73 76
56 57 57 61 62 63 59 55 57 58 59 60 54 54 54 52 52 50 54 50 50 50 52 58 65 63 68 69 73 74 75 84 91 84 85 77 81 78 78 78 79 78 81
51 53 54 55 56 55 57 56 58 59 58 57 56 55 53 54 54 52 49 51 53 51 53 62 62 69 69 72 75 78 81 92 89 81 82 81 82 81 82 82 81 82 86
52 52 53 54 54 54 55 55 57 58 58 59 59 55 54 51 55 51 53 52 52 54 56 63 62 69 72 78 81 84 91 89 87 82 85 83 80 82 86 87 86 85 89
46 49 51 52 55 55 56 57 59 63 63 61 59 57 53 56 56 53 53 54 53 58 62 63 67 71 74 80 84 89 87 86 84 84 87 84 85 87 89 89 88 89 91
52 53 52 54 54 55 58 57 59 59 61 62 59 55 59 61 58 54 55 56 58 61 63 65 70 74 82 84 91 81 81 83 81 78 81 83 86 89 91 92 92 94 96
38 45 50 54 56 57 57 57 58 59 59 60 60 59 64 55 55 54 55 57 60 62 66 70 74 81 79 77 77 76 76 79 82 85 84 88 91 92 92 92 96 98 99
25 34 40 45 47 49 51 51 52 55 59 61 60 56 56 58 58 56 57 60 66 64 63 62 63 66 68 66 72 75 78 83 88 88 88 91 91 92 95 97 100 102 104
25 25 26 33 42 45 49 52 54 55 56 55 55 54 55 56 52 50 53 54 57 61 61 57 62 64 67 70 75 78 80 84 85 86 90 93 96 97 99 99 103 108 110
31 30 29 29 31 33 35 40 42 46 47 49 50 49 46 49 51 52 55 58 60 60 60 67 69 72 75 78 80 83 84 87 89 91 94 98 102 102 104 106 109 113 115
37 38 38 38 39 38 38 37 38 40 41 43 45 46 49 54 55 57 59 60 62 67 70 72 74 76 80 81 86 89 91 94 96 97 99 101 105 106 108 112 115 118 120
42 44 45 47 47 46 46 45 45 47 47 49 52 53 56 57 62 63 65 69 72 74 75 78 81 85 87 88 92 95 98 99 101 102 105 105 109 109 112 117 120 121 122
50 50 50 53 52 54 54 54 54 54 55 56 60 63 66 68 71 74 77 78 80 82 83 86 89 90 93 95 96 99 103 104 105 108 110 109 112 113 115 121 122 122 121
57 57 56 55 58 58 61 63 64 65 66 67 69 71 74 78 81 83 85 87 87 88 91 94 96 97 99 102 103 106 107 110 112 114 115 114 116 121 119 117 119 122 124

GFSMA_250_spd_057.txt.gz
Wind_Speed
33 28 32 36 35 41 41 40 36 33 31 36 40 38 41 35 33 35 39 44 45 48 44 46 48 52 47 49 49 49 50 51 48 48 42 45 51 53 52 51 45 44 43
32 39 36 36 42 42 34 30 29 31 35 37 37 37 32 36 37 42 42 46 47 50 48 51 56 50 50 51 48 50 53 49 51 48 49 51 52 52 50 45 51 47 44
37 39 40 36 43 40 34 33 32 36 35 35 36 32 36 43 45 46 45 49 51 56 57 55 55 52 51 50 51 53 54 53 52 48 53 60 53 55 47 49 55 56 54
40 40 44 45 38 37 40 39 39 41 39 37 39 42 46 53 53 46 49 55 57 59 61 61 55 52 53 53 54 55 50 53 49 54 55 56 56 50 55 56 62 60 64
48 42 42 45 47 48 43 46 43 46 46 46 46 51 56 58 51 51 58 61 63 61 62 58 53 52 55 55 56 54 55 53 56 64 64 60 61 58 58 57 61 61 66
47 42 43 48 49 49 50 48 47 52 55 55 57 58 56 50 53 59 62 64 66 68 62 58 54 53 54 53 56 58 57 58 61 59 52 49 46 43 49 58 69 67 77
45 47 40 43 46 48 50 53 54 57 59 58 59 59 57 55 60 63 66 69 66 67 61 54 54 53 55 54 54 54 57 59 55 54 52 52 53 60 64 70 75 79 82
54 49 53 49 52 51 56 60 60 57 59 62 64 64 62 63 66 67 70 72 69 66 59 52 51 55 56 61 58 59 59 53 41 44 45 52 58 58 64 72 81 80 80
57 55 57 60 59 62 65 64 64 66 65 66 63 63 66 68 68 74 74 74 66 57 51 48 50 52 56 56 57 53 51 52 57 60 51 51 58 63 71 75 81 78 78
53 62 63 60 66 63 62 64 66 67 66 65 64 66 69 72 77 77 70 63 58 50 52 49 49 52 54 51 47 51 48 49 41 53 66 60 61 64 74 75 85 78 78
59 57 59 57 61 63 63 64 64 63 66 66 69 72 77 77 75 68 62 61 52 54 49 50 49 51 51 47 57 50 47 51 50 52 53 57 60 65 76 80 83 81 77
55 57 59 59 61 63 61 62 64 65 67 74 75 74 74 74 69 64 62 56 51 51 51 49 52 51 52 47 48 50 53 56 56 56 62 67 70 76 87 86 82 83 80
57 58 59 59 61 63 64 66 70 73 75 74 73 74 73 70 66 64 62 58 53 54 50 52 53 52 51 49 51 53 56 59 61 62 64 73 75 85 83 85 84 81 78
66 66 68 69 70 72 74 74 72 71 71 72 70 65 63 62 63 61 60 59 59 55 54 56 52 50 50 51 54 59 58 62 66 69 76 82 82 89 88 85 78 80 81
70 70 70 72 70 71 69 69 68 68 63 60 61 62 64 66 64 60 64 61 61 59 59 57 54 54 54 56 57 59 65 67 73 78 83 84 84 81 82 79 82 84 86
70 69 71 70 66 65 62 60 61 62 62 62 60 63 62 61 62 66 65 64 63 62 58 56 55 57 59 57 56 60 66 69 70 77 81 85 83 78 78 78 78 82 85
63 62 67 68 64 62 61 60 59 62 59 60 62 62 63 66 67 64 64 65 64 61 63 60 60 61 60 56 62 66 71 72 75 80 72 74 76 75 79 81 84 88 89
39 45 52 59 60 60 60 60 60 61 59 60 61 63 63 62 61 63 67 67 67 70 69 66 65 62 57 63 66 71 69 74 69 69 72 77 80 82 85 88 91 93 94
27 29 31 38 43 47 52 57 59 62 64 64 64 64 64 65 64 67 66 70 71 68 68 66 63 64 69 74 75 70 64 66 70 73 76 80 82 85 88 91 94 95 98
24 23 24 25 27 31 34 38 44 49 52 54 57 61 65 69 68 69 70 68 66 65 64 61 57 57 59 61 63 63 67 74 75 79 81 85 86 89 93 96 99 102 106
27 27 28 29 26 25 27 29 32 35 36 44 51 55 57 59 60 62 63 63 61 55 55 53 57 59 63 63 67 72 76 79 81 85 87 93 95 96 100 103 105 107 112
38 35 33 34 37 36 36 39 38 36 39 37 35 36 37 41 45 47 49 51 54 57 59 62 64 68 70 73 77 80 83 87 91 94 96 99 102 102 106 109 112 113 116
44 46 45 42 43 40 43 46 45 45 42 47 48 47 49 50 52 54 56 58 61 65 67 72 74 78 81 84 88 90 93 94 95 98 103 103 105 108 113 115 116 116 119
49 51 52 51 50 50 50 50 52 53 50 47 52 54 56 58 59 62 64 67 70 73 76 79 81 84 88 89 92 95 97 97 100 105 108 111 114 114 117 119 122 121 118
55 57 54 54 57 60 61 59 60 59 58 57 57 59 62 64 64 67 69 71 73 75 79 84 88 91 94 97 98 100 102 103 106 109 113 114 116 118 120 122 121 121 124
61 62 61 60 61 62 59 61 62 61 63 65 63 68 68 70 71 74 77 80 82 84 87 89 91 95 97 100 103 104 106 108 110 112 117 118 121 122 121 122 121 123 125

GFSMA_250_spd_060.txt.gz
Wind_Speed
42 44 38 38 35 38 36 31 35 36 42 34 37 34 32 32 35 39 37 33 34 43 41 50 46 48 50 55 53 53 51 52 53 54 51 51 54 53 51 50 55 56 53
40 42 36 38 36 34 33 29 39 41 36 36 29 32 29 32 36 39 34 38 45 48 47 50 52 55 56 60 58 54 52 56 54 52 52 53 53 55 53 54 58 55 53
40 39 37 35 33 31 25 40 39 32 31 27 29 27 33 33 35 40 38 43 44 45 50 52 56 60 60 62 57 56 54 54 55 54 58 54 54 54 56 57 58 50 53
39 42 39 36 35 35 36 43 44 40 39 31 32 37 37 36 40 45 44 51 54 53 54 57 60 64 65 62 60 55 54 56 55 55 57 58 59 58 60 63 55 46 50
40 37 32 32 37 35 43 45 46 37 37 38 38 42 41 45 50 47 51 57 58 55 58 63 64 68 69 66 62 56 55 56 55 59 57 57 55 52 52 57 53 55 60
36 34 34 37 40 37 32 37 35 35 40 41 42 46 48 49 50 54 60 60 61 57 61 66 67 70 70 66 57 54 56 59 52 52 56 57 57 58 52 49 57 66 64
39 38 41 43 45 42 37 37 41 44 46 48 49 51 49 49 58 58 57 58 59 60 66 68 70 71 66 57 51 54 55 52 60 61 60 55 53 53 57 59 51 48 46
43 44 45 45 44 44 40 39 42 46 52 52 54 53 56 61 63 61 62 58 62 65 67 72 74 70 56 52 50 52 57 57 60 57 54 55 54 44 55 67 69 68 58
44 44 45 48 45 45 42 43 50 54 54 57 60 62 64 66 64 65 63 62 65 68 74 71 67 59 53 53 53 52 53 54 55 52 56 57 49 52 53 39 37 46 58
44 48 48 49 54 51 51 53 52 57 59 62 64 63 66 68 68 65 64 67 71 73 72 70 62 57 52 51 53 53 54 53 52 55 60 60 54 44 47 49 54 59 66
50 51 48 53 52 53 56 57 59 62 63 68 66 66 63 64 65 67 68 74 75 71 72 65 62 53 52 53 53 49 53 57 57 52 57 47 42 47 51 50 58 63 68
46 49 56 59 59 56 57 61 64 61 62 64 62 61 64 66 69 73 76 75 72 68 64 65 61 53 53 53 53 55 56 58 55 55 54 51 50 50 54 58 64 73 78
56 58 60 61 60 60 61 62 62 62 63 64 66 68 70 72 74 78 78 74 67 62 60 61 56 58 58 57 57 58 62 60 57 58 56 52 54 55 58 59 67 70 74
58 61 61 62 62 63 65 66 67 68 70 68 71 73 75 78 78 71 67 63 63 64 61 57 59 60 61 62 63 65 62 60 61 60 59 57 58 62 68 75 73 78 69
67 66 66 68 68 68 68 69 70 72 71 73 78 80 80 76 67 62 62 63 62 61 59 63 64 62 64 65 67 67 65 64 67 65 58 60 61 65 69 73 70 73 73
64 67 68 71 71 72 75 75 77 77 78 81 83 79 73 69 69 67 67 65 66 65 64 64 61 61 65 67 68 71 75 69 71 67 63 66 68 68 74 70 75 76 78
52 62 71 76 75 76 79 79 82 84 79 76 78 74 75 75 73 69 70 69 69 70 67 61 64 67 68 69 73 76 73 71 66 61 67 73 71 71 73 76 80 81 84
36 45 54 60 65 70 69 68 69 71 70 71 73 74 76 76 70 69 69 69 72 73 70 64 68 71 71 76 73 69 60 56 58 63 68 66 67 71 75 82 84 87 90
26 31 35 38 39 43 48 54 60 67 72 72 69 66 66 65 65 66 66 66 67 67 68 68 68 72 69 67 65 61 58 60 61 62 64 68 71 78 83 87 89 93 96
32 32 31 32 34 34 34 34 35 37 38 38 37 38 40 43 46 48 46 48 51 52 54 51 49 54 55 57 57 61 64 68 68 69 72 74 78 82 87 92 95 97 99
41 40 38 37 34 34 34 33 32 33 35 36 38 39 39 40 41 43 43 44 45 47 47 49 53 55 59 61 65 67 70 71 73 77 78 79 82 86 89 94 97 98 101
46 45 44 42 45 45 45 45 44 45 45 43 43 45 44 46 46 46 48 51 50 55 55 55 57 58 61 64 67 73 75 78 82 83 83 86 90 92 97 100 99 100 105
44 53 51 47 49 46 46 49 52 53 52 51 52 53 55 56 55 56 58 57 56 60 62 63 66 68 72 75 77 82 83 85 87 91 94 95 97 99 101 103 104 108 112
55 48 54 58 53 50 52 53 53 54 56 58 59 57 57 61 58 57 60 62 63 65 66 69 71 73 77 79 82 86 90 92 94 97 99 97 101 104 103 105 111 114 108
60 60 53 56 58 58 59 61 62 62 63 61 60 61 61 63 66 69 71 72 72 73 74 74 77 79 82 85 88 91 95 96 98 104 107 108 106 103 110 109 108 113 112
67 61 61 61 63 63 64 67 69 73 74 73 74 70 70 71 73 74 75 74 74 76 78 80 81 84 88 93 98 100 103 106 107 107 109 111 110 113 110 107 110 112 115

GFSMA_250_spd_063.txt.gz
Wind_Speed
55 49 42 36 42 37 32 36 37 37 35 24 30 40 35 33 32 34 34 32 31 31 29 32 36 37 43 47 49 51 57 60 62 58 54 52 51 51 52 54 55 55 54
38 34 31 23 28 29 37 36 44 41 36 30 40 40 38 29 34 31 29 32 32 34 35 35 41 41 47 51 52 57 60 64 64 59 55 52 51 53 54 55 58 58 60
42 30 32 27 28 32 37 39 42 36 28 29 38 41 38 35 30 26 30 30 36 38 40 39 45 44 51 54 56 60 64 67 62 57 54 52 51 54 56 56 57 58 56
46 37 37 38 32 32 38 39 37 34 25 34 34 32 34 28 27 30 32 37 42 44 43 46 49 52 56 56 57 62 70 67 61 55 48 50 53 51 50 51 56 51 55
54 37 36 36 37 38 42 38 33 30 34 39 34 31 30 31 30 32 35 38 43 44 48 51 52 57 58 60 61 65 70 68 57 53 50 52 51 50 56 55 55 49 50
57 49 40 37 41 47 47 42 33 28 43 40 42 34 30 32 35 37 39 41 44 45 54 53 55 58 59 62 66 71 70 63 53 49 52 52 57 60 58 55 54 57 58
51 44 42 44 51 47 47 39 38 39 39 44 40 39 37 36 38 43 41 45 49 54 55 60 61 57 60 64 70 70 64 58 50 51 52 54 55 55 54 55 57 59 58
52 49 43 50 49 46 45 40 41 43 39 42 47 48 45 43 43 42 48 53 57 58 60 62 60 61 66 70 70 66 61 60 52 49 50 50 51 55 55 55 55 60 55
48 46 48 48 48 44 40 41 41 40 43 45 49 53 51 49 45 50 52 58 62 64 62 64 63 65 69 72 69 65 64 53 49 47 48 50 52 53 56 58 61 50 58
38 48 49 45 45 45 40 43 48 47 50 52 50 51 51 50 55 58 60 63 64 60 61 61 69 73 75 71 66 64 57 50 49 47 50 52 54 58 56 57 56 57 53
39 44 45 44 41 39 45 48 49 48 51 51 53 55 57 60 62 64 65 66 65 63 64 68 72 75 73 67 65 62 52 53 53 53 53 52 56 60 58 58 54 55 56
47 50 48 47 45 47 47 49 51 53 55 55 56 59 64 66 66 63 67 66 66 68 68 72 75 71 65 62 61 56 54 53 55 56 58 61 62 60 57 58 60 59 58
46 52 47 47 48 52 54 53 55 59 60 60 62 61 64 68 70 70 71 71 71 71 73 75 69 65 64 62 58 59 58 58 56 58 59 64 66 68 64 64 65 63 58
40 46 50 51 52 52 57 58 60 60 62 63 63 64 67 71 74 78 79 74 73 76 76 76 73 68 66 65 66 65 62 59 58 60 63 66 68 69 67 67 65 63 58
51 52 52 52 57 62 61 62 66 68 66 68 70 73 75 79 78 77 78 79 82 82 80 75 69 74 73 71 71 68 67 65 64 64 67 68 67 63 63 60 60 61 65
54 56 56 58 61 62 65 68 67 69 71 74 75 75 76 79 81 83 85 83 80 76 75 74 73 72 73 70 70 69 70 66 66 68 71 66 64 60 57 58 61 65 66
45 53 59 63 63 66 67 71 73 73 74 73 78 81 84 84 83 83 84 82 82 80 77 80 75 70 70 70 70 67 66 65 69 69 62 61 58 58 63 66 67 69 72
29 36 40 38 42 50 62 72 76 76 79 77 74 70 75 74 74 75 77 80 83 84 80 68 63 61 60 60 61 59 59 59 56 55 56 56 60 64 68 71 74 77 77
32 32 33 32 33 35 37 40 43 46 48 52 54 55 55 53 53 53 50 49 48 45 43 42 42 42 45 47 49 48 50 53 56 59 61 63 65 67 71 75 78 80 82
33 38 42 42 40 40 39 37 38 39 40 40 41 41 38 37 38 42 42 43 42 41 44 43 43 43 45 49 52 54 55 58 60 63 66 69 71 71 73 77 81 85 86
42 41 38 41 44 45 46 46 45 43 42 41 42 44 46 46 48 50 49 50 49 51 53 51 54 54 55 56 59 60 62 66 68 71 73 74 77 80 83 85 90 95 94
48 46 49 48 50 46 46 53 55 54 53 52 52 53 55 55 58 56 55 57 59 61 62 62 61 61 62 62 65 67 69 72 76 77 80 85 83 87 91 95 98 97 97
50 51 56 56 56 55 54 54 53 57 55 56 56 57 57 58 59 63 65 66 67 64 65 65 63 67 69 71 72 71 73 76 79 79 79 84 91 94 97 99 100 101 100
58 59 60 59 59 55 60 61 63 60 60 63 62 62 64 67 66 67 68 68 69 70 70 73 76 77 77 76 77 77 78 80 85 86 88 91 98 100 103 104 103 98 96
63 59 63 67 66 66 67 69 64 60 59 59 59 63 66 69 71 71 74 76 76 79 79 81 82 82 79 79 85 81 83 85 88 92 96 98 103 105 105 99 99 100 98
67 64 65 68 72 71 68 64 67 67 71 71 66 68 72 76 79 81 82 82 82 85 84 83 86 86 85 85 91 93 93 94 98 101 104 108 106 104 100 98 99 101 106

GFSMA_250_spd_066.txt.gz
Wind_Speed
51 55 46 41 34 33 27 32 39 41 37 39 37 34 35 30 33 35 33 36 36 38 33 29 24 25 30 33 37 40 47 47 50 52 58 62 63 63 54 49 48 51 51
49 52 53 52 44 27 28 30 35 39 43 38 37 35 30 34 33 37 40 40 37 32 33 33 29 31 35 35 39 44 52 53 52 54 61 66 66 61 53 51 50 52 50
50 53 51 46 32 32 24 23 31 38 34 39 43 34 24 32 41 38 34 35 33 30 32 33 34 37 36 41 44 46 52 51 52 57 64 66 65 58 53 50 52 50 49
47 51 54 47 40 29 30 28 33 37 42 41 42 36 27 39 34 36 34 34 32 31 29 32 33 36 41 43 47 51 53 53 56 62 66 63 61 58 51 49 49 55 54
42 38 41 46 41 45 39 33 32 42 40 45 45 40 24 35 43 38 35 31 25 29 30 33 36 39 43 46 52 56 54 57 60 64 67 64 60 55 47 49 52 50 49
50 51 50 44 41 36 39 37 34 39 42 44 42 45 31 34 34 36 35 33 30 34 35 40 41 43 47 52 57 57 57 60 63 67 68 63 60 55 47 49 48 49 50
55 49 50 45 42 39 34 39 39 41 42 46 47 46 36 41 42 39 38 39 37 38 41 44 47 50 54 58 58 60 61 64 67 74 68 63 60 50 48 49 47 48 50
60 61 53 55 48 44 40 40 43 49 47 49 43 41 38 45 48 45 44 44 41 43 44 48 53 56 59 61 62 61 64 65 70 69 64 61 50 48 48 46 48 49 51
48 51 55 55 52 50 40 43 52 52 46 48 47 48 51 47 57 52 52 52 51 50 51 53 58 63 63 68 67 65 66 68 73 67 64 57 53 48 48 52 51 51 53
55 51 51 53 59 53 48 49 52 49 50 49 47 46 53 54 51 53 56 55 56 58 58 61 64 65 69 70 70 69 69 74 67 63 59 56 55 52 51 52 52 51 54
43 46 51 52 52 50 47 50 50 50 47 50 47 44 47 51 53 52 51 54 57 61 67 68 69 70 70 73 72 71 74 74 67 61 59 59 59 60 55 55 54 57 58
33 36 44 46 44 43 46 45 48 46 48 48 51 51 55 55 57 56 57 60 61 63 65 72 75 77 77 74 74 76 79 69 64 64 62 63 62 61 56 57 58 63 62
31 33 36 38 34 44 48 45 45 47 47 51 57 58 59 59 60 62 64 64 67 70 70 74 76 80 78 77 81 81 72 67 65 67 68 69 62 60 59 60 62 64 67
38 39 36 39 40 43 53 52 50 53 55 58 61 61 62 63 66 67 68 70 70 70 74 77 78 79 80 84 81 74 71 66 69 69 66 65 64 63 61 62 65 68 65
40 42 41 45 44 46 51 51 53 53 54 56 60 65 64 66 67 69 69 73 73 77 75 79 82 86 86 83 76 71 70 68 66 68 67 66 64 62 63 66 70 66 62
45 48 50 47 48 54 54 56 57 58 58 61 65 66 67 70 70 74 78 79 78 78 79 85 84 81 78 74 75 78 77 74 69 63 59 58 58 61 62 61 59 56 56
24 25 42 51 48 53 57 59 61 62 66 67 68 71 75 77 78 80 81 82 83 84 82 80 77 76 76 73 67 62 58 56 54 53 53 52 51 52 53 56 59 62 64
26 29 28 28 33 43 53 60 66 69 72 75 77 77 79 79 81 80 82 82 78 78 74 63 49 47 45 44 45 45 45 46 48 49 49 50 53 56 58 62 64 66 68
26 27 28 30 35 35 35 37 39 42 46 48 49 49 52 52 54 56 55 55 52 48 45 41 43 47 46 50 51 52 52 54 56 60 60 59 60 61 65 69 71 73 75
32 33 34 34 35 33 33 36 42 44 44 46 48 49 51 51 51 51 49 49 49 48 50 49 48 50 49 55 59 60 60 63 66 67 67 67 67 69 71 74 75 79 83
38 39 39 38 38 39 43 44 43 44 45 45 47 51 55 59 60 61 60 60 59 57 58 58 57 58 59 63 65 69 68 69 69 69 71 73 77 79 78 79 80 80 86
47 46 45 44 45 45 46 53 55 56 54 52 51 48 51 53 58 62 65 65 65 65 63 62 62 62 62 63 67 71 72 74 75 79 81 78 79 78 81 83 86 88 91
54 53 53 52 52 53 53 56 62 58 55 53 57 59 60 63 61 58 60 60 61 61 62 64 65 65 67 69 72 75 76 78 79 80 81 80 79 83 87 89 93 92 96
58 58 61 60 56 55 57 55 59 64 64 61 60 59 65 66 59 63 68 66 70 70 67 69 73 76 76 75 77 79 81 84 82 78 75 78 82 87 91 95 98 99 97
64 63 64 62 62 62 60 64 63 67 70 71 68 68 67 66 67 70 72 74 75 75 75 77 82 76 77 80 82 82 81 84 80 77 83 92 92 93 97 101 100 100 99
65 64 63 64 67 68 68 67 70 75 75 72 71 71 72 71 74 74 76 79 83 84 81 85 84 87 89 85 78 78 69 85 79 86 90 97 99 104 105 109 109 106 109

GFSMA_250_spd_069.txt.gz
Wind_Speed
51 48 39 43 31 25 10 19 28 33 31 32 34 31 37 29 25 24 26 34 29 34 33 34 36 33 31 28 29 29 31 34 38 41 46 49 53 55 56 59 59 53 52
60 55 44 46 34 32 30 21 26 30 32 31 30 32 40 24 31 31 23 32 29 35 38 38 38 33 33 33 31 33 33 37 42 47 49 52 57 55 59 65 61 55 54
51 42 54 51 46 46 41 29 32 27 25 29 30 33 31 35 33 36 29 32 31 38 39 34 34 35 34 26 31 38 40 41 46 49 52 56 58 59 61 66 59 57 55
61 49 47 44 44 40 37 25 20 22 28 34 41 35 33 34 33 35 27 35 37 34 32 31 32 34 32 32 33 35 40 44 49 52 56 61 60 63 63 68 59 58 56
54 58 53 44 46 42 40 36 35 32 37 32 40 36 36 37 36 39 28 36 37 39 34 29 30 34 33 35 39 42 45 48 53 53 61 64 64 63 66 66 62 58 52
48 51 52 55 46 39 38 26 31 33 37 38 42 43 44 43 39 37 36 38 44 36 35 33 33 36 36 39 44 47 50 55 58 59 64 68 66 65 68 64 59 58 53
52 53 57 49 44 43 46 49 47 39 39 41 45 49 47 47 46 42 31 32 46 39 40 42 40 43 45 45 48 51 55 59 62 63 66 70 66 67 70 63 59 58 55
50 51 48 51 53 52 47 43 41 37 32 40 45 45 43 41 48 48 39 41 47 45 46 40 44 50 50 52 54 57 60 64 65 66 69 68 66 70 72 66 60 54 53
50 52 54 55 54 54 54 54 51 42 45 39 45 42 42 48 52 53 55 51 54 54 47 49 54 56 55 59 62 62 65 69 69 71 75 69 70 73 69 64 59 55 54
52 52 51 47 51 54 53 50 52 52 52 43 47 47 49 54 52 56 59 56 55 56 53 53 55 59 63 66 63 66 69 70 71 74 70 70 74 73 66 61 60 57 58
58 58 54 54 50 51 49 45 50 44 43 45 50 51 54 53 56 52 53 50 50 52 54 59 61 60 63 64 66 69 70 73 75 74 74 76 78 70 63 58 59 66 63
34 35 42 46 40 43 44 45 46 40 38 40 46 50 49 48 50 55 49 48 54 58 62 65 67 65 65 68 70 70 74 74 74 78 82 80 71 64 60 66 64 61 58
29 32 30 31 33 34 36 36 35 33 36 36 41 50 50 51 50 52 55 57 61 64 65 66 68 69 71 70 72 75 78 77 80 82 78 71 67 66 69 68 65 61 60
28 34 35 35 33 33 31 34 34 37 38 43 43 46 49 51 53 55 61 66 67 68 69 70 73 75 75 75 80 79 81 84 85 79 70 71 73 71 67 63 61 59 61
24 30 30 34 36 39 39 37 37 37 43 48 49 49 52 54 55 61 64 66 70 72 72 75 75 78 80 82 82 84 86 84 79 73 72 69 64 64 61 59 59 59 60
14 14 19 33 44 43 42 40 42 42 47 53 55 56 61 64 65 67 69 66 68 70 71 81 83 83 82 85 89 85 77 73 69 64 56 52 49 48 49 48 51 52 52
20 19 18 20 21 30 43 44 47 48 50 52 57 60 61 63 67 68 71 73 74 77 78 83 85 85 80 76 72 70 60 55 52 51 51 51 51 52 53 57 61 60 61
23 23 20 19 18 21 26 30 41 49 53 54 53 56 60 65 66 69 72 75 71 69 65 57 58 58 55 52 54 55 54 53 52 54 54 57 58 60 64 66 67 67 68
24 26 26 26 24 24 24 26 29 31 34 35 37 41 43 45 48 50 50 49 51 51 50 50 50 53 54 56 57 58 58 58 60 63 65 64 65 66 66 65 65 69 72
30 31 33 32 32 32 32 29 30 32 34 36 38 41 43 43 46 46 46 47 47 49 51 53 54 58 60 62 65 64 62 62 63 66 66 65 69 71 73 73 75 77 79
34 35 38 41 40 39 40 38 38 38 40 42 44 44 45 47 48 48 47 52 54 51 51 52 52 56 59 60 63 66 64 65 64 70 70 72 74 75 77 79 80 80 78
41 41 42 44 45 47 47 46 46 47 48 48 47 48 50 48 49 54 52 55 59 59 59 61 53 57 56 57 59 66 68 69 74 72 71 73 77 80 80 81 80 79 71
47 46 46 47 48 51 55 53 51 52 55 55 54 54 54 54 56 57 61 61 63 61 60 62 61 62 65 69 68 69 75 80 79 80 80 82 83 77 80 73 76 64 71
53 51 52 53 53 53 58 58 58 57 59 60 60 61 60 58 60 65 66 66 63 65 66 68 68 69 73 72 75 75 76 78 82 85 85 89 86 86 79 75 78 80 81
57 58 58 61 59 58 61 61 64 67 64 63 65 68 69 68 69 68 72 70 68 71 70 71 72 76 76 80 80 79 82 83 85 83 83 87 86 81 78 72 82 96 93
64 64 64 61 60 62 66 67 69 71 68 70 72 73 74 73 73 72 75 77 76 77 79 77 76 78 81 81 81 85 91 88 88 92 93 94 91 86 85 88 84 88 94

GFSMA_250_spd_072.txt.gz
Wind_Speed
54 53 49 40 35 36 37 30 14 18 23 23 26 30 27 23 28 30 31 29 25 20 27 33 33 36 35 32 32 30 31 29 31 32 33 37 40 41 44 50 57 54 53
54 47 50 42 36 32 27 25 19 23 16 20 18 19 19 23 25 31 36 29 21 19 31 28 30 35 36 31 30 29 32 32 35 36 33 37 42 43 47 52 56 55 51
58 51 53 42 42 37 34 35 33 25 26 32 23 26 22 19 25 29 43 36 24 23 27 29 33 36 31 32 34 33 28 29 31 34 36 40 44 48 51 54 58 54 51
58 53 53 52 45 42 41 40 41 34 31 22 19 21 19 19 21 32 38 30 31 29 25 33 37 38 38 34 32 35 32 33 35 38 41 45 49 52 54 56 58 55 54
51 54 51 51 43 47 46 41 36 33 27 27 24 25 30 27 26 29 30 33 39 35 27 32 40 37 35 33 34 34 35 37 40 41 45 49 51 55 58 60 63 63 58
47 58 50 52 52 37 38 41 38 37 33 29 25 24 29 32 35 35 35 39 39 43 30 33 40 39 39 34 34 39 43 41 44 48 53 56 57 59 62 63 65 61 59
40 52 46 54 53 48 46 45 44 35 32 35 34 40 32 32 37 42 43 44 44 41 43 35 39 41 41 43 40 44 45 45 51 60 63 58 59 59 63 65 66 64 64
36 43 44 43 51 53 50 45 44 42 39 39 35 33 38 43 42 50 52 51 53 47 43 40 41 47 45 44 44 52 54 58 60 61 59 60 59 62 67 68 66 67 65
32 39 43 44 45 50 48 49 48 47 51 47 45 42 40 38 46 49 52 49 49 54 48 42 43 46 46 47 53 55 58 60 63 62 60 61 63 67 70 69 68 69 66
33 36 40 42 44 46 49 49 53 49 46 51 51 51 52 47 47 50 50 49 51 51 54 57 51 51 55 59 63 65 66 63 66 65 65 66 69 72 72 74 71 67 58
36 42 46 45 47 50 48 46 43 42 42 43 44 44 42 45 47 52 47 46 50 51 54 56 51 50 52 59 64 64 66 67 68 68 70 70 74 73 75 75 74 67 58
28 41 44 43 48 48 48 47 47 48 44 48 46 49 44 43 49 52 48 50 51 52 52 55 56 57 58 61 64 67 67 71 72 72 75 75 78 80 81 80 70 63 63
23 28 32 36 37 39 43 40 39 43 44 47 46 45 42 42 42 41 42 46 48 51 55 59 62 62 61 63 67 71 73 75 76 78 80 80 83 84 79 70 63 61 57
26 23 25 28 30 31 33 35 35 36 34 32 32 36 40 42 42 41 44 48 49 52 55 56 59 63 67 70 71 73 78 77 79 82 83 85 80 73 63 55 51 50 46
21 30 28 25 34 36 36 35 33 33 30 31 33 35 37 39 42 42 46 49 48 50 57 63 66 69 73 75 75 73 75 81 79 81 70 64 61 51 50 50 49 49 51
5 7 15 25 35 35 38 39 40 38 37 36 36 38 40 42 44 46 47 49 52 58 61 67 70 70 71 72 73 74 71 65 59 57 54 53 50 50 51 51 52 55 57
9 10 9 9 9 14 21 22 26 35 43 42 42 43 45 46 50 56 56 58 59 60 61 66 69 66 60 58 56 53 53 53 52 54 53 53 53 56 57 58 60 59 59
16 16 15 16 16 15 15 15 15 19 24 25 26 31 39 43 47 49 48 52 54 53 50 46 51 53 53 53 53 53 53 55 56 57 58 57 57 58 59 59 61 63 63
23 21 21 21 24 24 25 25 26 23 25 26 26 28 28 29 31 31 31 34 37 40 39 40 44 47 49 51 51 51 53 53 53 55 56 57 59 60 61 62 65 62 63
30 29 28 28 28 31 33 35 34 33 33 33 32 33 35 36 37 36 37 36 40 41 41 39 41 47 53 53 54 56 55 54 53 54 56 60 59 62 65 71 71 74 73
37 35 36 35 34 35 36 38 40 41 42 38 37 41 42 42 43 46 44 45 44 41 41 38 41 46 50 55 56 59 57 61 62 62 64 67 69 70 73 76 75 80 81
42 41 42 43 43 43 44 42 42 45 45 46 46 47 48 47 49 48 48 50 50 46 46 49 51 50 53 54 57 59 61 64 63 70 70 71 70 74 76 76 77 76 77
47 46 47 48 49 51 51 49 48 47 46 49 51 54 56 56 53 54 55 54 56 59 57 56 56 58 57 59 59 62 64 70 71 69 72 74 74 76 75 78 79 80 81
52 52 52 54 55 56 56 56 56 56 55 54 55 57 59 60 59 59 59 58 58 61 58 61 62 60 59 62 67 66 69 70 70 73 76 80 77 78 78 80 81 83 88
59 58 59 59 60 61 60 61 63 63 63 62 63 64 66 62 61 64 68 66 66 68 67 70 74 71 67 64 69 73 71 77 76 79 74 78 82 82 85 87 84 87 88
64 64 64 64 64 65 66 69 69 70 70 70 69 69 70 68 68 71 72 73 73 79 79 78 81 82 78 79 78 79 83 81 77 87 86 82 83 88 93 84 93 92 95

GFSMA_250_spd_075.txt.gz
Wind_Speed
57 54 49 47 46 44 42 34 31 31 27 22 28 23 22 29 26 14 21 22 30 28 26 25 26 29 28 32 33 36 32 28 29 27 28 33 30 26 31 36 42 44 44
62 64 54 51 51 50 47 38 37 27 27 26 22 24 21 14 12 11 13 21 30 32 28 29 21 25 32 35 31 34 31 30 26 29 27 23 29 30 34 40 44 46 46
61 65 61 55 51 52 51 45 43 30 30 27 27 22 21 14 10 9 14 19 24 34 34 22 22 26 30 30 33 36 33 32 30 31 29 30 32 33 38 43 44 45 46
62 64 62 55 52 48 41 32 32 32 34 34 32 26 20 27 20 17 17 21 26 31 40 30 27 23 26 31 33 38 37 32 31 33 35 36 35 39 48 45 45 45 49
52 64 64 61 46 51 49 45 36 36 36 33 30 22 19 21 26 22 18 22 29 31 36 40 34 27 27 34 40 40 39 33 31 36 39 38 42 47 48 46 49 50 53
43 48 66 59 48 50 47 46 44 41 37 34 28 27 29 25 22 26 21 25 28 33 37 41 39 40 31 32 37 40 40 38 38 39 40 43 47 48 52 53 53 54 57
43 38 44 59 56 51 52 52 47 40 38 35 38 36 36 32 37 33 29 29 29 33 40 43 43 42 43 37 37 40 41 42 45 47 50 51 50 56 58 60 60 58 60
33 31 37 46 47 51 53 49 49 44 41 38 41 38 34 40 34 32 37 33 37 38 41 46 46 48 50 50 51 44 44 45 45 49 54 55 58 63 64 64 62 61 64
29 33 35 41 44 47 47 49 49 46 47 49 45 47 49 46 45 44 45 44 43 46 49 51 57 51 54 50 53 48 45 50 51 56 59 63 65 64 65 67 65 67 68
30 33 37 37 38 40 42 43 44 48 49 50 46 43 47 46 45 50 48 45 45 48 51 53 52 47 49 48 54 55 55 56 58 64 65 64 65 65 70 69 70 73 72
29 36 37 36 39 42 41 41 44 50 49 49 49 47 46 48 50 48 48 45 48 50 53 51 44 45 48 52 55 56 59 62 62 64 66 66 66 73 68 73 73 77 73
27 27 26 35 41 42 43 43 46 47 48 44 47 44 44 47 47 47 50 50 51 54 54 45 42 46 52 55 56 59 60 61 66 66 66 67 69 68 69 72 73 68 55
33 36 36 38 39 41 43 46 48 49 49 49 50 49 50 50 51 51 53 55 53 53 56 51 50 52 55 58 56 58 61 62 63 66 67 67 70 73 73 73 64 53 43
34 32 33 34 44 55 55 53 53 56 55 52 52 49 46 49 48 47 47 48 48 45 44 51 52 51 53 56 57 58 61 64 68 67 71 75 73 69 61 53 46 45 44
31 29 26 24 26 28 31 36 38 37 36 37 39 37 36 34 36 35 38 40 43 45 44 46 47 49 50 54 59 62 65 69 71 71 71 66 58 52 45 45 47 49 49
15 25 32 31 33 34 34 33 37 37 37 39 40 39 39 40 42 42 41 41 40 41 43 49 52 53 54 58 63 66 68 68 63 60 56 54 51 49 49 49 49 50 50
13 16 16 19 24 27 28 33 37 41 45 48 49 48 46 43 42 43 44 45 48 49 50 57 57 59 62 65 61 56 55 53 55 56 58 57 55 55 52 51 49 49 52
17 16 16 18 22 22 21 21 25 30 31 28 30 35 40 44 49 52 54 55 57 58 56 52 50 49 48 50 50 50 50 47 49 51 49 48 49 48 47 46 46 51 53
24 23 23 22 23 24 24 25 25 25 26 27 27 28 32 35 39 42 42 41 39 40 38 38 43 44 45 47 47 48 50 51 46 51 52 54 54 53 53 54 54 57 60
33 32 30 29 29 31 30 29 29 30 32 33 35 36 36 35 37 37 39 41 42 41 42 41 40 45 45 49 47 50 49 49 48 50 55 56 56 57 57 59 60 60 62
39 38 37 37 37 35 34 36 37 38 38 40 41 44 45 46 44 44 45 47 47 47 47 46 48 46 49 53 53 56 53 58 56 58 58 58 60 60 61 63 64 62 64
43 43 44 44 44 40 44 43 44 45 47 48 48 48 48 50 54 54 53 53 55 55 53 54 51 51 52 56 59 59 59 63 61 71 63 61 63 65 67 65 69 70 69
45 46 46 46 47 48 51 51 51 52 54 55 56 55 54 54 55 56 57 59 61 62 60 59 57 57 58 58 57 58 62 63 64 70 73 70 69 77 73 70 71 74 74
50 50 51 53 55 55 57 57 57 57 57 60 61 62 60 61 62 63 64 64 67 70 69 68 66 68 66 65 66 66 67 68 70 71 72 75 74 81 79 74 77 75 80
59 58 60 61 62 61 61 61 63 64 64 64 65 64 64 67 70 73 72 72 71 73 73 75 74 75 71 69 69 72 71 72 73 71 72 78 80 80 81 82 84 81 84
65 66 68 69 69 66 66 67 69 70 72 72 72 72 70 70 73 76 77 77 79 80 78 76 76 78 79 77 74 73 77 80 82 81 78 77 87 87 91 80 90 97 98

GFSMA_250_spd_078.txt.gz
Wind_Speed
67 59 57 57 53 53 42 32 35 34 33 30 25 24 23 22 22 23 24 17 15 18 23 26 24 29 31 32 29 31 33 36 32 33 29 26 28 29 26 27 30 34 41
65 60 57 61 59 59 51 42 40 39 38 34 30 30 26 20 23 25 24 12 15 15 17 29 29 25 22 22 24 32 34 35 37 34 31 28 27 28 30 29 30 39 40
53 53 54 57 57 58 52 44 42 42 39 35 33 31 32 30 21 12 13 14 11 15 20 22 28 28 26 27 25 32 33 34 35 36 33 33 33 33 34 33 38 38 41
50 49 56 61 60 57 57 56 50 43 45 38 38 37 37 31 28 19 15 16 14 17 20 23 25 34 31 22 27 29 34 32 32 34 32 33 32 34 36 35 40 42 48
44 44 60 64 64 63 54 52 51 49 46 49 41 43 40 36 27 24 26 18 15 16 22 24 29 32 38 35 27 27 31 34 35 35 37 39 39 40 37 39 41 46 52
35 37 57 56 65 65 54 51 48 45 43 42 38 40 37 32 24 24 22 22 25 21 27 24 28 34 39 38 40 33 32 28 35 39 41 42 43 46 47 44 48 53 60
33 35 38 52 58 62 63 55 47 43 42 39 39 42 39 35 34 31 33 31 35 33 32 29 31 36 40 43 43 38 39 41 39 39 42 44 43 44 48 52 55 58 62
37 42 40 50 57 55 54 50 48 49 48 47 46 47 44 35 31 33 36 41 38 35 40 37 38 36 40 45 45 46 46 46 48 51 49 48 50 50 54 56 60 64 67
31 45 46 46 50 56 52 48 48 51 49 45 45 47 46 41 40 41 38 45 42 41 42 45 40 40 41 45 49 51 52 56 55 55 56 56 58 61 60 62 65 68 67
29 36 42 38 40 45 47 50 51 51 51 49 47 49 49 49 45 45 48 47 47 45 47 48 45 44 47 50 48 50 47 45 46 55 56 56 58 61 63 65 68 70 69
29 33 39 41 39 44 47 49 44 42 44 51 53 52 51 52 49 47 48 48 50 52 50 48 48 47 50 50 50 46 40 46 51 53 54 57 60 63 64 67 67 69 71
29 37 38 38 38 42 44 48 48 50 52 51 54 48 50 52 51 51 49 52 53 50 54 54 53 54 54 52 49 44 43 54 55 54 58 59 60 62 65 67 69 72 74
32 32 36 45 44 45 50 50 51 54 56 54 52 52 55 54 54 51 52 52 52 55 57 61 60 57 55 55 54 47 51 57 58 57 61 63 64 65 67 70 73 74 62
39 32 37 44 47 51 53 54 52 51 54 53 53 55 56 56 55 55 55 56 57 56 57 57 55 55 53 55 56 59 60 60 57 57 63 63 67 69 71 75 70 65 62
41 34 33 36 36 38 40 44 48 50 54 55 56 57 57 60 57 54 51 50 48 48 42 41 43 44 44 44 49 54 58 58 57 60 64 68 71 72 69 67 65 60 60
44 47 47 49 48 48 46 49 54 57 55 54 54 54 48 47 46 46 46 46 47 47 45 45 46 47 47 47 49 51 54 59 62 66 69 73 73 62 60 58 56 53 51
25 32 39 43 42 42 41 38 37 39 41 43 45 46 46 47 49 50 51 51 50 50 49 51 50 50 49 52 54 56 61 66 70 67 65 63 59 55 51 49 50 51 51
23 23 22 22 23 25 28 32 37 42 45 46 45 46 48 51 57 59 58 56 55 57 52 54 58 59 58 63 64 65 63 58 57 57 59 58 54 53 51 51 51 51 50
26 25 25 27 27 27 29 30 30 29 28 30 33 35 33 34 37 38 41 44 46 48 48 46 52 52 50 48 49 49 49 54 55 57 57 57 58 54 52 50 49 49 52
31 30 30 29 29 30 31 33 34 34 35 35 35 36 38 39 40 40 40 42 43 44 44 44 45 48 48 53 52 54 56 55 56 59 59 62 61 60 57 54 52 55 55
35 37 38 37 35 38 39 38 38 39 40 40 40 42 43 43 45 45 47 52 52 52 51 51 52 56 55 57 61 63 61 63 62 65 64 67 68 66 61 61 60 64 69
41 43 45 45 46 45 44 45 45 45 45 46 47 48 49 51 53 52 53 56 58 57 58 58 59 59 61 66 68 68 66 66 64 72 73 72 68 67 67 67 66 70 71
45 45 45 45 45 47 49 50 52 53 51 49 51 55 58 59 60 61 62 62 63 65 62 63 63 64 65 68 73 74 76 75 73 73 76 79 76 76 76 72 74 75 75
51 48 48 48 49 51 52 54 56 54 55 58 59 60 62 63 63 65 68 69 71 70 69 71 71 72 73 73 75 75 78 80 82 83 83 84 83 82 81 81 80 81 82
56 54 55 56 56 57 58 59 59 62 65 66 66 66 66 66 68 70 71 74 76 75 75 76 77 76 77 78 78 80 81 83 83 86 88 90 90 88 88 88 90 88 89
60 62 63 64 62 63 66 68 69 70 72 73 72 72 72 72 72 74 76 79 81 81 80 80 83 85 85 84 83 82 84 88 90 89 90 92 97 93 100 102 102 99 97

GFSMA_250_spd_081.txt.gz
Wind_Speed
65 67 58 64 59 51 51 45 44 39 32 28 26 25 25 28 22 23 22 25 26 21 15 15 20 22 22 24 25 30 29 32 33 36 32 35 34 35 31 29 28 30 30
59 70 73 53 61 59 50 48 46 39 34 38 34 30 28 29 23 22 26 25 31 23 13 12 13 23 27 23 19 18 20 24 31 36 34 37 36 35 29 31 33 36 32
53 64 76 68 56 57 56 53 52 54 47 40 41 31 32 33 26 22 22 26 22 17 11 13 17 15 20 27 28 25 27 24 28 34 38 40 35 35 35 36 35 36 36
46 48 68 74 64 55 57 57 57 58 46 42 42 44 36 40 34 33 29 25 19 15 14 13 15 23 23 22 29 32 27 28 28 33 34 35 35 32 34 39 39 39 39
47 55 60 71 70 57 59 55 57 57 54 50 43 40 36 35 38 40 40 36 31 25 20 15 18 19 25 25 27 29 27 27 22 26 30 31 31 33 39 44 43 41 42
45 48 54 64 62 58 56 57 58 54 55 47 46 46 40 41 40 44 39 32 28 27 23 21 24 26 27 29 32 34 31 32 34 32 33 35 33 37 41 44 47 44 47
40 42 48 50 59 58 59 59 55 57 58 55 55 51 50 49 47 48 40 29 29 30 33 33 29 34 33 32 35 39 39 40 38 39 41 43 43 45 46 48 52 52 56
39 40 43 45 56 59 67 62 60 57 52 50 49 48 47 43 44 46 43 36 31 32 35 33 31 35 39 40 38 40 42 41 41 41 44 47 50 52 55 58 59 61 61
35 41 38 39 50 59 57 61 65 60 55 46 46 46 43 42 43 49 42 42 37 37 39 39 38 36 41 43 45 46 44 44 47 49 46 45 50 53 56 56 58 61 62
34 35 42 36 40 51 52 52 55 59 56 52 50 48 47 48 50 52 49 46 47 45 43 44 42 43 45 46 49 46 49 47 48 51 50 44 49 51 50 54 57 60 61
30 36 44 45 42 40 50 56 51 46 48 52 53 51 50 50 51 48 49 49 50 49 50 47 48 49 50 53 54 53 52 52 51 49 44 42 53 54 56 59 61 62 62
32 34 37 46 46 43 46 49 49 49 49 50 48 53 52 53 58 53 53 54 55 54 51 53 51 52 50 49 54 58 57 56 55 52 50 51 54 57 61 60 62 62 63
33 33 30 29 40 42 39 49 50 51 48 50 51 53 57 58 62 57 57 60 55 55 56 55 54 54 56 54 57 56 53 54 56 57 56 57 58 63 62 61 62 64 66
31 28 31 35 32 37 35 40 47 49 55 53 58 56 59 60 55 55 58 59 57 58 60 58 58 57 58 59 58 60 55 50 53 54 58 60 61 64 66 65 65 67 71
32 27 28 31 35 39 39 43 45 48 54 58 57 55 59 61 64 64 60 60 60 64 66 63 57 55 58 59 56 50 45 46 47 49 50 53 60 65 66 67 69 71 75
37 34 35 33 36 44 48 50 54 56 58 57 62 62 68 65 62 59 59 63 65 61 58 58 58 53 49 49 51 51 51 52 54 54 55 56 59 63 66 69 75 73 68
45 41 39 37 37 44 49 54 54 53 55 56 55 58 61 62 63 61 63 61 58 57 52 55 55 57 55 52 54 54 53 54 57 58 60 61 64 70 73 71 62 61 61
48 45 47 43 48 48 44 49 53 56 57 59 61 61 63 61 55 53 54 55 52 53 55 60 63 63 61 63 63 61 63 67 69 70 70 69 62 59 59 57 59 61 61
27 35 45 50 50 48 54 53 53 54 55 55 53 51 51 52 52 52 54 57 56 57 56 55 59 57 56 54 53 53 54 52 53 53 53 56 60 61 59 60 61 61 62
31 29 30 32 33 35 37 39 39 39 38 38 38 38 38 39 40 41 43 44 46 48 47 46 49 52 52 56 54 55 54 55 57 59 62 65 68 70 67 67 65 66 68
37 37 36 36 36 35 35 36 37 39 39 40 41 42 43 44 46 48 49 52 53 53 53 53 54 58 62 63 62 62 61 65 66 68 69 72 74 76 73 72 73 74 76
41 41 40 41 42 43 42 43 44 42 43 45 45 46 48 49 52 53 54 57 59 58 59 62 62 62 63 65 68 69 69 70 70 76 73 76 76 76 75 74 75 80 82
47 46 45 46 47 48 48 49 50 49 50 52 53 54 54 55 57 58 58 59 60 62 63 65 64 66 67 68 72 74 76 77 79 80 82 83 86 87 85 83 81 80 81
54 53 54 54 54 54 53 52 50 52 53 53 55 57 59 60 60 62 65 67 67 67 68 70 72 71 72 74 77 77 78 79 81 84 85 86 87 89 90 89 88 87 87
58 60 61 60 60 61 61 59 58 59 59 59 60 61 62 63 66 69 71 73 73 75 74 76 78 78 77 78 80 83 84 85 86 88 90 92 93 94 96 94 93 96 97
66 66 65 64 65 65 64 65 65 65 65 66 67 66 69 70 73 77 79 79 80 81 84 84 83 83 83 83 85 88 90 92 95 97 98 101 102 102 102 102 103 103 103

GFSMA_250_spd_084.txt.gz
Wind_Speed
57 63 60 57 57 59 61 54 49 49 48 38 30 21 23 23 22 28 21 22 21 23 27 26 20 21 23 22 17 17 19 20 22 27 31 34 34 34 38 37 36 33 30
51 59 65 65 61 63 57 55 52 51 50 37 32 26 25 23 24 24 21 22 21 24 24 25 21 13 14 16 19 22 21 22 20 21 25 31 32 34 39 36 34 32 35
52 52 56 62 62 59 62 56 51 47 49 42 32 28 29 29 32 27 27 27 26 28 21 17 16 11 8 11 16 20 23 25 26 23 25 29 31 34 37 35 33 32 38
52 52 56 57 63 68 55 60 57 58 52 47 40 37 36 35 33 34 35 34 29 29 28 24 20 15 14 17 17 19 22 21 19 22 20 22 31 33 33 31 32 32 40
47 52 47 51 55 65 65 55 60 57 54 54 46 43 41 41 39 38 38 37 38 32 32 30 27 21 19 19 21 23 25 25 22 19 16 18 19 22 26 30 34 37 42
50 51 49 49 51 60 61 53 52 54 55 53 50 48 43 43 43 41 34 35 41 39 34 31 25 23 23 30 28 25 29 29 31 28 30 29 31 36 40 38 44 46 48
47 50 53 49 50 52 53 55 53 55 56 53 47 48 45 50 47 40 40 39 42 46 35 35 26 29 36 29 29 34 33 34 36 37 34 31 35 38 39 45 46 49 52
43 47 51 52 49 54 57 56 55 56 56 50 48 49 48 44 46 45 43 44 43 43 41 35 30 31 32 34 33 33 37 38 40 43 42 40 37 42 39 39 44 49 51
40 41 45 48 49 50 52 56 58 59 58 58 56 51 51 50 46 47 42 42 43 44 45 44 35 37 38 39 41 40 40 42 44 45 45 44 45 44 47 47 44 48 51
39 40 44 47 49 50 50 56 59 62 60 58 55 55 51 46 43 45 42 43 46 49 47 43 44 41 43 44 44 44 45 47 49 50 50 50 51 52 44 47 52 48 51
36 36 39 42 46 44 47 59 60 60 60 59 52 48 49 49 47 46 47 46 48 49 51 50 45 47 47 50 51 51 49 51 51 49 53 55 57 55 56 56 58 55 54
30 30 34 37 38 41 37 60 60 59 61 56 52 52 53 54 51 49 48 53 51 52 54 55 49 53 51 52 51 55 53 51 53 56 58 60 60 59 57 56 59 60 62
25 25 31 39 38 39 41 40 53 49 53 50 47 50 44 47 53 54 55 58 53 53 52 58 57 56 56 55 57 57 56 57 59 58 56 56 56 57 54 54 59 61 65
25 24 29 36 44 43 44 38 40 54 46 50 47 42 42 48 54 56 59 60 59 57 59 52 53 55 57 59 60 62 64 65 62 59 54 52 50 53 54 52 52 52 56
25 29 31 35 45 46 42 44 42 43 47 44 43 52 53 55 56 58 57 53 55 60 60 59 59 62 63 60 63 67 61 56 53 53 52 54 54 54 55 56 55 57 58
32 31 32 31 29 33 34 28 32 36 40 48 50 52 57 59 59 61 61 63 63 62 63 64 63 61 61 67 60 53 51 52 55 55 54 55 56 56 56 57 58 58 60
37 35 31 31 31 35 33 35 37 38 43 46 50 52 53 55 58 62 64 65 67 68 70 63 61 62 54 51 52 54 57 61 62 62 63 63 61 62 64 64 64 63 57
41 36 37 36 37 33 39 40 44 44 48 50 52 54 54 55 58 61 63 61 62 67 65 59 54 52 53 54 58 63 59 56 56 54 53 53 54 56 56 54 51 52 56
38 46 36 38 36 38 41 39 46 50 56 56 54 56 57 56 58 60 65 62 55 55 55 57 57 54 55 53 50 51 51 51 53 54 55 57 58 57 57 57 60 62 64
25 30 43 39 43 45 47 47 47 49 49 49 52 57 60 64 64 61 56 53 50 48 45 46 48 47 50 53 54 56 57 57 60 60 63 65 64 66 67 68 69 70 71
32 30 30 32 36 37 46 43 44 48 51 51 49 48 48 49 49 47 46 47 46 46 47 48 52 55 58 60 60 63 64 67 68 67 69 70 70 69 69 69 71 72 75
40 40 38 38 37 36 36 38 39 39 41 43 42 43 45 47 47 47 47 50 50 52 55 56 58 59 59 58 60 63 67 70 72 74 74 76 77 79 79 79 77 79 81
44 43 44 45 45 45 44 44 42 42 44 45 46 48 51 52 53 55 54 57 59 59 60 61 62 63 64 64 67 71 71 72 73 76 80 80 82 84 84 84 84 85 87
51 50 50 48 49 48 48 49 50 51 52 54 54 55 57 59 62 62 60 61 63 64 65 67 67 67 69 72 74 76 78 80 81 84 85 85 87 86 88 89 90 92 94
55 56 57 55 56 56 57 58 59 59 60 61 61 62 61 62 64 65 66 66 66 67 69 71 71 72 75 79 81 82 84 85 87 85 86 87 90 92 93 95 97 99 103
60 59 60 60 61 61 63 65 66 66 66 67 67 67 68 70 71 70 71 72 73 74 76 78 78 81 82 83 85 87 89 91 90 90 92 95 97 100 102 103 103 105 109

GFSMA_250_spd_087.txt.gz
Wind_Speed
43 41 53 68 58 63 57 60 60 57 54 51 46 36 34 29 19 22 15 17 16 16 18 19 24 23 24 24 23 22 13 11 10 13 16 19 24 27 30 31 36 44 42
40 41 53 63 59 68 59 63 61 61 52 46 44 34 32 27 22 19 18 17 18 19 22 26 28 17 21 16 10 11 14 18 22 23 23 23 19 24 28 30 34 40 38
38 43 52 59 61 67 66 65 61 60 58 55 51 39 35 33 30 22 23 22 22 24 29 26 20 19 16 12 9 9 9 13 17 20 22 22 14 15 23 27 29 32 32
38 45 53 52 56 64 65 61 63 63 57 58 53 43 37 34 30 25 28 26 27 29 32 30 27 24 27 27 14 13 15 12 14 20 18 16 15 14 17 22 26 27 27
43 49 52 47 50 61 64 62 60 58 61 57 54 43 40 39 36 35 30 32 34 29 29 35 33 31 24 23 21 19 25 25 19 19 21 21 23 22 20 20 22 27 33
46 47 47 48 46 47 55 66 61 53 56 59 59 48 47 45 47 40 33 35 37 38 34 38 36 36 33 25 25 25 30 27 28 29 27 27 29 28 29 31 37 39 38
48 43 45 45 47 47 48 54 62 55 48 55 56 54 49 47 43 41 36 39 40 38 36 37 35 33 33 25 27 31 28 30 31 32 33 33 35 36 33 33 33 35 40
46 45 44 45 48 50 45 49 52 49 50 51 54 54 54 49 43 43 40 39 44 42 38 40 39 38 34 35 26 28 32 36 36 37 39 40 41 40 40 39 39 42 43
44 41 43 43 48 51 50 45 39 44 50 51 52 54 54 50 45 45 43 44 44 40 43 43 41 39 41 41 43 37 35 36 38 43 43 46 47 48 46 45 47 47 51
39 37 39 40 45 49 52 50 46 46 53 53 53 52 52 53 51 48 46 43 43 44 43 40 43 41 42 44 44 43 39 41 45 46 46 51 51 50 50 50 52 55 58
34 34 37 40 44 44 46 49 49 50 58 59 56 52 50 50 49 47 46 47 44 43 43 45 46 44 42 43 45 47 44 46 47 49 53 54 51 52 52 56 61 63 60
32 35 37 36 39 42 45 49 49 50 55 62 58 54 55 51 52 50 51 45 47 45 45 49 50 46 48 50 50 48 50 51 53 53 56 56 55 59 59 54 55 53 53
33 35 34 35 36 39 41 45 45 48 57 63 61 59 51 46 46 46 46 51 50 50 54 53 50 51 50 51 53 54 59 56 55 59 55 56 57 56 54 53 51 51 52
32 30 30 30 31 33 34 39 39 45 54 60 56 56 56 55 49 50 49 49 47 53 52 52 51 55 56 58 58 59 56 58 59 54 58 62 59 52 49 51 52 52 53
30 27 25 25 33 33 34 29 30 28 37 42 54 50 48 51 45 46 47 46 50 50 54 54 55 57 56 58 60 61 62 60 57 61 55 51 51 52 53 54 55 55 57
28 26 29 36 34 34 34 35 36 36 36 34 42 42 52 49 54 51 50 51 52 51 53 56 57 60 62 62 63 65 62 62 58 54 53 54 55 54 52 53 52 52 52
26 28 29 34 33 37 40 39 41 42 43 44 37 44 44 46 51 51 54 56 55 57 58 61 63 62 63 67 64 66 64 54 54 56 54 53 51 49 48 49 50 52 52
24 32 29 35 34 31 31 36 34 36 33 33 41 45 46 47 48 48 52 54 56 59 61 65 65 66 63 62 57 54 57 56 54 51 48 48 51 53 54 55 57 59 60
23 36 33 33 34 32 31 38 40 39 39 41 42 41 45 48 50 51 52 56 58 59 61 61 60 61 67 60 55 52 49 47 48 50 54 55 57 59 59 61 63 65 66
25 26 34 35 35 37 37 37 38 40 43 43 43 45 47 51 55 57 57 59 60 58 58 67 66 55 50 47 46 47 49 50 53 54 56 55 58 59 62 63 66 68 69
30 27 25 35 35 41 38 38 43 45 45 43 45 49 54 56 57 57 56 58 63 64 61 52 52 51 51 51 51 53 56 58 59 61 63 63 63 65 68 68 70 72 74
35 34 33 31 31 35 40 46 49 51 51 53 54 55 57 61 62 63 59 56 54 51 50 50 52 54 55 56 58 60 62 64 66 68 68 71 72 74 77 76 77 78 77
41 39 38 38 37 35 35 36 39 42 44 44 46 45 45 45 47 49 49 50 51 53 54 55 57 60 63 65 67 69 69 70 70 72 75 75 77 82 84 83 84 85 85
45 46 46 45 43 43 43 43 44 44 45 46 48 50 50 50 51 53 55 56 56 58 60 63 63 64 64 66 69 71 73 73 74 76 79 80 85 88 87 86 85 87 87
47 48 49 49 50 50 50 49 49 52 54 54 55 56 57 57 58 60 61 62 63 65 67 68 69 69 71 73 76 76 76 78 81 82 84 88 91 92 90 90 91 94 93
53 52 53 55 55 56 57 56 57 58 59 60 62 64 65 67 67 68 69 70 73 74 73 75 76 77 78 79 80 82 82 84 86 88 91 94 95 94 94 96 98 100 102

GFSMA_250_spd_090.txt.gz
Wind_Speed
47 53 50 48 42 43 65 56 46 51 46 46 41 40 39 35 28 23 22 21 18 16 14 14 17 22 22 19 21 24 20 17 16 14 11 18 17 18 23 28 29 32 34
52 48 49 43 39 43 68 63 55 58 51 45 42 42 38 36 30 22 25 22 18 17 15 17 21 22 17 15 16 12 10 12 15 17 19 17 22 22 20 20 23 27 31
47 49 48 40 38 45 64 70 59 60 61 55 48 45 39 40 33 22 28 21 21 20 18 18 25 25 25 19 20 21 20 12 13 14 14 15 15 18 19 20 18 19 26
51 53 46 36 38 46 57 69 63 66 62 63 61 57 47 39 36 35 34 26 24 23 21 23 26 26 28 27 22 20 16 14 17 23 20 17 18 20 18 17 22 21 22
54 56 43 36 39 44 54 69 64 68 64 62 63 56 54 55 47 43 33 30 28 29 30 28 28 28 29 33 26 23 28 23 23 25 22 22 24 24 24 24 26 27 25
57 60 39 36 38 44 51 60 64 63 69 59 65 63 59 58 49 44 39 36 37 35 33 31 31 34 31 29 27 27 28 27 30 24 26 27 28 29 28 31 30 28 30
59 51 36 37 41 44 50 52 54 55 62 64 47 64 62 56 51 47 44 40 44 36 37 36 38 38 34 32 31 28 29 30 28 27 29 32 34 35 36 36 38 38 37
56 42 36 40 43 48 47 50 54 54 52 55 57 50 56 57 56 49 46 46 46 39 39 42 38 37 37 37 36 32 35 39 35 30 32 34 35 38 40 43 45 45 42
45 37 38 42 45 47 49 51 47 45 45 52 51 50 50 52 55 51 47 50 48 42 42 40 38 40 39 38 36 36 37 37 43 45 37 39 40 41 42 45 47 46 47
37 38 42 46 43 45 52 52 50 43 41 41 45 48 48 50 55 52 51 51 50 46 45 42 42 42 42 41 40 39 36 34 40 41 43 45 46 47 49 50 49 49 50
38 41 44 43 44 42 48 46 46 52 42 43 45 52 49 52 51 56 53 56 58 50 48 45 45 47 44 43 43 44 42 43 48 47 47 50 53 52 48 53 53 51 53
38 41 39 42 42 40 40 40 45 46 50 44 45 51 51 52 59 58 58 58 57 52 49 48 47 49 46 47 45 48 49 50 49 49 50 53 53 51 55 53 53 51 49
36 38 39 40 39 39 41 40 43 45 48 50 52 51 55 59 57 56 56 56 48 51 48 51 54 50 50 49 52 51 48 50 51 55 55 59 59 59 54 55 49 43 45
35 35 37 36 33 36 36 36 39 42 45 51 54 53 56 60 59 56 52 50 48 49 51 51 52 52 47 47 49 50 51 52 52 54 58 62 61 64 62 56 47 48 52
35 36 32 31 30 30 33 34 35 38 40 41 45 51 58 60 62 59 57 58 47 46 50 50 52 51 46 49 51 52 53 56 56 61 62 64 68 62 53 48 52 49 43
35 31 31 24 28 28 27 24 25 25 25 30 42 50 54 63 58 54 49 49 51 52 53 53 47 46 47 50 52 55 58 60 61 62 66 60 55 51 52 50 44 45 46
32 31 27 20 28 23 28 29 27 23 25 25 30 32 34 43 50 47 50 55 56 54 52 50 49 52 55 57 58 59 63 64 65 64 62 58 56 55 46 44 45 47 50
32 30 22 19 28 27 30 32 31 31 32 35 35 35 32 38 45 49 54 55 58 56 53 56 57 58 57 58 60 61 63 62 62 68 55 50 45 42 45 49 50 51 51
31 28 22 24 28 33 38 38 37 41 39 35 37 39 42 42 43 44 44 42 44 48 53 55 57 56 59 61 62 63 62 67 59 48 46 46 47 48 50 53 55 57 59
33 26 24 28 30 35 38 40 35 40 42 37 38 42 43 40 40 44 46 46 47 49 55 57 59 58 61 63 63 65 66 55 51 51 51 51 52 55 58 60 63 66 67
36 30 27 27 34 34 37 39 40 39 41 42 42 40 41 41 42 45 46 49 51 55 56 58 63 64 62 62 63 61 57 55 54 55 56 57 60 63 63 66 67 69 71
40 35 31 28 27 35 40 39 40 42 41 41 44 45 46 47 50 51 52 53 56 59 61 60 61 62 62 59 56 55 57 58 58 62 65 64 64 66 67 69 72 74 76
46 42 38 36 33 32 32 39 46 50 51 49 48 48 51 52 53 55 55 56 60 62 62 60 58 56 57 58 60 60 62 64 65 65 67 68 71 73 76 77 78 79 82
50 49 46 43 42 40 38 36 36 38 41 47 50 53 55 56 57 57 57 56 54 54 56 56 57 58 60 62 64 65 65 67 69 73 75 75 78 80 82 83 83 85 87
50 53 53 51 49 46 45 44 43 44 44 44 45 47 49 50 52 53 54 56 57 59 59 60 62 64 67 70 71 72 73 75 77 78 80 81 82 85 87 87 89 91 94
57 55 52 52 51 51 50 50 50 50 51 51 51 52 54 55 57 58 59 61 63 65 67 68 71 72 74 76 78 80 80 82 82 82 84 85 86 87 88 89 92 95 98

GFSMA_250_spd_093.txt.gz
Wind_Speed
42 39 39 41 45 48 52 45 41 53 54 43 37 42 44 44 41 33 31 26 16 21 16 17 15 17 17 17 17 18 16 18 16 16 18 18 16 18 19 20 22 27 31
42 40 39 43 43 47 50 40 39 52 60 52 45 47 50 44 41 36 28 22 19 23 22 18 15 18 20 21 22 18 17 19 22 16 15 17 21 21 21 21 21 21 22
41 40 43 45 44 44 44 36 41 52 68 61 52 50 45 41 42 34 29 22 21 20 18 20 18 17 23 24 24 22 19 20 20 14 16 19 19 18 19 19 20 22 23
43 45 43 46 43 45 42 34 42 59 67 63 57 58 47 47 44 38 32 29 25 23 24 21 21 22 23 26 27 24 22 15 18 20 22 23 24 24 25 25 26 23 23
48 49 48 48 46 48 40 33 44 61 67 64 65 61 59 54 50 48 40 32 30 31 29 29 27 28 26 25 28 28 22 22 25 27 26 28 24 25 25 26 26 26 28
49 47 47 47 50 49 37 34 46 60 69 64 59 58 61 57 57 48 46 46 43 36 33 34 31 29 28 26 32 30 26 27 25 27 28 28 28 27 27 30 32 34 34
47 50 50 47 51 46 33 34 45 57 68 66 60 63 62 60 57 57 51 46 39 34 37 33 42 37 32 32 35 32 30 29 29 28 36 35 31 28 27 30 33 35 39
47 48 52 48 45 44 30 35 43 52 58 64 68 57 52 53 61 63 54 57 49 48 40 39 41 43 36 36 38 33 33 34 32 31 33 36 36 34 34 36 37 43 44
47 47 45 50 55 40 31 37 43 50 59 54 53 66 51 49 52 56 54 51 47 45 43 46 44 44 39 40 36 37 36 38 35 28 30 30 33 40 44 42 43 46 47
44 46 52 56 52 35 33 42 43 51 53 48 52 46 61 49 43 48 50 51 49 49 51 50 48 43 42 41 40 39 40 39 37 37 38 40 42 45 42 44 45 47 45
47 52 56 56 40 35 38 42 48 49 48 46 44 44 48 46 43 49 54 55 51 53 55 54 52 49 50 44 45 45 41 42 42 42 43 46 48 46 46 46 48 50 52
51 60 55 44 37 38 44 45 45 48 52 50 45 43 39 43 46 48 55 54 54 54 58 55 57 53 50 50 51 48 45 44 47 46 47 49 45 44 46 47 52 56 56
58 55 43 37 37 39 43 45 42 42 45 56 48 44 42 44 52 55 57 54 58 58 58 61 63 59 55 54 52 51 51 49 49 49 50 48 47 48 50 54 58 60 57
47 39 36 37 38 38 39 37 40 38 40 47 52 54 49 46 47 55 60 62 60 60 63 62 62 62 56 55 52 51 52 52 54 53 48 46 48 51 54 58 59 54 51
34 33 35 36 35 36 35 41 40 42 42 43 48 53 55 51 49 52 59 62 63 58 61 57 49 49 51 50 49 50 53 52 48 45 48 52 51 56 59 58 59 58 49
31 31 32 32 34 33 35 35 36 35 37 42 45 47 55 54 54 52 55 59 61 63 61 56 51 51 56 53 49 51 51 49 48 51 52 52 55 58 58 61 58 52 48
28 30 31 31 31 27 31 28 28 29 30 34 39 44 48 51 50 55 57 58 58 58 58 59 61 53 50 52 56 55 52 51 52 54 55 56 58 59 58 52 45 39 38
28 30 30 29 28 27 25 24 24 25 22 23 29 32 38 40 49 52 56 58 53 52 55 54 51 57 60 56 56 54 55 56 56 58 59 59 61 56 51 47 44 44 46
31 32 31 31 26 23 26 23 30 27 28 27 25 25 28 32 35 37 42 45 55 62 64 59 55 60 60 57 56 56 61 56 59 60 61 61 59 55 52 50 50 50 52
34 36 32 31 29 23 30 26 31 33 29 34 30 33 35 39 39 39 38 40 46 49 50 51 52 53 55 54 57 60 62 61 61 64 61 59 59 55 54 55 56 58 60
41 39 36 32 32 26 30 35 34 33 39 39 40 43 41 42 42 41 42 46 50 52 53 55 55 56 56 60 62 65 64 64 65 63 58 59 59 57 58 60 62 61 62
43 44 38 36 37 31 33 37 39 42 43 41 43 46 49 53 54 51 43 50 48 49 51 52 54 54 56 59 63 65 68 70 63 63 60 59 60 62 63 63 64 66 70
46 47 42 41 39 36 35 41 42 44 45 45 47 49 50 48 49 48 48 50 51 53 54 55 58 59 61 62 65 69 68 65 63 61 62 63 64 65 67 69 71 74 77
48 52 49 47 45 41 39 39 45 50 50 48 49 49 50 51 52 54 55 56 57 57 58 57 60 64 68 69 67 63 63 64 65 66 68 69 71 73 75 77 79 81 83
52 56 55 51 53 50 47 45 44 43 47 53 58 60 61 60 60 60 61 63 64 63 63 63 63 63 61 62 62 64 66 67 69 72 75 76 78 80 83 85 85 86 87
63 58 61 59 56 57 56 54 52 52 51 49 50 52 55 57 58 59 60 59 59 59 60 60 62 64 66 67 69 71 73 75 77 80 82 83 85 86 87 87 87 89 90

GFSMA_250_spd_096.txt.gz
Wind_Speed
44 46 42 41 35 34 33 34 34 42 44 37 47 46 39 42 44 39 29 31 29 28 21 14 15 14 16 11 16 17 18 15 17 18 18 17 14 17 21 21 23 22 20
42 45 44 42 36 34 35 35 37 44 44 37 49 50 42 44 44 44 36 31 30 19 16 14 15 17 15 13 16 18 18 18 20 18 19 12 13 15 17 21 20 19 20
42 41 43 41 35 33 36 38 38 42 37 34 47 49 45 45 46 48 44 38 33 26 22 22 22 21 19 20 19 20 23 22 21 14 14 18 20 20 19 21 23 22 21
43 41 41 43 37 38 38 39 40 40 33 36 52 52 47 47 48 48 45 39 36 31 24 20 22 21 22 20 23 25 22 22 17 16 22 21 21 22 20 22 21 23 23
44 41 40 43 40 40 37 38 40 41 31 42 56 56 53 48 50 49 45 41 40 34 28 27 19 21 22 24 25 27 24 26 21 20 20 20 22 23 23 26 23 21 22
45 38 43 46 44 40 38 39 41 40 31 45 57 59 58 56 48 53 49 42 43 32 33 31 27 31 29 31 24 28 30 30 23 21 22 25 28 29 29 27 22 22 25
41 39 45 41 39 41 38 39 40 35 31 52 62 63 60 68 63 61 55 47 46 46 40 37 29 26 32 35 32 31 32 31 30 27 25 27 27 29 28 27 25 31 33
42 39 47 44 40 39 39 39 41 35 32 56 65 65 62 61 63 64 60 58 57 55 53 46 35 38 41 33 36 35 34 35 35 29 29 28 21 24 25 29 36 38 41
42 41 43 42 41 40 39 40 42 37 36 53 67 63 55 58 66 62 60 56 51 51 51 47 45 46 40 40 38 40 35 36 32 31 33 30 30 32 33 34 39 42 40
54 44 50 46 45 39 40 42 45 36 40 52 63 66 59 53 55 60 61 58 57 57 56 53 49 44 43 40 43 44 41 37 37 37 37 35 37 36 37 39 42 40 38
57 51 50 49 42 43 46 49 45 35 41 45 53 56 67 63 47 50 55 60 56 55 55 53 50 45 47 46 47 48 48 42 44 41 41 39 38 40 44 45 43 40 38
55 47 40 40 43 48 51 50 38 40 40 45 49 48 52 59 52 49 50 47 59 60 55 55 50 47 48 48 49 52 49 45 43 47 47 47 46 44 46 49 43 41 41
43 41 44 48 53 54 54 44 36 40 45 46 47 51 51 53 52 50 45 51 56 58 54 52 53 48 47 48 57 58 55 49 48 49 51 51 49 47 52 46 43 43 46
37 40 46 53 54 53 46 34 39 41 41 46 47 48 49 50 54 50 46 49 53 50 50 55 55 55 48 58 58 54 54 54 53 52 51 49 50 52 49 43 44 47 50
27 38 48 52 49 46 33 34 35 38 42 41 39 45 54 53 49 47 49 54 54 57 54 56 54 57 60 61 58 56 52 56 49 48 48 45 50 47 46 45 47 50 53
37 40 42 42 41 33 30 26 30 33 34 36 40 43 50 59 57 53 52 54 59 60 63 62 62 62 61 61 61 57 51 49 49 50 47 50 50 49 49 49 53 54 55
34 28 30 31 30 27 26 28 33 35 36 38 40 43 47 49 59 61 57 53 55 61 64 62 62 63 66 62 58 59 54 53 53 49 52 55 53 52 53 55 56 57 54
31 21 25 26 24 24 27 29 31 32 36 37 36 40 45 51 52 61 58 57 57 58 64 67 66 66 66 64 57 55 57 54 51 57 59 54 53 55 56 60 57 58 53
24 18 21 20 23 26 26 28 28 30 27 30 27 33 40 44 50 55 56 51 60 62 62 62 63 63 58 56 59 59 56 56 58 60 60 54 58 61 60 60 64 58 54
27 17 21 25 27 26 25 27 28 26 22 23 26 25 28 36 41 47 52 56 52 57 60 62 60 57 56 54 55 58 62 64 63 63 58 58 60 63 64 65 63 59 54
34 25 23 29 31 31 28 27 30 24 24 27 31 23 23 26 31 30 40 43 45 43 44 43 46 51 56 60 60 61 61 63 63 60 61 62 63 64 65 69 64 57 57
37 36 32 27 35 37 32 28 34 30 28 34 34 31 38 37 35 41 45 44 44 42 46 48 52 55 56 58 61 65 66 62 64 61 64 64 67 68 72 65 63 63 63
45 47 40 38 35 39 37 33 37 36 39 38 40 41 43 41 44 46 46 46 50 52 51 51 52 56 60 64 64 65 64 63 61 63 66 70 70 69 68 67 66 68 70
52 50 49 45 39 42 41 39 38 43 46 45 43 45 49 50 52 54 58 59 55 57 58 58 54 56 58 60 58 58 60 63 65 69 71 72 70 69 68 69 71 73 75
58 54 45 41 41 41 45 43 44 44 47 51 51 51 53 54 53 56 56 58 58 55 54 54 56 58 60 61 62 65 69 73 75 73 73 71 71 72 73 74 76 79 81
55 52 53 51 53 48 47 51 49 51 50 50 57 60 60 60 62 64 63 61 61 62 63 64 65 67 69 70 72 74 71 72 72 72 73 75 77 78 79 81 82 81 83

GFSMA_250_spd_099.txt.gz
Wind_Speed
54 56 52 46 45 47 38 35 37 37 41 36 36 37 32 44 46 43 40 41 34 33 30 26 25 25 24 20 12 10 8 10 12 16 17 15 15 12 14 12 13 16 18
51 54 50 45 44 45 37 36 37 38 40 39 41 40 33 45 47 44 47 39 32 27 30 20 22 20 20 18 17 9 10 12 13 17 18 14 14 16 17 13 13 16 17
56 53 50 43 45 44 41 37 39 39 43 40 41 39 35 45 55 47 48 45 32 32 35 24 22 18 20 20 20 16 16 15 14 17 16 15 18 19 15 14 15 17 18
59 51 52 44 44 43 37 37 40 38 39 40 38 35 32 45 52 48 47 44 42 39 37 28 25 27 27 24 25 20 19 19 17 18 18 16 17 17 17 17 20 20 18
58 49 47 41 43 43 37 37 42 37 38 37 34 30 37 49 52 51 46 50 45 46 35 35 31 30 29 25 21 21 24 25 24 21 21 20 18 19 21 22 24 23 17
54 48 48 41 39 43 36 40 39 39 37 35 33 26 47 52 51 50 51 52 52 48 42 37 39 28 26 26 24 27 26 26 28 27 24 23 20 21 25 25 23 24 22
50 44 47 41 40 43 44 39 39 40 38 37 33 30 58 57 55 56 55 56 52 48 48 46 42 34 29 25 22 20 25 33 31 34 29 28 23 23 19 22 24 24 30
41 39 44 38 40 44 41 38 35 33 33 39 34 35 61 61 57 59 58 55 56 54 48 44 43 42 34 30 27 28 32 32 35 33 33 30 29 28 26 28 27 31 34
35 40 35 37 39 41 40 43 42 36 37 38 35 41 65 66 56 63 67 65 64 52 55 49 51 40 40 41 35 37 33 35 35 35 31 28 32 29 31 28 31 31 35
36 35 32 32 40 43 42 38 35 37 37 37 38 42 70 72 57 59 65 73 68 60 56 54 54 53 50 49 45 42 37 39 35 43 34 35 35 33 32 31 33 36 38
42 38 34 46 45 53 50 46 39 38 38 39 39 33 73 76 68 59 64 66 67 64 61 63 59 61 57 52 45 45 44 45 45 45 46 43 41 40 43 43 43 38 40
48 48 54 55 55 57 44 42 41 41 38 41 41 39 71 76 67 63 60 64 63 60 63 61 58 58 54 55 48 50 50 50 46 48 46 47 46 43 44 46 44 43 44
55 53 52 63 61 57 44 46 44 45 44 48 43 44 59 65 62 64 62 51 54 60 60 68 65 59 57 55 50 51 52 51 49 51 50 48 43 47 47 48 47 46 45
55 45 48 51 51 49 53 54 50 49 48 45 41 47 60 65 54 64 65 62 52 53 66 67 62 58 55 55 54 54 49 49 52 56 57 55 49 50 48 49 47 45 44
33 35 32 40 44 47 51 54 51 52 47 41 46 49 55 55 55 54 56 60 55 49 53 60 64 58 61 61 60 55 57 57 55 53 50 51 46 49 46 47 46 45 47
34 33 28 33 37 40 47 50 50 45 41 40 49 51 50 56 56 54 54 56 55 57 50 48 52 59 66 64 63 64 60 59 58 58 54 50 48 49 51 50 50 50 55
36 42 34 39 41 49 54 50 41 35 37 42 44 49 54 54 55 59 56 55 51 51 53 54 58 59 60 62 62 61 63 59 58 59 57 56 56 56 56 54 52 57 52
43 44 35 39 43 37 36 31 30 32 36 39 41 38 40 43 51 58 62 59 54 54 59 61 62 63 63 62 62 60 60 61 63 65 66 58 58 58 58 56 59 57 55
36 21 37 31 25 17 21 27 27 28 31 29 31 34 37 40 48 50 60 66 63 58 59 63 65 67 69 67 65 64 64 63 64 63 61 58 58 62 61 61 60 60 58
31 22 18 12 17 19 20 21 25 27 31 31 32 34 37 38 43 46 50 54 56 62 64 62 66 68 67 65 64 68 67 67 66 61 60 61 63 65 64 66 63 62 64
29 22 24 14 15 22 22 26 26 28 31 31 31 32 31 31 35 38 44 50 52 60 60 60 66 68 67 66 66 67 64 61 60 61 62 63 66 68 69 63 63 62 59
36 35 35 29 25 22 27 30 33 30 31 30 31 29 24 26 24 25 32 36 43 53 58 58 56 65 67 70 64 63 63 66 69 64 64 68 65 64 67 67 65 62 64
42 41 34 35 29 30 29 29 31 33 33 33 33 33 33 31 30 29 28 40 40 43 54 53 51 50 50 53 55 53 53 56 57 61 61 60 61 63 64 63 64 67 69
52 44 41 44 46 45 40 31 31 34 35 35 37 36 40 38 39 41 43 42 43 45 52 52 53 52 55 55 56 55 56 57 62 65 64 64 65 64 64 67 72 76 77
50 49 52 53 53 52 53 46 35 37 39 37 40 41 42 44 46 42 49 48 49 54 56 55 57 56 53 55 56 58 61 63 64 64 64 64 66 70 72 74 76 75 75
56 58 51 49 55 58 53 49 40 36 40 42 41 43 49 49 50 55 57 57 60 60 61 62 63 63 64 66 69 67 64 66 67 66 69 71 75 78 79 78 77 78 78

GFSMA_250_spd_102.txt.gz
Wind_Speed
65 64 62 54 53 50 48 45 39 38 38 39 39 42 42 42 37 33 36 38 44 37 34 34 34 31 26 27 23 18 10 7 8 8 10 10 13 13 13 12 11 10 11
69 68 67 58 48 49 50 43 39 37 37 38 40 43 43 41 36 33 41 40 40 40 40 32 34 33 28 31 32 27 17 9 12 10 11 10 13 14 17 14 11 12 13
72 70 70 63 55 48 48 43 38 35 38 41 41 43 43 44 40 33 47 48 45 36 25 39 38 37 32 35 37 27 25 13 13 13 13 12 14 17 17 17 14 15 18
73 75 71 67 55 50 50 44 36 35 40 43 44 46 44 40 40 36 45 49 51 42 29 44 45 39 30 25 28 29 28 25 18 18 17 14 15 17 18 19 18 18 21
77 73 69 64 52 50 49 45 36 37 41 43 42 42 42 38 41 32 51 55 54 52 58 52 47 46 36 29 28 31 32 28 23 23 21 21 20 21 17 19 21 23 18
80 69 65 61 52 50 50 48 36 38 43 42 39 41 34 37 34 37 54 57 53 50 59 54 52 48 41 32 32 31 28 28 28 27 27 26 26 26 22 20 22 23 24
78 57 55 54 52 51 48 44 37 39 42 42 39 40 35 32 31 49 51 55 55 57 52 61 53 42 44 39 36 34 29 29 30 35 30 33 36 33 27 26 25 22 24
65 53 51 52 51 48 46 40 36 39 41 42 39 40 38 28 39 55 53 56 56 59 58 58 58 52 43 44 39 32 31 29 25 22 31 35 38 31 29 28 24 26 29
57 52 48 49 49 47 46 39 35 38 41 41 38 32 31 25 51 52 62 60 56 54 61 60 59 54 51 49 45 38 32 32 31 29 32 34 30 31 30 30 29 27 28
55 50 46 43 45 40 43 38 35 37 41 44 42 42 35 28 49 55 64 61 64 66 64 62 65 59 56 54 49 49 43 37 34 29 34 36 33 37 35 33 30 34 32
50 47 43 27 46 40 39 37 36 39 43 45 42 39 35 24 53 60 67 66 68 69 66 64 69 66 55 57 52 46 45 48 41 39 43 39 46 42 44 45 41 43 42
47 49 52 50 54 37 32 33 34 41 45 45 42 38 33 28 48 61 71 68 68 73 72 70 67 57 57 59 59 58 52 50 50 44 41 47 47 47 48 49 47 43 42
49 54 53 55 47 43 44 41 45 44 50 43 40 39 36 37 31 68 73 73 71 72 72 73 72 68 61 61 63 65 62 54 54 55 54 54 50 51 51 49 43 47 47
51 56 55 51 45 44 46 49 43 41 42 42 42 42 46 46 40 61 73 75 72 70 67 67 64 68 71 68 69 67 65 57 54 60 59 49 51 53 55 56 50 47 50
55 58 55 46 31 37 39 49 46 52 47 48 52 54 55 52 46 48 76 74 71 64 59 58 63 69 64 67 68 63 62 63 59 59 55 49 52 57 56 52 49 51 47
61 62 56 49 34 34 33 37 51 54 53 54 54 58 58 53 49 49 64 71 68 69 67 58 54 58 67 74 65 61 61 66 64 64 63 61 59 61 59 56 56 53 53
56 51 47 40 30 32 37 41 45 49 51 57 56 57 55 50 46 48 63 64 60 67 75 71 70 55 55 60 67 69 68 67 67 65 65 59 66 66 62 62 61 60 62
46 46 45 42 40 30 34 41 47 51 54 59 63 57 50 43 45 51 64 62 59 62 65 73 67 69 60 52 55 58 63 65 66 68 70 65 65 65 65 64 65 66 61
42 44 42 46 35 26 36 46 48 52 58 52 49 46 43 43 50 52 58 62 63 65 58 56 56 62 58 51 53 54 58 58 61 64 64 62 64 67 68 68 69 65 64
45 42 42 45 37 31 36 43 47 40 35 33 36 37 39 42 45 55 57 60 64 66 66 63 57 58 59 59 60 61 61 62 63 64 66 65 64 69 70 71 69 66 62
47 47 46 43 37 32 39 31 26 24 24 28 28 28 31 35 40 43 48 52 57 65 74 74 65 61 63 65 64 64 69 70 70 70 69 70 70 69 69 72 71 66 66
50 51 52 45 35 41 31 26 26 25 25 24 24 26 31 36 36 38 38 45 50 54 61 57 68 70 65 64 69 70 71 72 72 69 72 75 71 68 70 69 69 69 68
51 46 48 46 45 40 31 26 30 28 28 31 29 26 31 34 34 35 39 35 36 43 45 48 55 59 61 61 67 65 70 74 76 73 68 67 70 72 71 66 62 64 66
48 48 47 47 48 45 38 35 28 26 32 32 32 34 31 32 37 38 34 28 28 27 32 33 45 52 52 49 61 68 71 70 69 70 69 68 65 62 62 62 64 67 69
49 48 47 43 44 45 43 44 44 41 38 37 34 36 39 35 37 40 40 36 39 39 39 39 44 49 49 57 62 67 66 64 65 65 62 61 64 63 67 70 70 69 70
47 47 58 56 55 52 46 49 50 51 48 51 47 42 43 42 41 40 44 46 41 43 46 46 52 54 55 54 60 62 59 58 56 59 59 61 64 69 69 72 76 76 76

GFSMA_250_spd_105.txt.gz
Wind_Speed
65 62 57 54 57 59 62 60 55 56 50 48 38 35 35 35 38 37 34 32 32 35 34 34 33 35 26 30 28 27 21 16 15 12 8 8 13 11 10 15 15 15 12
70 66 61 55 55 57 65 63 60 54 55 48 41 35 35 36 37 39 36 31 34 38 40 35 38 34 29 32 39 35 28 21 17 15 12 8 7 13 14 16 18 16 17
75 70 65 65 65 62 61 64 60 53 56 51 43 38 38 35 37 41 37 30 35 38 39 37 22 32 35 34 45 36 30 30 25 19 15 14 12 15 17 17 16 17 20
77 73 71 73 70 70 68 65 62 55 52 53 47 39 39 36 39 41 36 31 29 39 48 43 43 37 39 44 48 38 36 40 39 28 18 19 18 18 20 21 17 17 18
79 80 81 79 76 76 73 68 62 57 52 52 48 41 40 40 38 42 39 38 35 44 48 46 56 49 43 44 46 31 34 36 36 36 24 18 21 22 26 28 22 16 20
82 82 83 86 84 79 75 71 58 56 49 52 49 43 40 40 40 40 39 41 38 45 52 53 52 53 53 44 38 38 32 32 34 37 37 30 26 26 29 30 28 26 27
87 87 91 90 84 80 78 71 60 57 50 57 48 41 39 38 39 39 35 37 40 48 57 56 51 52 56 49 41 40 40 37 37 37 34 36 33 34 31 33 36 27 30
94 92 89 88 83 82 74 63 60 56 50 56 46 39 37 37 37 39 35 37 38 57 63 56 44 51 55 52 48 46 43 41 39 39 36 28 29 28 30 32 26 33 32
93 91 92 86 79 67 54 50 52 53 53 52 47 39 36 35 35 38 36 34 45 58 65 64 47 62 65 61 50 49 47 46 44 39 37 33 27 28 30 30 30 32 26
86 89 85 74 65 45 39 49 52 52 52 50 46 41 38 36 37 33 30 39 52 60 65 61 57 60 73 65 54 60 55 50 44 43 43 37 30 29 30 34 38 36 36
74 62 59 55 51 38 42 40 34 44 48 47 47 43 42 38 37 35 32 46 52 62 67 73 70 61 63 71 72 67 56 55 50 47 41 38 41 37 40 35 41 41 45
55 51 52 49 44 44 45 42 33 44 49 47 45 44 42 41 43 42 34 45 57 63 69 71 76 74 74 71 70 73 58 58 58 50 53 49 47 41 42 43 45 49 49
51 48 47 47 46 50 52 51 49 53 51 47 45 43 42 41 38 36 36 44 56 63 71 73 77 74 77 78 77 75 70 64 63 59 51 51 50 49 49 52 53 53 54
39 39 42 47 50 56 58 53 48 48 48 49 46 44 42 41 42 39 33 45 60 69 74 77 79 75 75 74 71 67 66 69 70 70 58 61 62 53 53 54 58 54 52
35 34 40 45 54 50 47 46 43 44 51 52 46 40 44 44 41 42 44 38 60 71 79 80 80 82 76 73 70 70 68 67 65 71 65 66 69 60 55 58 47 50 52
33 37 39 48 59 50 50 44 45 49 51 45 39 42 40 45 47 49 49 45 40 64 81 81 81 83 84 82 76 71 71 71 72 71 69 65 67 66 62 60 59 60 59
34 39 48 51 56 53 52 38 43 33 39 43 44 47 50 53 55 55 57 52 48 52 70 86 86 81 78 78 80 77 74 70 70 61 68 66 66 68 68 67 70 67 65
33 39 52 48 53 51 47 22 21 31 43 45 57 55 56 55 60 63 58 57 56 57 58 79 84 81 82 72 70 71 75 79 68 68 69 67 68 70 70 70 68 65 59
41 43 49 55 54 50 53 34 34 44 42 49 51 53 56 59 60 62 65 65 62 57 57 62 73 76 72 68 64 62 59 59 71 66 62 67 69 69 68 70 67 65 65
29 33 46 53 55 48 50 54 45 43 52 51 50 47 54 58 65 65 63 59 51 51 61 57 55 63 68 73 74 74 71 68 63 57 56 62 66 64 64 65 64 66 67
38 42 51 55 55 53 48 49 50 45 37 41 44 53 61 59 49 45 43 42 44 45 54 58 55 59 57 64 70 70 70 72 66 59 57 60 59 58 61 63 64 66 67
46 48 51 52 52 53 56 47 50 57 44 46 51 42 27 24 27 31 37 38 46 47 49 58 69 67 67 64 61 62 63 61 62 61 64 65 62 64 62 64 66 70 76
49 45 49 51 49 48 54 52 51 43 48 44 38 29 26 26 27 31 32 34 38 44 51 58 63 69 70 78 80 72 63 64 63 67 68 64 69 72 72 75 76 76 77
53 48 51 51 48 49 49 40 41 38 39 35 37 34 32 31 29 31 33 33 36 40 43 42 50 52 53 58 58 74 72 71 72 72 72 74 75 74 73 74 75 72 71
53 44 46 50 50 50 51 51 49 47 44 41 42 39 39 37 36 34 34 37 29 33 39 35 29 31 36 36 35 46 56 56 60 63 67 70 71 70 72 74 74 76 71
54 47 48 46 55 52 51 47 51 54 48 42 43 43 39 38 39 39 39 39 35 43 36 42 41 37 40 36 39 48 52 52 56 59 62 64 65 72 73 68 64 64 66

GFSMA_250_spd_108.txt.gz
Wind_Speed
65 64 64 57 58 56 58 58 54 51 50 49 51 52 45 37 35 32 32 29 30 29 30 29 30 33 28 28 31 31 21 24 19 18 15 11 7 11 12 11 15 16 17
64 64 65 61 59 62 61 60 60 54 54 55 51 52 47 39 33 36 35 32 31 32 34 35 35 37 34 31 34 33 30 30 29 23 19 15 10 8 8 12 13 15 14
64 64 64 67 65 62 62 65 63 61 59 59 55 49 50 47 37 40 37 36 35 34 36 37 42 43 42 33 31 33 32 29 44 36 24 21 15 13 10 14 17 18 16
67 69 68 67 70 68 65 69 64 65 61 61 61 55 46 49 40 42 41 37 37 37 38 36 49 47 43 32 36 43 36 42 43 40 32 28 23 19 16 16 21 23 21
70 71 70 71 73 74 70 71 68 68 64 64 63 59 51 48 43 43 45 39 39 39 39 38 53 52 46 43 38 47 40 44 43 35 39 38 34 19 22 20 23 26 24
72 71 70 69 74 75 75 74 70 70 71 69 62 58 55 50 45 46 49 41 42 41 39 41 57 57 55 49 53 45 46 40 34 33 35 39 35 32 26 20 22 27 28
71 76 73 75 74 74 79 81 72 71 79 68 63 63 60 53 48 48 51 45 44 41 46 43 60 58 46 45 54 52 47 43 40 33 29 32 34 37 40 31 31 27 23
77 82 83 76 74 61 72 77 73 87 75 68 67 62 53 51 49 48 53 45 44 39 40 46 62 67 59 41 58 61 48 42 38 33 38 34 36 38 39 32 27 22 23
86 83 82 78 67 46 63 78 93 89 72 72 66 56 56 55 50 49 50 47 43 42 39 46 64 67 63 63 58 56 53 47 40 36 40 32 36 39 33 27 26 23 21
81 88 83 76 70 56 69 67 74 94 70 61 56 52 56 55 53 50 48 44 44 40 40 43 55 66 66 61 65 55 59 53 47 47 43 39 41 43 37 33 29 30 31
79 85 85 83 81 73 75 81 79 70 72 60 52 56 62 53 56 50 47 43 40 34 38 38 46 64 65 54 53 62 63 59 54 49 48 45 46 41 41 38 34 30 33
73 67 58 63 61 62 62 62 29 47 53 60 48 44 50 49 52 47 43 39 37 30 36 44 53 63 61 59 60 64 67 62 62 55 48 50 50 47 43 43 46 42 46
56 21 61 80 60 53 52 53 49 63 65 64 52 41 45 51 50 47 44 41 34 36 45 48 61 64 56 58 60 60 66 64 63 63 59 55 54 56 51 47 50 46 46
34 43 60 67 61 55 52 48 63 65 62 51 45 39 43 47 48 48 46 42 42 40 41 51 62 69 69 65 62 62 64 62 63 64 61 60 55 58 58 56 54 55 53
35 43 59 63 62 49 43 47 55 58 62 52 50 43 41 43 48 47 43 41 41 43 39 49 58 71 77 74 72 67 66 69 68 67 62 65 64 64 66 68 66 66 61
21 28 36 37 38 38 45 52 60 59 58 56 46 45 40 47 48 47 45 40 44 44 41 51 59 69 81 83 85 82 79 75 75 76 73 72 74 72 73 72 72 68 66
19 18 22 26 29 36 40 45 55 55 50 43 45 44 42 43 47 48 46 44 47 47 49 43 59 69 82 86 89 90 90 83 78 77 68 68 68 68 75 65 70 69 68
14 13 13 24 21 38 47 47 53 50 50 50 48 37 40 41 51 51 46 47 50 49 47 44 44 44 64 84 89 91 90 88 87 85 80 71 68 72 66 69 64 66 68
25 20 18 20 25 40 46 49 50 47 49 44 33 40 50 54 52 50 51 55 52 53 55 55 59 54 52 58 79 95 94 91 91 87 82 81 80 76 79 66 69 66 67
29 34 30 33 37 36 49 46 53 55 54 53 51 48 54 56 54 59 61 60 61 58 60 58 60 63 62 63 63 77 88 97 92 91 87 82 82 79 78 65 64 68 69
38 39 36 42 39 45 46 50 54 53 50 47 50 54 58 53 55 53 55 64 59 66 60 60 69 72 68 64 61 64 79 72 74 73 73 74 72 68 63 60 61 62 62
38 39 39 39 44 51 54 55 53 50 48 42 40 45 53 51 48 47 48 53 62 66 66 58 51 49 52 49 51 50 57 65 74 69 74 71 72 73 70 70 67 62 61
42 38 43 46 58 59 61 57 57 52 53 50 46 49 41 42 42 47 55 46 37 35 34 37 40 42 45 49 54 55 56 61 66 69 73 72 70 71 71 66 68 62 60
47 42 51 46 61 62 62 61 61 62 61 59 52 53 53 53 51 45 34 32 30 30 31 35 42 45 47 50 59 62 63 61 64 67 64 63 57 59 59 61 66 65 62
51 44 55 53 61 62 62 61 60 57 57 58 54 55 50 50 47 37 39 35 33 32 35 38 40 45 47 51 59 62 63 78 77 74 71 70 72 71 65 66 66 70 75
53 48 52 54 56 59 59 54 58 56 59 61 58 49 45 43 39 40 42 42 38 37 37 37 41 42 38 40 40 41 48 58 60 64 67 69 64 66 68 65 59 62 63

GFSMA_250_spd_111.txt.gz
Wind_Speed
55 54 54 52 55 55 55 54 50 48 51 48 50 52 48 45 38 39 30 33 26 34 36 34 32 28 30 30 26 32 23 35 31 26 19 17 12 12 10 11 10 8 6
58 58 58 59 60 57 54 51 52 53 49 50 50 53 53 49 43 40 35 31 32 34 39 37 36 32 36 32 31 21 41 35 32 22 22 26 20 18 10 11 10 12 10
60 60 61 60 59 60 60 58 55 53 53 52 53 57 56 52 47 39 40 36 38 38 40 40 36 34 38 40 34 33 36 42 40 37 25 28 32 21 17 13 15 12 18
61 62 63 62 62 62 62 62 61 55 56 54 55 56 56 56 53 46 39 39 40 44 42 43 44 38 41 43 46 33 42 49 43 39 33 30 38 30 25 23 20 16 19
68 64 65 66 66 63 62 61 61 58 56 52 54 55 60 59 52 50 42 42 43 47 45 44 48 46 44 51 46 49 47 46 49 40 39 40 38 33 32 29 24 19 19
61 62 62 64 65 64 61 61 61 60 55 52 56 57 58 58 55 55 46 45 46 50 47 48 49 51 48 54 54 51 45 47 51 43 36 39 39 38 39 39 26 23 21
59 62 63 65 66 65 66 63 57 55 47 46 54 59 62 56 66 63 49 46 48 49 51 50 54 53 56 54 60 56 50 48 46 47 46 41 38 35 35 34 35 34 32
64 65 70 68 66 62 58 58 46 43 53 62 63 68 66 66 66 54 51 51 52 54 53 54 55 57 60 59 64 61 54 52 42 46 46 41 36 32 30 33 36 38 37
72 71 69 68 70 64 56 52 44 39 74 71 59 58 71 75 67 53 57 52 51 53 58 59 53 57 64 59 63 67 64 58 60 55 51 41 40 39 36 35 32 34 33
76 76 75 68 63 62 55 51 44 52 58 65 56 69 72 69 65 64 63 59 53 54 60 61 55 58 62 63 65 71 70 59 53 57 51 48 42 39 29 33 31 40 33
78 77 75 71 65 57 58 57 50 60 71 74 66 72 79 70 67 72 62 63 59 57 59 61 55 55 60 67 70 68 66 60 60 62 55 43 50 46 40 38 34 40 38
80 77 74 68 72 65 54 53 51 53 62 78 81 90 88 84 77 62 74 67 58 57 56 57 55 55 60 65 74 68 60 56 55 57 56 56 56 58 53 45 38 40 35
80 80 75 67 72 65 57 55 50 57 62 59 73 87 87 71 62 58 63 53 47 54 52 54 51 55 56 56 61 68 67 62 62 61 58 59 60 54 53 47 44 45 45
79 77 72 68 65 57 56 53 48 53 52 58 59 72 66 55 47 57 48 47 48 52 51 49 46 48 47 49 58 61 64 67 64 64 65 65 65 60 58 53 50 52 53
73 71 69 62 51 57 59 53 42 50 51 52 51 46 46 42 47 43 48 50 49 49 50 47 46 41 44 43 55 61 62 63 66 64 65 65 67 65 58 59 58 55 56
68 66 55 45 46 57 51 49 46 54 56 52 58 59 53 54 51 52 49 50 50 50 51 47 44 39 42 50 58 62 69 71 66 70 68 67 68 67 63 54 57 58 60
62 52 36 36 42 46 46 51 57 60 57 59 60 59 56 58 52 54 53 53 51 52 55 50 48 47 44 55 61 66 67 74 71 66 70 77 77 74 66 63 64 63 61
52 35 33 34 33 32 36 40 46 50 46 69 66 60 56 50 49 51 52 55 51 54 52 51 50 50 52 57 62 72 73 76 75 75 76 78 80 82 79 77 72 71 63
38 38 39 39 34 23 20 24 32 37 41 54 64 60 57 56 55 53 53 50 53 53 52 49 48 55 50 59 66 68 73 80 82 83 86 84 83 83 84 81 78 82 77
33 44 47 42 36 23 14 30 28 35 42 51 55 57 58 53 53 53 47 50 50 53 55 54 52 53 54 52 59 65 70 72 72 77 83 89 90 89 89 86 85 81 81
37 48 48 42 36 21 34 40 42 47 51 56 61 53 60 53 50 50 50 48 52 52 52 58 52 52 60 58 55 61 64 62 64 66 77 87 93 93 94 93 88 87 84
45 51 51 52 48 42 47 45 47 42 60 64 60 55 57 60 57 55 58 57 56 57 52 56 55 51 56 61 61 66 68 67 66 70 71 71 75 76 81 88 95 97 93
51 53 54 56 51 39 40 44 50 47 51 60 61 59 62 59 59 61 58 54 53 53 54 45 50 60 63 66 66 65 71 72 72 71 71 69 63 63 61 70 77 85 85
56 54 54 55 56 51 38 37 53 50 51 56 59 63 64 63 62 56 54 58 56 55 43 46 40 44 53 55 55 59 61 58 54 53 53 55 54 61 62 64 69 70 69
58 55 54 56 56 65 55 49 54 51 53 64 63 67 69 67 66 64 62 60 60 58 48 47 39 37 35 38 41 39 41 40 48 49 53 54 54 58 61 62 62 62 60
61 55 56 60 60 68 67 57 58 51 68 65 59 63 59 66 61 59 55 54 53 52 51 48 39 39 39 37 38 40 45 47 48 51 60 63 63 62 65 64 63 65 61

GFSMA_250_spd_114.txt.gz
Wind_Speed
51 51 51 51 50 50 50 48 50 52 56 53 49 51 51 48 46 43 43 38 33 29 33 35 36 33 32 32 33 30 31 31 25 24 28 21 18 12 16 13 10 12 10
52 50 51 53 51 51 53 53 53 53 55 55 54 54 54 50 48 48 43 38 34 32 33 38 40 37 36 32 34 33 32 29 32 35 34 26 23 17 18 20 16 14 13
54 53 52 53 52 55 53 56 56 54 53 53 55 56 55 52 49 46 42 39 39 34 37 41 47 40 39 35 38 37 35 33 35 36 33 26 26 24 15 21 22 17 18
55 50 51 39 54 55 59 57 58 56 55 56 56 56 52 49 47 46 45 45 40 35 34 41 47 46 42 39 44 40 40 34 33 43 39 40 36 37 32 24 26 25 26
62 59 58 51 41 56 62 56 56 54 51 50 50 47 47 49 50 45 42 46 44 42 37 40 47 52 43 42 46 47 47 38 40 50 46 44 41 42 33 32 27 31 28
54 54 59 64 61 60 57 54 60 59 56 50 45 41 42 45 50 51 49 48 47 44 45 39 49 52 53 48 48 51 52 46 47 41 46 41 44 45 43 37 32 33 35
57 52 56 62 65 65 63 60 60 59 55 55 54 52 49 46 46 51 50 52 55 45 45 38 44 55 57 55 50 55 58 57 56 48 43 44 44 40 41 36 35 38 37
61 58 57 55 58 61 61 63 58 57 50 46 51 50 50 50 59 61 62 58 59 51 48 42 42 54 60 60 56 57 62 62 62 59 49 47 47 48 38 36 39 37 34
64 63 60 60 61 63 63 64 60 57 53 45 46 41 57 67 74 77 73 64 60 53 45 37 40 53 62 64 63 61 61 65 67 66 52 51 47 49 46 41 38 35 34
72 69 66 65 64 64 65 66 63 55 55 55 51 48 43 81 93 74 73 68 70 58 53 44 42 48 62 68 68 65 64 64 69 70 62 57 49 45 45 45 42 40 32
77 74 71 70 70 70 71 70 66 57 55 60 60 61 68 74 67 71 71 67 79 73 65 61 45 45 64 69 72 68 68 66 66 70 66 62 53 53 53 51 45 39 40
83 78 76 74 75 74 72 75 70 63 58 61 73 71 75 80 82 77 79 76 78 79 73 71 64 50 62 70 71 72 70 71 67 65 70 63 66 63 55 55 54 49 45
84 79 78 78 78 78 72 73 70 65 63 63 73 82 82 84 83 82 82 92 93 91 83 78 74 59 57 70 72 70 70 70 70 64 71 69 62 61 62 49 57 61 55
87 84 81 79 78 77 72 72 70 64 68 66 68 82 85 85 85 72 65 72 83 89 83 80 77 62 59 65 69 64 70 66 68 66 66 73 72 74 66 64 65 59 58
84 83 81 79 78 78 70 69 69 66 66 66 70 80 82 85 72 66 67 67 78 80 69 72 59 56 53 59 67 63 60 61 56 58 65 67 71 71 68 67 66 64 55
81 78 78 79 79 71 68 66 65 58 56 50 58 71 68 73 69 59 58 63 69 71 60 54 50 48 48 56 60 56 54 51 59 60 61 70 77 74 69 69 64 62 61
76 78 77 76 68 61 60 59 53 48 45 51 57 58 64 63 58 53 53 56 56 51 46 42 47 50 51 53 54 47 47 41 55 63 67 67 66 72 73 70 69 65 64
69 66 66 64 57 53 52 50 42 42 49 56 58 56 57 59 59 53 53 58 49 45 46 41 50 53 52 52 49 43 47 46 57 59 66 71 73 70 68 68 65 65 64
64 61 57 55 53 44 45 49 43 43 49 54 56 56 57 54 57 51 55 52 48 45 42 43 54 55 55 54 53 49 48 51 57 66 64 68 73 73 73 75 74 71 69
61 57 54 49 45 45 45 44 41 31 29 33 38 34 37 35 43 50 52 46 39 41 43 47 54 56 56 57 52 51 50 57 57 62 69 72 73 74 79 82 84 85 85
61 56 49 43 43 49 46 40 35 28 26 31 42 30 24 37 47 52 50 48 48 46 47 53 57 56 56 55 56 58 54 55 64 71 69 70 72 74 77 78 78 82 86
50 55 45 43 49 50 50 44 35 36 33 45 37 42 44 65 56 52 51 49 54 54 51 56 57 54 57 56 55 55 54 59 59 63 66 67 74 77 78 78 80 80 82
50 46 45 46 55 53 51 43 45 49 49 37 40 50 52 47 60 57 51 52 55 57 50 51 53 51 52 53 52 55 55 57 63 64 64 67 76 74 76 75 72 73 72
49 46 44 53 59 59 56 50 49 47 40 41 44 47 55 50 49 50 53 56 58 59 57 52 51 54 56 53 48 48 51 58 64 67 72 73 75 78 80 76 74 81 81
50 45 50 57 57 64 64 50 49 50 47 37 45 45 54 59 56 49 56 61 62 62 60 59 57 58 52 53 51 53 51 51 59 71 76 79 80 76 78 82 78 72 61
52 48 56 56 58 65 70 59 53 55 57 54 46 41 49 62 61 61 60 64 66 64 60 59 56 56 57 58 57 55 53 51 45 45 52 58 60 65 61 60 61 56 57

GFSMA_250_spd_117.txt.gz
Wind_Speed
51 47 43 42 43 46 46 45 46 48 50 49 49 50 51 51 49 49 48 44 42 35 30 29 27 30 32 31 31 30 32 31 27 32 27 18 18 20 10 20 16 12 11
50 50 45 45 46 45 45 43 46 43 45 49 52 53 51 49 46 46 44 41 37 30 26 29 30 33 32 37 35 33 39 34 28 34 35 28 31 26 18 14 10 19 17
49 49 50 52 51 37 33 40 47 46 42 48 54 54 47 41 39 41 39 39 34 32 29 32 29 32 37 38 40 37 41 43 35 34 33 37 38 31 22 20 14 13 21
55 50 48 47 44 35 32 39 43 51 44 55 60 53 42 42 39 34 34 34 31 27 37 31 30 31 36 41 41 41 42 45 44 40 37 35 36 28 29 28 28 27 20
55 53 52 51 50 39 30 41 44 45 50 59 61 50 44 43 40 36 38 38 37 36 36 40 39 38 36 44 43 45 45 48 46 40 38 44 38 38 36 34 36 39 34
71 69 62 52 52 54 51 50 54 53 47 51 65 48 51 47 41 39 37 40 41 42 44 43 47 44 42 40 51 47 49 50 51 44 39 38 46 44 40 39 36 39 40
70 72 67 68 65 62 61 66 70 61 47 56 64 53 50 48 41 42 39 48 55 56 56 52 54 40 44 34 48 54 49 53 54 49 41 38 51 58 50 47 39 39 38
73 71 69 67 68 66 67 68 74 68 66 71 66 53 50 51 42 41 44 50 59 67 74 60 57 43 39 40 42 58 54 57 59 56 48 47 53 49 47 43 37 37 36
76 74 71 70 70 67 64 67 71 71 77 73 73 70 64 56 51 50 47 43 61 58 68 71 75 63 53 53 43 54 62 55 63 60 59 56 51 48 47 45 45 42 45
80 76 75 73 71 71 69 69 69 69 71 71 72 73 68 69 63 58 54 42 70 62 69 67 75 75 59 61 30 44 56 64 63 68 66 67 59 58 55 48 45 44 43
81 79 76 77 75 75 75 74 74 72 73 76 71 71 70 67 69 69 64 58 62 72 74 78 81 72 64 62 57 53 42 60 69 71 71 70 69 62 61 58 48 45 43
86 82 80 80 79 81 80 79 77 74 76 76 75 71 69 65 71 78 77 75 75 71 73 83 83 71 64 62 67 68 55 39 66 73 77 75 73 69 61 57 53 47 45
91 92 88 85 84 86 87 82 81 80 80 78 76 72 69 67 71 77 86 86 83 84 82 76 74 76 74 67 69 70 73 61 51 75 78 79 76 75 69 63 59 59 54
97 98 94 89 91 89 87 87 83 82 82 82 79 76 71 71 75 84 89 93 93 90 88 87 85 85 77 71 69 69 72 67 67 64 80 82 75 75 72 73 66 59 61
94 97 94 97 96 94 88 88 86 84 84 85 83 81 77 73 74 78 81 87 94 96 87 91 93 81 75 62 65 63 63 62 64 63 78 80 78 76 69 70 70 65 64
92 93 93 95 96 89 90 89 88 85 84 82 80 80 76 71 73 75 75 83 87 87 84 84 73 78 77 62 63 59 64 66 61 59 75 73 72 75 74 65 62 67 64
82 84 83 86 82 79 82 83 79 79 81 82 76 72 67 69 67 64 64 69 73 71 63 69 69 70 72 61 58 58 59 56 53 59 65 66 64 65 64 59 57 69 65
71 71 74 79 80 80 82 80 79 75 70 69 67 62 61 56 47 42 47 59 64 65 63 63 70 70 64 57 50 53 52 46 54 55 58 57 57 57 58 57 60 67 67
66 66 70 70 72 74 76 78 70 66 59 60 57 54 47 41 35 44 46 52 59 61 64 58 58 60 45 42 51 48 47 48 51 50 55 56 53 57 61 63 68 72 73
66 65 64 65 66 69 71 71 67 59 56 53 49 43 42 38 45 52 51 56 54 60 60 58 54 43 41 45 48 47 49 51 47 46 51 48 54 62 62 65 69 71 74
69 67 67 67 67 67 69 68 62 53 52 46 42 44 43 44 46 50 56 57 62 59 53 47 48 38 41 44 44 51 53 54 50 46 45 47 47 64 68 67 68 69 71
70 72 69 68 68 62 59 63 55 51 47 45 41 38 38 38 24 25 29 34 33 34 46 50 52 43 41 46 50 52 56 51 52 53 52 48 50 55 63 78 80 77 74
66 67 67 61 58 56 61 56 50 48 50 52 52 42 35 38 22 41 57 47 37 39 45 45 41 39 40 47 53 52 53 52 53 54 54 53 51 53 57 64 67 70 72
64 64 64 65 62 62 56 49 46 52 54 56 54 59 42 32 31 57 48 48 41 44 47 45 45 44 44 45 51 54 55 56 56 55 54 56 57 54 58 69 70 73 71
58 59 56 54 53 53 48 45 53 56 59 59 55 50 47 40 49 55 53 41 47 52 48 50 53 54 54 50 50 55 58 58 57 56 54 55 54 59 64 68 71 71 72
47 47 47 49 51 52 47 49 59 63 62 56 58 52 52 50 44 50 58 47 46 43 52 54 54 51 54 53 52 52 57 59 56 55 55 57 55 52 54 59 75 80 80

GFSMA_250_spd_120.txt.gz
Wind_Speed
48 46 48 48 47 47 45 48 43 41 29 27 25 27 26 29 34 39 38 32 31 26 20 16 17 20 21 20 22 28 28 31 33 33 32 30 21 15 12 8 4 7 9
52 49 47 49 48 45 47 48 46 30 28 29 27 33 38 35 33 37 32 31 25 20 17 16 16 22 20 20 21 29 32 34 32 34 36 31 30 28 22 19 13 9 5
59 56 50 48 47 46 45 42 35 34 33 30 32 38 44 34 35 37 31 32 27 25 24 18 18 23 26 21 23 24 33 36 35 38 35 37 40 34 27 21 21 14 8
61 57 52 50 49 46 45 44 38 36 30 27 34 37 44 33 37 34 36 31 28 28 24 24 20 19 31 26 28 29 31 41 37 42 40 43 45 37 32 28 28 25 23
72 66 55 54 53 49 46 42 41 34 45 44 44 48 37 31 37 40 39 33 33 28 24 23 23 28 33 42 40 40 31 37 39 47 48 45 45 45 35 33 35 32 24
77 75 72 66 63 55 50 42 43 44 37 37 45 47 47 40 45 43 42 43 44 37 38 36 35 39 46 53 49 40 38 37 44 46 52 53 51 46 38 35 37 35 33
75 76 74 75 68 68 65 65 52 44 42 50 55 50 59 48 42 54 43 42 46 45 41 39 42 41 47 51 55 42 30 38 44 44 53 55 53 49 40 39 41 38 40
79 78 75 75 77 74 72 69 69 65 62 61 53 50 62 60 49 54 43 44 48 51 51 47 47 48 38 49 53 48 43 43 39 51 51 57 56 50 47 45 48 47 51
83 79 77 78 77 76 77 79 79 79 80 85 85 76 61 63 64 64 60 59 57 59 60 57 51 52 43 46 52 59 52 47 37 46 52 59 60 53 49 48 53 55 52
90 87 80 77 77 77 77 77 76 77 79 80 85 87 87 85 71 72 70 73 68 65 66 64 60 59 53 55 62 61 52 54 37 40 57 55 62 62 54 51 52 53 51
98 91 85 81 79 77 78 80 79 77 77 77 78 83 83 87 88 84 81 81 77 73 75 73 72 71 68 66 66 64 60 60 63 41 35 54 62 64 61 58 57 57 57
99 94 91 87 84 83 80 80 81 79 78 77 77 78 80 78 79 84 83 84 81 78 78 81 79 77 75 73 67 73 72 66 60 56 54 39 59 67 67 62 64 65 58
106 100 94 91 90 89 85 84 81 81 81 79 78 79 79 78 78 78 78 78 79 79 78 81 83 84 82 83 81 81 77 73 64 60 43 50 49 56 70 72 69 64 67
108 103 99 97 94 91 88 88 85 83 86 85 85 85 81 80 82 80 79 79 76 75 79 84 90 92 92 91 88 88 84 79 70 59 57 50 52 56 56 68 76 74 65
96 101 101 99 100 98 93 91 92 91 89 93 92 88 85 84 85 84 83 82 80 73 74 83 88 91 97 98 92 93 88 81 77 68 67 70 57 54 59 62 68 78 75
89 93 98 101 98 96 96 96 97 98 96 96 98 98 90 89 89 88 88 79 77 75 69 78 83 88 94 93 94 94 89 80 80 76 70 61 64 63 63 62 67 77 77
81 86 93 96 99 101 98 94 95 97 97 97 97 93 94 89 87 88 81 73 73 75 71 74 77 76 81 84 83 82 78 77 69 61 69 72 65 67 58 59 63 73 74
66 76 84 89 90 92 89 90 95 96 93 92 92 89 87 84 83 78 75 69 67 68 69 71 71 70 74 76 67 66 57 55 57 57 62 61 65 57 51 52 58 65 67
62 63 65 69 73 74 77 79 83 85 87 85 83 82 80 82 77 72 65 64 62 60 57 54 49 51 51 56 55 56 54 56 61 64 59 55 53 48 47 49 55 59 59
62 63 60 59 61 63 65 68 71 73 76 77 78 76 74 72 66 64 62 55 48 40 38 34 39 45 45 53 50 51 50 50 52 49 49 48 44 43 45 47 45 48 53
57 59 61 59 61 62 65 69 70 71 72 71 71 70 66 62 60 56 52 42 41 41 34 37 39 42 47 48 53 55 49 49 42 45 47 43 44 41 47 43 46 48 49
61 61 66 68 67 69 71 69 69 71 72 73 71 67 63 60 52 50 43 40 39 36 39 43 46 48 50 51 51 51 44 42 43 47 49 44 43 43 42 43 46 51 53
65 62 67 71 72 71 73 75 76 75 73 72 67 64 63 53 49 47 45 42 35 37 37 30 33 43 51 55 52 45 38 45 46 47 43 46 44 41 39 43 45 54 59
67 63 65 70 72 72 71 73 76 77 75 69 67 59 55 48 48 52 45 45 35 38 38 35 32 32 39 44 46 43 42 45 48 47 47 49 49 48 45 47 47 51 55
61 62 65 67 69 72 75 72 72 70 71 69 63 53 48 51 49 50 45 45 39 45 43 40 38 37 35 38 43 48 46 45 48 49 51 50 53 55 54 51 51 54 51
53 55 57 60 65 69 71 70 68 70 69 69 54 51 54 59 54 50 54 44 40 50 50 45 41 42 41 41 40 39 39 43 50 52 52 53 56 55 56 55 54 55 56